     2              OBSERVATION DATA    GPS                 RINEX VERSION / TYPE
teqc 2000Jul20 Karen Wendt 20040114 20:23:44UTC             PGM / RUN BY / DATE
                                                            COMMENT
L2: 1 -> 1; 150 -> 5; 250 -> 9                              COMMENT
L2: 1 -> 1; 150 -> 5; 250 -> 9                              COMMENT
L2: 1 -> 1; 150 -> 5; 250 -> 9                              COMMENT
L2: 1 -> 1; 150 -> 5; 250 -> 9                              COMMENT
L2: 1 -> 1; 150 -> 5; 250 -> 9                              COMMENT
L2: 1 -> 1; 150 -> 5; 250 -> 9                              COMMENT
L2: 1 -> 1; 150 -> 5; 250 -> 9                              COMMENT
L2: 1 -> 1; 150 -> 5; 250 -> 9                              COMMENT
L2: 1 -> 1; 150 -> 5; 250 -> 9                              COMMENT
L2: 1 -> 1; 150 -> 5; 250 -> 9                              COMMENT
L2: 1 -> 1; 150 -> 5; 250 -> 9                              COMMENT
L2: 1 -> 1; 150 -> 5; 250 -> 9                              COMMENT
L2: 1 -> 1; 150 -> 5; 250 -> 9                              COMMENT
L2: 1 -> 1; 150 -> 5; 250 -> 9                              COMMENT
Original Marker Name: 2068 2068_smtpd_SLO_046_PM00.33       COMMENT
Campaign Name: USGS San Simeon 2003-2004                    COMMENT
4-Character Station Name: 2068                              COMMENT
6-Character Antenna Code: DMRCHT                            COMMENT
Vertical Measurement Point: BCR                             COMMENT
Vertical Offset to Rinex Ref. Point: 0.0348                 COMMENT
Radial Measurement Point: ECF                               COMMENT
Radial Offset to Rinex Ref. Point: 0.1897                   COMMENT
Antenna Height from Field Measurement: 1.7240 m             COMMENT
Additional Antenna Identification Info.:                    COMMENT
Turborogue and Ashtech Choke Ring                           COMMENT
Original XYZ: -2679701.9867 -4452319.8672 3685840.0306      COMMENT
New XYZ position is based on association with SCEC monument COMMENT
E1F0J5C2+0011. Position of that monument is believed to be  COMMENT
valid to within 1 m horizontally; vertical accuracy         COMMENT
should be no worse than 3-times this value.                 COMMENT
                                                            COMMENT
Revised Rinex header created by UCSD GPS archive for        COMMENT
GSAC on 20-Apr-2005 (2005:110) 16:27:25 GMT                 COMMENT
For assistance contact dagnew@ucsd.edu                      COMMENT
or anderson@python.ucsd.edu                                 COMMENT
                                                            COMMENT
SLO 046 PM00.33                                             MARKER NAME
JLS US GEOLOGICAL SURVEY                                    OBSERVER / AGENCY
ZE1200331018 ASHTECH UZ-12 ZE00                             REC # / TYPE / VERS
CR14330 DORNE-MARGOL. TYPE T                                ANT # / TYPE
 -2679720.0000 -4452299.0000  3685834.0000                  APPROX POSITION XYZ
        1.6787        0.0000        0.0000                  ANTENNA: DELTA H/E/N
     1     1     0                                          WAVELENGTH FACT L1/2
     5    C1    L1    L2    P1    P2                        # / TYPES OF OBSERV
    30                                                      INTERVAL
  2004     1     9     0     0    0.000000                  TIME OF FIRST OBS
  2004     1     9    23    59   30.000000                  TIME OF LAST OBS
                                                            END OF HEADER
 04  1  9  0  0  0.0000000  0  7G24G10G 5G 6G21G30G17
  22618278.578     1205596.09843    958535.66842  22618280.199    22618278.186
  21023021.633   -18990614.38743 -14640283.72142  21023023.112    21023020.893
  21212121.637    -9482755.09544  -7377904.57842  21212123.303    21212121.125
  21834264.689   -17835002.68143 -13855586.81542  21834266.920    21834264.054
  23806019.945    -3310930.64643  -2364217.81542  23806022.454    23806019.923
  20205496.318   -20837126.09944 -16227472.09142  20205499.049    20205495.120
  20700116.280   -23224408.12244 -18007844.84442  20700117.888    20700115.545
 04  1  9  0  0 30.0000000  0  7G24G10G 5G 6G21G30G17
  22633543.841     1285815.59843   1021044.35942  22633545.485    22633543.521
  21020961.611   -19001439.42143 -14648718.79942  21020963.127    21020960.965
  21225759.538    -9411087.66644  -7322059.84842  21225761.191    21225758.899
  21823122.390   -17893555.22143 -13901212.15342  21823124.660    21823121.838
  23789906.166    -3395609.36543  -2430201.13342  23789908.771    23789906.143
  20205023.970   -20839608.19544 -16229406.18742  20205026.681    20205022.761
  20704881.258   -23199368.22744 -17988333.23642  20704882.813    20704880.465
 04  1  9  0  1  0.0000000  0  7G24G10G 5G 6G21G30G17
  22648827.449     1366130.80743   1083627.63342  22648829.047    22648826.910
  21019022.734   -19011628.08743 -14656658.01042  21019024.284    21019022.085
  21239477.341    -9339000.45544  -7265888.01242  21239478.970    21239476.514
  21812001.615   -17951995.33043 -13946749.88942  21812003.827    21812001.012
  23773827.712    -3480102.03943  -2496039.52842  23773830.386    23773827.637
  20204663.779   -20841500.81744 -16230880.95142  20204666.499    20204662.552
  20709708.505   -23174000.96044 -17968566.53142  20709710.044    20709707.678
 04  1  9  0  1 30.0000000  0  7G24G10G 5G 6G21G30G17
  22664129.110     1446541.51143   1146285.30742  22664130.763    22664128.523
  21017205.346   -19021178.66643 -14664100.00942  21017206.875    21017204.593
  21253274.877    -9266493.98544  -7209389.48942  21253276.512    21253273.919
  21800902.619   -18010320.70243 -13992198.20742  21800904.772    21800902.085
  23757784.829    -3564406.86643  -2561731.50142  23757787.551    23757785.131
  20204416.123   -20842802.33344 -16231895.11942  20204418.835    20204414.802
  20714597.998   -23148306.46744 -17948544.84442  20714599.571    20714597.177
 04  1  9  0  2  0.0000000  0  7G24G10G 5G 6G21G30G17
  22679447.257     1527039.61843   1209011.10442  22679449.069    22679446.869
  21015508.280   -19030097.03743 -14671049.37742  21015509.784    21015507.373
  21267150.526    -9193576.94244  -7152571.03242  21267152.198    21267149.495
  21789824.441   -18068536.62743 -14037561.24642  21789826.611    21789824.010
  23741776.893    -3648528.91243  -2627281.05242  23741779.357    23741777.415
  20204279.855   -20843518.44144 -16232453.12342  20204282.556    20204278.481
  20719548.360   -23122292.17844 -17928273.96342  20719549.936    20719547.508
 04  1  9  0  2 30.0000000  0  7G24G10G 5G 6G21G30G17
  22694783.021     1607629.28543   1271808.23842  22694784.751    22694782.668
  21013932.717   -19038376.95943 -14677501.25242  21013934.215    21013931.700
  21281105.056    -9120245.36244  -7095429.56642  21281106.745    21281103.942
  21778768.451   -18126636.55543 -14082833.89742  21778770.573    21778767.964
  23725805.000    -3732461.70743  -2692683.13242  23725807.240    23725805.466
  20204256.138   -20843643.10544 -16232550.26242  20204258.869    20204254.788
  20724560.329   -23095953.99544 -17907750.69942  20724561.902    20724559.450
 04  1  9  0  3  0.0000000  0  7G24G10G 5G 6G21G30G17
  22710134.726     1688302.99343   1334670.85642  22710136.403    22710134.331
  21012477.569   -19046023.70943 -14683459.76242  21012479.096    21012476.627
  21295136.956    -9046507.25144  -7037971.32242  21295138.664    21295135.809
  21767733.468   -18184625.20043 -14128019.83542  21767735.596    21767733.125
  23709868.066    -3816210.92943  -2757942.19342  23709870.272    23709868.318
  20204343.878   -20843181.75144 -16232190.76742  20204346.622    20204342.627
  20729632.606   -23069298.92344 -17886980.51242  20729634.183    20729631.740
 04  1  9  0  3 30.0000000  0  7G24G10G 5G 6G21G30G17
  22725503.168     1769064.90843   1397602.20242  22725504.899    22725502.804
  21011144.111   -19053030.78843 -14688919.82642  21011145.637    21011143.286
  21309247.139    -8972358.10444  -6980192.78542  21309248.854    21309245.923
  21756721.080   -18242495.61143 -14173113.64942  21756723.166    21756720.730
  23693967.390    -3899769.75343  -2823052.86542  23693969.364    23693967.469
  20204544.373   -20842127.91044 -16231369.58642  20204547.117    20204543.237
  20734766.076   -23042322.41244 -17865959.85342  20734767.622    20734765.184
 04  1  9  0  4  0.0000000  0  7G24G10G 5G 6G21G30G17
  22740888.114     1849912.97543   1460600.67542  22740889.810    22740887.696
  21009932.448   -19059398.37443 -14693881.57542  21009933.908    21009931.597
  21323434.864    -8897800.68743  -6922096.11342  21323436.630    21323433.706
  21745731.238   -18300247.57643 -14218115.15642  21745733.252    21745730.932
  23678102.865    -3983137.58743  -2888014.75442  23678104.860    23678102.865
  20204857.543   -20840482.03944 -16230087.08542  20204860.278    20204856.461
  20739960.250   -23015026.67944 -17844690.44642  20739961.824    20739959.366
 04  1  9  0  4 30.0000000  0  7G24G10G 5G 6G21G30G17
  22756288.489     1930842.60543   1523662.71442  22756290.226    22756288.146
  21008841.911   -19065129.32943 -14698347.24542  21008843.358    21008841.009
  21337699.257    -8822840.38943  -6863685.50942  21337701.012    21337698.166
  21734763.588   -18357883.09443 -14263025.93642  21734765.582    21734763.248
  23662274.194    -4066316.91943  -2952829.76342  23662276.261    23662274.194
  20205282.856   -20838246.86944 -16228345.39542  20205285.619    20205281.813
  20745214.444   -22987415.76244 -17823175.44142  20745216.005    20745213.497
 04  1  9  0  5  0.0000000  0  7G24G10G 5G 6G21G30G17
  22771704.042     2011852.49143   1586787.28342  22771705.790    22771703.904
  21007872.580   -19070222.82543 -14702316.19842  21007874.097    21007871.786
  21352040.076    -8747478.56443  -6804962.02442  21352041.831    21352039.078
  21723818.263   -18415400.52743 -14307844.69442  21723820.341    21723818.048
  23646481.912    -4149306.71243  -3017497.04942  23646483.816    23646481.769
  20205820.635   -20835421.30844 -16226143.66042  20205823.351    20205819.479
  20750528.362   -22959490.69144 -17801415.64042  20750529.966    20750527.395
 04  1  9  0  5 30.0000000  0  7G24G10G 5G 6G21G30G17
  22787135.047     2092942.79543   1649974.52942  22787136.849    22787134.907
  21007025.013   -19074676.86143 -14705786.87742  21007026.484    21007024.244
  21366457.495    -8671714.89943  -6745925.42642  21366459.165    21366456.480
  21712896.003   -18472797.21543 -14352569.36542  21712898.116    21712895.784
  23630725.844    -4232104.83943  -3082014.98542  23630727.843    23630725.794
  20206471.019   -20832003.69944 -16223480.59142  20206473.692    20206469.774
  20755902.160   -22931251.22044 -17779410.85242  20755903.727    20755901.159
 04  1  9  0  6  0.0000000  0  7G24G10G 5G 6G21G30G17
  22802580.244     2174107.26443   1713219.56342  22802581.984    22802579.951
  21006298.281   -19078495.99943 -14708762.81542  21006299.769    21006297.542
  21380949.923    -8595556.56143  -6686581.29042  21380951.620    21380948.990
  21701996.035   -18530076.88943 -14397202.86342  21701998.173    21701995.751
  23615005.949    -4314714.83243  -3146386.32342  23615007.700    23615005.252
  20207233.180   -20827998.50144 -16220359.66142  20207235.883    20207231.893
  20761334.640   -22902703.48944 -17757165.86442  20761336.180    20761333.607
 04  1  9  0  6 30.0000000  0  7G24G10G 5G 6G21G30G17
  22818040.031     2255348.88443   1776524.70642  22818041.718    22818039.697
  21005693.300   -19081675.38543 -14711240.24342  21005694.819    21005692.574
  21395517.985    -8519001.06943  -6626927.68042  21395519.697    21395517.076
  21691119.358   -18587233.99843 -14441740.84742  21691121.520    21691119.101
  23599322.463    -4397131.83043  -3210607.26242  23599324.276    23599321.591
  20208108.002   -20823400.97644 -16216777.16942  20208110.751    20208106.745
  20766826.381   -22873844.16944 -17734678.08442  20766827.923    20766825.368
 04  1  9  0  7  0.0000000  0  7G24G10G 5G 6G21G30G17
  22833514.504     2336668.20043   1839890.39842  22833516.205    22833514.188
  21005210.513   -19084212.61543 -14713217.29042  21005212.015    21005209.798
  21410161.650    -8442048.46943  -6566964.64242  21410163.335    21410160.702
  21680266.697   -18644265.24343 -14486180.76042  21680268.848    21680266.406
  23583676.073    -4479352.76543  -3274675.46942  23583677.993    23583675.121
  20209095.982   -20818208.66144 -16212731.20742  20209098.754    20209094.809
  20772377.475   -22844672.80844 -17711947.15042  20772379.042    20772376.496
 04  1  9  0  7 30.0000000  0  7G24G10G 5G 6G21G30G17
  22849002.459     2418058.88343   1903311.71242  22849004.125    22849002.268
  21004848.983   -19086112.21343 -14714697.48242  21004850.487    21004848.305
  21424879.506    -8364705.58343  -6506697.47642  21424881.241    21424878.527
  21669437.290   -18701174.48743 -14530525.60742  21669439.417    21669436.910
  23568066.323    -4561382.12143  -3338594.39242  23568068.044    23568065.382
  20210196.353   -20812426.17244 -16208225.36642  20210199.095    20210195.196
  20777986.794   -22815195.33744 -17688977.68642  20777988.394    20777985.818
 04  1  9  0  8  0.0000000  0  7G24G10G 5G 6G21G30G17
  22864504.802     2499524.39143   1966791.31342  22864506.374    22864504.663
  21004609.809   -19087368.97244 -14715676.76142  21004611.340    21004609.095
  21439672.268    -8286968.97943  -6446123.52242  21439674.024    21439671.278
  21658632.216   -18757955.76043 -14574770.72842  21658634.321    21658631.774
  23552493.698    -4643213.93643  -3402359.37742  23552495.614    23552493.464
  20211410.041   -20806048.38044 -16203255.66142  20211412.766    20211408.865
  20783655.152   -22785408.08544 -17665766.83242  20783656.712    20783654.134
 04  1  9  0  8 30.0000000  0  7G24G10G 5G 6G21G30G17
  22880019.954     2581056.74643   2030323.00642  22880021.408    22880019.748
  21004491.779   -19087989.26944 -14716160.10042  21004493.300    21004490.971
  21454538.289    -8208847.48443  -6385249.66042  21454540.010    21454537.281
  21647850.399   -18814614.41543 -14618920.31042  21647852.563    21647850.011
  23536958.019    -4724853.94843  -3465974.88042  23536959.860    23536958.039
  20212735.765   -20799081.80244 -16197827.16242  20212738.512    20212734.536
  20789380.903   -22755319.04944 -17642320.83242  20789382.443    20789379.900
 04  1  9  0  9  0.0000000  0  7G24G10G 5G 6G21G30G17
  22895547.673     2662654.52843   2093905.67842  22895549.018    22895547.314
  21004494.896   -19087972.78643 -14716147.24042  21004496.412    21004494.096
  21469477.181    -8130343.14543  -6324077.46342  21469478.881    21469476.162
  21637092.283   -18871149.07243 -14662973.26642  21637094.387    21637091.867
  23521458.995    -4806301.73443  -3529440.58742  23521460.868    23521458.975
  20214173.664   -20791526.02444 -16191939.54542  20214176.357    20214172.306
  20795163.812   -22724929.62044 -17618640.75642  20795165.381    20795162.818
 04  1  9  0  9 30.0000000  0  7G24G10G 5G 6G21G30G17
  22911088.758     2744324.56743   2157544.65442  22911090.257    22911088.672
  21004620.707   -19087311.21543 -14715631.71942  21004622.212    21004620.006
  21484490.236    -8051449.51943  -6262601.93442  21484491.859    21484489.173
  21626359.527   -18927550.37143 -14706922.31242  21626361.660    21626359.050
  23505998.194    -4887548.15043  -3592749.37642  23506000.086    23505998.270
  20215725.153   -20783372.53644 -16185586.18042  20215727.880    20215723.796
  20801005.343   -22694232.30144 -17594720.76642  20801006.909    20801004.264
 04  1  9  0 10  0.0000000  0  7G24G10G 5G 6G21G30G17
  22926641.291     2826054.94243   2221230.65542  22926642.863    22926641.538
  21004867.314   -19086014.97943 -14714621.66042  21004868.793    21004866.714
  21499574.813    -7972179.70343  -6200833.26442  21499576.449    21499573.810
  21615650.308   -18983827.60643 -14750774.67942  21615652.493    21615649.840
  23490574.052    -4968603.26743  -3655909.12742  23490575.873    23490574.058
  20217388.489   -20774631.90344 -16178775.30042  20217391.190    20217387.095
  20806903.097   -22663239.44544 -17570570.48942  20806904.683    20806902.001
 04  1  9  0 10 30.0000000  0  7G24G10G 5G 6G21G30G17
  22942206.634     2907851.62843   2284968.31742  22942208.101    22942206.957
  21005236.181   -19084076.64443 -14713111.26242  21005237.648    21005235.632
  21514732.038    -7892527.95743  -6138766.99442  21514733.708    21514731.140
  21604966.319   -19039972.52543 -14794523.94442  21604968.490    21604965.840
  23475187.903    -5049458.26943  -3718912.96542  23475189.790    23475187.855
  20219164.955   -20765296.62144 -16171501.05442  20219167.670    20219163.617
  20812858.304   -22631944.87344 -17546185.11142  20812859.865    20812857.229
 04  1  9  0 11  0.0000000  0  7G24G10G 5G 6G21G30G17
  22957783.552     2989709.37643   2348753.56342  22957784.907    22957783.989
  21005726.652   -19081499.79743 -14711103.31542  21005728.080    21005726.051
  21529960.755    -7812500.02443  -6076407.58242  21529962.483    21529960.019
  21594306.948   -19095987.63443 -14838172.06442  21594309.189    21594306.498
  23459838.968    -5130116.66643  -3781763.60042  23459841.064    23459838.866
  20221053.884   -20755370.41644 -16163766.34642  20221056.575    20221052.630
  20818869.836   -22600353.85544 -17521568.72842  20818871.432    20818868.842
 04  1  9  0 11 30.0000000  0  7G24G10G 5G 6G21G30G17
  22973371.965     3071626.23043   2412584.84242  22973373.148    22973372.391
  21006338.437   -19078284.89143 -14708598.18642  21006339.874    21006337.826
  21545260.654    -7732098.43743  -6013757.01442  21545262.331    21545260.001
  21583672.540   -19151872.16143 -14881718.42642  21583674.752    21583672.000
  23444527.481    -5210578.25843  -3844460.88942  23444529.680    23444527.202
  20223055.183   -20744853.56744 -16155571.40142  20223057.894    20223053.982
  20824937.516   -22568467.85844 -17496722.49942  20824939.144    20824936.513
 04  1  9  0 12  0.0000000  0  7G24G10G 5G 6G21G30G17
  22988971.981     3153604.75543   2476464.20642  22988973.188    22988972.523
  21007072.400   -19074427.64543 -14705592.54042  21007073.832    21007071.753
  21560631.973    -7651321.09343  -5950813.64242  21560633.654    21560631.449
  21573063.962   -19207620.74543 -14925158.87142  21573066.195    21573063.370
  23429254.447    -5290838.29443  -3907001.12042  23429256.755    23429254.010
  20225169.651   -20733742.01344 -16146913.04942  20225172.411    20225168.430
  20831061.914   -22536284.23244 -17471644.35142  20831063.512    20831060.837
 04  1  9  0 12 30.0000000  0  7G24G10G 5G 6G21G30G17
  23004582.163     3235635.97643   2540384.60242  23004583.314    23004582.637
  21007927.102   -19069936.12843 -14702092.63842  21007928.587    21007926.359
  21576073.009    -7570178.08443  -5887585.34542  21576074.627    21576072.486
  21562479.951   -19263240.06543 -14968498.58142  21562482.189    21562479.288
  23414018.462    -5370903.85343  -3969389.81042  23414020.854    23414017.793
  20227395.802   -20722043.61444 -16137797.41342  20227398.567    20227394.545
  20837241.129   -22503812.10044 -17446341.38442  20837242.747    20837240.082
 04  1  9  0 13  0.0000000  0  7G24G10G 5G 6G21G30G17
  23020203.641     3317728.15943   2604352.53542  23020205.069    23020204.298
  21008904.327   -19064800.53443 -14698090.86742  21008905.836    21008903.492
  21591585.092    -7488661.93143  -5824066.28342  21591586.709    21591584.537
  21551922.561   -19318719.17543 -15011729.04542  21551924.860    21551921.883
  23398821.463    -5450764.29043  -4031618.65642  23398823.842    23398820.675
  20229735.447   -20709748.65144 -16128216.92642  20229738.212    20229734.192
  20843476.925   -22471042.93644 -17420806.96942  20843478.540    20843475.853
 04  1  9  0 13 30.0000000  0  7G24G10G 5G 6G21G30G17
  23035834.821     3399870.23743   2668359.34142  23035836.355    23035835.402
  21010002.398   -19059030.42843 -14693594.67042  21010003.855    21010001.423
  21607166.155    -7406784.03843  -5760265.35442  21607167.731    21607165.419
  21541390.327   -19374066.59443 -15054856.88742  21541392.569    21541389.509
  23383661.841    -5530428.97843  -4093694.99042  23383664.209    23383660.900
  20232186.797   -20696866.69744 -16118179.04242  20232189.561    20232185.601
  20849767.049   -22437988.05544 -17395049.91742  20849768.648    20849766.020
 04  1  9  0 14  0.0000000  0  7G24G10G 5G 6G21G30G17
  23051476.504     3482066.59743   2732408.43042  23051477.956    23051476.877
  21011222.081   -19052620.69343 -14688600.06742  21011223.575    21011221.150
  21622816.564    -7324540.94843  -5696179.85142  21622818.212    21622815.770
  21530884.329   -19429275.41743 -15097876.72842  21530886.608    21530883.605
  23368540.580    -5609891.36943  -4155613.68042  23368542.955    23368539.626
  20234750.847   -20683392.49644 -16107679.67042  20234753.622    20234749.682
  20856112.418   -22404643.13044 -17369066.85442  20856113.968    20856111.346
 04  1  9  0 14 30.0000000  0  7G24G10G 5G 6G21G30G17
  23067128.164     3564317.15343   2796499.75642  23067129.736    23067128.601
  21012563.782   -19045570.19643 -14683106.16642  21012565.248    21012562.836
  21638536.165    -7241933.89543  -5631810.74942  21638537.899    21638535.361
  21520405.304   -19484343.28843 -15140786.74742  21520407.506    21520404.482
  23353458.231    -5689149.80043  -4217373.42342  23353460.608    23353457.302
  20237427.844   -20669324.76344 -16096717.80742  20237430.621    20237426.698
  20862512.939   -22371008.17144 -17342857.79542  20862514.473    20862511.855
 04  1  9  0 15  0.0000000  0  7G24G10G 5G 6G21G30G17
  23082788.673     3646613.39943   2860626.69342  23082790.313    23082789.059
  21014025.952   -19037886.13043 -14677118.56942  21014027.466    21014025.015
  21654323.321    -7158971.80743  -5567164.99142  21654325.054    21654322.541
  21509952.015   -19539276.02643 -15183591.46742  21509954.187    21509951.076
  23338413.530    -5768210.40143  -4278979.03742  23338415.962    23338412.568
  20240216.435   -20654670.62144 -16085298.99842  20240219.217    20240215.301
  20868967.037   -22337091.50144 -17316429.21942  20868968.569    20868965.982
 04  1  9  0 15 30.0000000  0  7G24G10G 5G 6G21G30G17
  23098459.171     3728963.05643   2924795.23642  23098460.935    23098459.655
  21015610.499   -19029559.60644 -14670630.35842  21015611.992    21015609.466
  21670179.318    -7075647.47843  -5502236.95942  21670181.095    21670178.646
  21499526.339   -19594063.14143 -15226282.71542  21499528.591    21499525.415
  23323408.189    -5847063.44443  -4340422.91142  23323410.745    23323407.327
  20243118.230   -20639421.12444 -16073416.27842  20243121.049    20243117.218
  20875476.249   -22302885.17144 -17289774.92842  20875477.755    20875475.305
 04  1  9  0 16  0.0000000  0  7G24G10G 5G 6G21G30G17
  23114138.073     3811355.83643   2988997.38942  23114139.746    23114138.513
  21017315.565   -19020599.64244 -14663648.55842  21017317.060    21017314.513
  21686102.166    -6991972.52843  -5437035.71542  21686103.858    21686101.528
  21489126.993   -19648712.40843 -15268866.54742  21489129.267    21489125.948
  23308440.832    -5925717.47443  -4401711.70842  23308443.322    23308440.022
  20246131.690   -20623585.51744 -16061076.84842  20246134.447    20246130.640
  20882038.632   -22268399.81544 -17262903.21642  20882040.076    20882037.668
 04  1  9  0 16 30.0000000  0  7G24G10G 5G 6G21G30G17
  23129825.821     3893796.36343   3053236.74942  23129827.639    23129826.373
  21019142.186   -19011000.78644 -14656168.92042  21019143.687    21019141.091
  21702092.434    -6907943.14243  -5371558.28242  21702094.088    21702091.873
  21478755.100   -19703216.95543 -15311337.60742  21478757.424    21478754.073
  23293512.584    -6004166.27443  -4462840.59642  23293515.049    23293511.733
  20249257.760   -20607158.15844 -16048276.31542  20249260.463    20249256.662
  20888654.861   -22233630.91644 -17235810.56642  20888656.334    20888653.954
 04  1  9  0 17  0.0000000  0  7G24G10G 5G 6G21G30G17
  23145521.759     3976278.64043   3117508.62342  23145523.549    23145522.234
  21021089.378   -19000768.33244 -14648195.57042  21021090.911    21021088.230
  21718148.845    -6823566.35243  -5305810.14342  21718150.495    21718148.280
  21468409.999   -19757580.30043 -15353698.63942  21468412.373    21468409.031
  23278622.653    -6082413.84943  -4523812.65242  23278625.094    23278621.583
  20252495.365   -20590144.21144 -16035018.69642  20252498.107    20252494.253
  20895324.030   -22198584.63844 -17208501.77542  20895325.431    20895323.070
 04  1  9  0 17 30.0000000  0  7G24G10G 5G 6G21G30G17
  23161226.338     4058806.69743   3181816.17842  23161228.137    23161226.837
  21023158.133   -18989896.86443 -14639724.29042  21023159.653    21023156.947
  21734272.028    -6738838.96343  -5239788.82242  21734273.680    21734271.334
  21458093.141   -19811795.59143 -15395944.31142  21458095.460    21458092.178
  23263772.195    -6160453.93443  -4584623.03542  23263774.608    23263770.988
  20255845.637   -20572538.36844 -16021299.86142  20255848.381    20255844.479
  20902046.684   -22163256.75644 -17180973.55442  20902048.094    20902045.778
 04  1  9  0 18  0.0000000  0  7G24G10G 5G 6G21G30G17
  23176938.557     4141375.44943   3246155.44642  23176940.324    23176939.143
  21025347.683   -18978390.40843 -14630758.21742  21025349.182    21025346.514
  21750460.788    -6653766.57743  -5173498.67242  21750462.496    21750460.013
  21447803.961   -19865865.30943 -15438076.54642  21447806.287    21447803.086
  23248960.488    -6238289.81343  -4645274.31142  23248962.823    23248959.171
  20259307.836   -20554344.53644 -16007122.85242  20259310.575    20259306.593
  20908821.989   -22127652.34944 -17153229.85842  20908823.424    20908821.080
 04  1  9  0 18 30.0000000  0  7G24G10G 5G 6G21G30G17
  23192658.397     4223984.01643   3310525.74342  23192660.108    23192659.020
  21027658.125   -18966248.66343 -14621297.12142  21027659.638    21027657.040
  21766714.902    -6568350.83543  -5106940.97842  21766716.576    21766713.974
  21437542.874   -19919787.38443 -15480093.73942  21437545.160    21437542.144
  23234187.995    -6315919.95243  -4705765.24642  23234190.300    23234186.527
  20262882.029   -20535562.34444 -15992487.38442  20262884.749    20262880.710
  20915649.797   -22091772.07444 -17125271.19842  20915651.236    20915648.849
 04  1  9  0 19  0.0000000  0  7G24G10G 5G 6G21G30G17
  23208385.538     4306630.30043   3374925.42742  23208387.204    23208386.043
  21030089.199   -18953473.26243 -14611342.26342  21030090.695    21030088.180
  21783033.631    -6482595.00543  -5040118.27242  21783035.349    21783032.625
  21427309.941   -19973561.76843 -15521995.84442  21427312.172    21427309.280
  23219454.500    -6393345.20843  -4766096.55642  23219456.815    23219452.808
  20266567.855   -20516193.41044 -15977394.71142  20266570.584    20266566.506
  20922529.610   -22055618.44344 -17097099.53842  20922531.058    20922528.626
 04  1  9  0 19 30.0000000  0  7G24G10G 5G 6G21G30G17
  23224119.610     4389312.15443   3439352.83342  23224121.174    23224119.875
  21032640.563   -18940065.82943 -14600894.91042  21032642.038    21032639.548
  21799416.470    -6396502.18843  -4973032.98242  21799418.203    21799415.460
  21417105.233   -20027188.17843 -15563782.64242  21417107.400    21417104.537
  23204759.863    -6470565.74543  -4826268.31642  23204762.199    23204758.226
  20270365.023   -20496238.94544 -15961845.78342  20270367.767    20270363.756
  20929460.987   -22019193.63544 -17068716.56442  20929462.484    20929460.101
 04  1  9  0 20  0.0000000  0  7G24G10G 5G 6G21G30G17
  23239860.677     4472032.10043   3503809.91242  23239862.468    23239860.927
  21035312.688   -18926023.08943 -14589952.51442  21035314.257    21035311.782
  21815863.802    -6310071.19743  -4905684.18242  21815865.445    21815862.743
  21406929.495   -20080661.72643 -15605450.32842  21406931.685    21406928.830
  23190104.910    -6547577.61843  -4886277.50842  23190107.152    23190103.251
  20274274.221   -20475695.68144 -15945838.04942  20274276.955    20274273.001
  20936444.467   -21982495.33044 -17040120.48542  20936445.948    20936443.594
 04  1  9  0 20 30.0000000  0  7G24G10G 5G 6G21G30G17
  23255608.696     4554787.51943   3568294.64142  23255610.434    23255608.848
  21038105.519   -18911346.50643 -14578516.21342  21038107.066    21038104.599
  21832374.809    -6223305.24243  -4838074.36742  21832376.462    21832373.828
  21396782.949   -20133982.13943 -15646998.69142  21396785.125    21396782.282
  23175489.399    -6624381.09543  -4946124.30242  23175491.694    23175487.861
  20278295.203   -20454565.02544 -15929372.60942  20278297.950    20278294.028
  20943479.327   -21945526.31344 -17011313.46442  20943480.857    20943478.547
 04  1  9  0 21  0.0000000  0  7G24G10G 5G 6G21G30G17
  23271362.697     4637575.48243   3632804.73442  23271364.606    23271362.885
  21041018.575   -18896038.48443 -14566587.87442  21041020.079    21041017.513
  21848948.802    -6136208.22143  -4770206.57842  21848950.436    21848948.001
  21386665.522   -20187149.82443 -15688428.03042  21386667.639    21386664.802
  23160913.442    -6700977.70543  -5005809.90042  23160915.780    23160911.813
  20282427.610   -20432849.37644 -15912451.32842  20282430.343    20282426.380
  20950565.270   -21908289.37543 -16982297.67242  20950566.728    20950564.457
 04  1  9  0 21 30.0000000  0  7G24G10G 5G 6G21G30G17
  23287122.763     4720395.19343   3697339.55042  23287124.801    23287123.057
  21044051.760   -18880098.53243 -14554167.12442  21044053.313    21044050.731
  21865585.425    -6048782.08543  -4702082.32942  21865587.057    21865584.750
  21376577.431   -20240162.88043 -15729736.88742  21376579.581    21376576.734
  23146377.253    -6777365.93243  -5065333.13142  23146379.546    23146375.424
  20286671.308   -20410548.41844 -15895073.96742  20286674.054    20286670.135
  20957702.066   -21870785.29143 -16953073.72142  20957703.452    20957701.223
 04  1  9  0 22  0.0000000  0  7G24G10G 5G 6G21G30G17
  23302888.680     4803245.74543   3761898.40642  23302890.777    23302889.106
  21047205.079   -18863527.61443 -14541254.71842  21047206.570    21047204.112
  21882284.281    -5961029.25043  -4633703.51342  21882285.866    21882283.674
  21366519.111   -20293019.80143 -15770924.08342  21366521.263    21366518.397
  23131880.711    -6853545.45943  -5124693.76642  23131883.025    23131878.940
  20291026.397   -20387662.64144 -15877240.90042  20291029.042    20291025.203
  20964889.477   -21833015.29744 -16923642.56042  20964890.796    20964888.626
 04  1  9  0 22 30.0000000  0  7G24G10G 5G 6G21G30G17
  23318659.756     4886123.11443   3826478.14642  23318661.737    23318660.158
  21050477.889   -18846329.03243 -14527853.22542  21050479.346    21050476.917
  21899044.326    -5872954.38343  -4565073.76342  21899045.936    21899043.806
  21356490.128   -20345722.18243 -15811990.85742  21356492.334    21356489.518
  23117423.463    -6929518.60343  -5183893.56742  23117425.795    23117421.826
  20295491.966   -20364195.35444 -15858954.70642  20295494.654    20295490.886
  20972126.595   -21794983.65644 -16894007.51642  20972127.937    20972125.848
 04  1  9  0 23  0.0000000  0  7G24G10G 5G 6G21G30G17
  23334436.592     4969031.34443   3891081.94742  23334438.598    23334437.098
  21053871.036   -18828497.97843 -14513958.88342  21053872.542    21053870.036
  21915866.369    -5784554.37243  -4496190.65642  21915867.955    21915865.771
  21346491.862   -20398263.40343 -15852932.05342  21346494.040    21346491.299
  23103006.676    -7005279.08043  -5242927.65442  23103008.989    23103005.210
  20300069.154   -20340141.84344 -15840211.71242  20300071.825    20300068.077
  20979414.341   -21756686.50744 -16864165.57742  20979415.741    20979413.530
 04  1  9  0 23 30.0000000  0  7G24G10G 5G 6G21G30G17
  23350218.549     5051964.86543   3955705.45242  23350220.393    23350218.948
  21057383.542   -18810039.64343 -14499575.76042  21057385.044    21057382.511
  21932748.974    -5695836.25243  -4427059.67942  21932750.549    21932748.272
  21336523.661   -20450646.46243 -15893749.99542  21336525.867    21336523.146
  23088629.477    -7080830.98143  -5301799.21042  23088631.841    23088628.168
  20304757.043   -20315506.81944 -15821015.59342  20304759.699    20304755.915
  20986751.501   -21718129.32244 -16834121.02442  20986752.960    20986750.673
 04  1  9  0 24  0.0000000  0  7G24G10G 5G 6G21G30G17
  23366004.943     5134923.12243   4020348.21442  23366006.888    23366005.313
  21061015.318   -18790954.02043 -14484703.83742  21061016.874    21061014.422
  21949691.676    -5606801.48543  -4357681.96242  21949693.336    21949690.959
  21326585.969   -20502869.28843 -15934443.08942  21326588.161    21326585.427
  23074292.350    -7156172.77943  -5360507.05042  23074294.674    23074291.070
  20309555.646   -20290290.38744 -15801366.43542  20309558.258    20309554.406
  20994138.104   -21679312.78844 -16803874.37542  20994139.522    20994137.233
 04  1  9  0 24 30.0000000  0  7G24G10G 5G 6G21G30G17
  23381796.061     5217905.26943   4085009.62242  23381797.919    23381796.223
  21064766.536   -18771241.35243 -14469343.30742  21064767.996    21064765.618
  21966694.366    -5517451.89243  -4288058.92342  21966696.022    21966693.616
  21316679.085   -20554930.16543 -15975009.98742  21316681.290    21316678.548
  23059995.439    -7231304.01543  -5419050.81842  23059997.702    23059993.956
  20314464.791   -20264492.68544 -15781264.33742  20314467.442    20314463.496
  21001573.863   -21640237.85444 -16773426.36942  21001575.315    21001572.994
 04  1  9  0 25  0.0000000  0  7G24G10G 5G 6G21G30G17
  23397591.265     5300909.81243   4149688.46142  23397593.157    23397591.497
  21068636.761   -18750902.93343 -14453495.18542  21068638.235    21068635.921
  21983756.577    -5427789.88243  -4218192.44242  21983758.209    21983755.731
  21306803.206   -20606828.36543 -16015450.12342  21306805.390    21306802.616
  23045738.535    -7306224.46543  -5477430.33842  23045740.816    23045736.985
  20319484.243   -20238114.82444 -15760710.16442  20319486.909    20319483.007
  21009058.374   -21600906.37844 -16742778.46742  21009059.878    21009057.525
 04  1  9  0 25 30.0000000  0  7G24G10G 5G 6G21G30G17
  23413390.468     5383935.06343   4214383.46742  23413392.387    23413390.580
  21072625.979   -18729939.62143 -14437160.13342  21072627.395    21072625.089
  22000877.562    -5337818.71143  -4148085.05042  22000879.253    22000876.662
  21296958.368   -20658562.96143 -16055762.77442  21296960.601    21296957.797
  23031521.741    -7380934.09343  -5535645.59342  23031523.953    23031520.071
  20324613.946   -20211157.83144 -15739704.72042  20324616.568    20324612.736
  21016591.478   -21561320.12744 -16711932.03942  21016592.937    21016590.508
 04  1  9  0 26  0.0000000  0  7G24G10G 5G 6G21G30G17
  23429193.964     5466982.60543   4279095.81842  23429195.955    23429193.957
  21076734.352   -18708349.78843 -14420336.87642  21076735.789    21076733.446
  22018057.439    -5247537.49043  -4077736.07142  22018059.187    22018056.613
  21287145.612   -20710129.69443 -16095944.62342  21287147.786    21287144.932
  23017345.623    -7455429.69143  -5593694.05542  23017347.738    23017343.949
  20329854.345   -20183619.65244 -15718246.40842  20329856.913    20329853.100
  21024173.228   -21521477.57744 -16680885.89942  21024174.744    21024172.298
 04  1  9  0 26 30.0000000  0  7G24G10G 5G 6G21G30G17
  23445000.683     5550047.52643   4343821.73242  23445002.779    23445000.750
  21080961.084   -18686138.37143 -14403029.26842  21080962.500    21080960.138
  22035295.148    -5156952.99643  -4007150.76942  22035296.853    22035294.226
  21277364.163   -20761531.39743 -16135997.88742  21277366.348    21277363.498
  23003209.700    -7529714.67443  -5651578.39842  23003211.682    23003208.011
  20335204.376   -20155505.14144 -15696339.00942  20335206.967    20335203.187
  21031802.673   -21481384.30644 -16649644.38742  21031804.213    21031801.794
 04  1  9  0 27  0.0000000  0  7G24G10G 5G 6G21G30G17
  23460811.193     5633131.05443   4408562.11642  23460813.115    23460811.001
  21085306.388   -18663303.69143 -14385236.00142  21085307.829    21085305.482
  22052590.539    -5066065.12143  -3936329.06742  22052592.245    22052589.598
  21267614.822   -20812763.95243 -16175919.33942  21267617.014    21267614.276
  22989114.163    -7603786.30543  -5709296.48542  22989116.218    22989112.721
  20340664.412   -20126812.40444 -15673981.03542  20340667.013    20340663.326
  21039480.141   -21441038.91044 -16618206.41542  21039481.679    21039479.215
 04  1  9  0 27 30.0000000  0  7G24G10G 5G 6G21G30G17
  23476624.530     5716231.58843   4473315.77742  23476626.632    23476624.464
  21089770.089   -18639846.79843 -14366957.89442  21089771.508    21089769.181
  22069943.212    -4974876.53843  -3865273.05242  22069944.891    22069942.128
  21257897.943   -20863826.55943 -16215708.36742  21257900.103    21257897.365
  22975059.446    -7677644.51943  -5766848.28742  22975061.469    22975058.074
  20346234.266   -20097542.45444 -15651173.29542  20346236.861    20346233.295
  21047205.257   -21400443.30544 -16586573.47742  21047206.743    21047204.208
 04  1  9  0 28  0.0000000  0  7G24G10G 5G 6G21G30G17
  23492440.414     5799343.54743   4538078.33142  23492442.395    23492440.027
  21094351.133   -18615773.28243 -14348199.30342  21094352.545    21094350.191
  22087351.840    -4883393.99343  -3793987.97442  22087353.503    22087350.697
  21248212.762   -20914722.42943 -16255367.47242  21248214.898    21248212.165
  22961044.502    -7751293.10243  -5824236.74742  22961046.543    22961043.269
  20351912.841   -20067700.97444 -15627920.20342  20351915.412    20351912.005
  21054976.792   -21359603.46944 -16554750.22642  21054978.309    21054975.715
 04  1  9  0 28 30.0000000  0  7G24G10G 5G 6G21G30G17
  23508259.113     5882471.70343   4602853.52242  23508261.179    23508258.690
  21099050.430   -18591078.41743 -14328956.54742  21099051.880    21099049.469
  22104817.048    -4791613.97143  -3722471.09042  22104818.734    22104815.944
  21238560.646   -20965444.28043 -16294890.97042  21238562.829    21238560.114
  22947070.653    -7824725.99043  -5881457.11942  22947072.628    22947069.451
  20357701.222   -20037282.77144 -15604217.70942  20357703.763    20357700.421
  21062795.705   -21318514.66344 -16522732.97742  21062797.207    21062794.630
 04  1  9  0 29  0.0000000  0  7G24G10G 5G 6G21G30G17
  23524080.770     5965615.81643   4667641.13242  23524082.859    23524080.368
  21103868.056   -18565761.62543 -14309229.16742  21103869.536    21103867.107
  22122338.586    -4699537.86643  -3650723.49642  22122340.324    22122337.559
  21228942.224   -21015989.34844 -16334276.72542  21228944.410    21228941.705
  22933137.979    -7897942.09843  -5938508.58942  22933139.988    22933136.706
  20363599.449   -20006287.43044 -15580065.50742  20363601.960    20363598.605
  21070662.016   -21277177.08244 -16490521.87342  21070663.471    21070660.935
 04  1  9  0 29 30.0000000  0  7G24G10G 5G 6G21G30G17
  23539904.203     6048766.92943   4732434.20242  23539906.096    23539903.387
  21108802.106   -18539832.58143 -14289024.70942  21108803.612    21108801.225
  22139914.381    -4607176.53043  -3578753.64242  22139916.135    22139913.375
  21219356.119   -21066364.68743 -16373530.22142  21219358.274    21219355.621
  22919245.407    -7970948.48043  -5995396.64942  22919247.344    22919244.024
  20369605.772   -19974724.23944 -15555470.82242  20369608.262    20369604.869
  21078573.715   -21235600.39044 -16458124.44942  21078575.225    21078572.687
 04  1  9  0 30  0.0000000  0  7G24G10G 5G 6G21G30G17
  23555729.577     6131929.93443   4797236.52442  23555731.649    23555728.612
  21113853.732   -18513286.08343 -14268339.12342  21113855.226    21113852.860
  22157545.232    -4514525.83143  -3506558.31042  22157547.039    22157544.213
  21209803.720   -21116562.90543 -16412645.69842  21209805.832    21209803.157
  22905393.783    -8043739.17243  -6052116.62742  22905395.832    22905392.464
  20375721.024   -19942588.17244 -15530429.74042  20375723.528    20375720.201
  21086531.884   -21193780.08144 -16425537.19842  21086533.379    21086530.767
 04  1  9  0 30 30.0000000  0  7G24G10G 5G 6G21G30G17
  23571556.955     6215102.56843   4862046.35242  23571559.004    23571555.714
  21119022.516   -18486124.39043 -14247174.16242  21119023.992    21119021.586
  22175230.484    -4421589.55843  -3434140.46042  22175232.266    22175229.417
  21200285.103   -21166583.44243 -16451622.72542  21200287.230    21200284.530
  22891583.114    -8116314.24943  -6108668.60942  22891585.246    22891581.873
  20381945.115   -19909880.86744 -15504943.53342  20381947.575    20381944.289
  21094535.976   -21151718.27243 -16392761.77042  21094537.469    21094534.860
 04  1  9  0 31  0.0000000  0  7G24G10G 5G 6G21G30G17
  23587385.853     6298285.34443   4926864.08142  23587388.121    23587384.778
  21124308.500   -18458346.80544 -14225529.28142  21124309.996    21124307.474
  22192969.865    -4328368.60643  -3361500.78042  22192971.654    22192968.756
  21190800.900   -21216423.53144 -16490459.14242  21190803.010    21190800.272
  22877813.933    -8188671.95743  -6165051.19242  22877816.165    22877812.693
  20388277.886   -19876601.85044 -15479011.84342  20388280.416    20388277.165
  21102586.089   -21109414.88843 -16359798.09842  21102587.543    21102584.949
 04  1  9  0 31 30.0000000  0  7G24G10G 5G 6G21G30G17
  23603215.935     6381472.35743   4991685.10042  23603218.067    23603214.654
  21129710.542   -18429958.96544 -14203408.87442  21129712.079    21129709.453
  22210762.067    -4234869.77943  -3288644.57442  22210763.859    22210760.987
  21181350.329   -21266086.28343 -16529157.37442  21181352.510    21181349.763
  22864085.362    -8260816.39743  -6221267.60442  22864087.596    22864084.081
  20394718.462   -19842756.64044 -15452638.95942  20394720.973    20394717.675
  21110681.010   -21066875.80744 -16326650.76942  21110682.462    21110679.914
 04  1  9  0 32  0.0000000  0  7G24G10G 5G 6G21G30G17
  23619047.404     6464667.42443   5056512.42842  23619049.590    23619046.033
  21135229.326   -18400957.53643 -14180810.35842  21135230.868    21135228.237
  22228607.504    -4141091.08743  -3215570.29342  22228609.286    22228606.500
  21171934.738   -21315565.56344 -16567712.64642  21171936.909    21171934.111
  22850398.043    -8332742.97443  -6277314.25242  22850400.349    22850396.816
  20401267.365   -19808341.59444 -15425822.04942  20401269.939    20401266.624
  21118821.552   -21024097.79044 -16293317.25042  21118822.935    21118820.275
 04  1  9  0 32 30.0000000  0  7G24G10G 5G 6G21G30G17
  23634879.621     6547865.57343   5121342.12842  23634881.706    23634878.214
  21140863.814   -18371347.89343 -14157737.90842  21140865.387    21140862.816
  22246504.949    -4047039.06043  -3142283.01942  22246506.740    22246504.005
  21162553.541   -21364864.05043 -16606127.03442  21162555.704    21162552.879
  22836751.553    -8404455.51643  -6333194.12442  22836753.733    22836750.414
  20407923.876   -19773361.92144 -15398565.17142  20407926.434    20407922.999
  21127006.300   -20981086.11644 -16259801.65742  21127007.774    21127005.091
 04  1  9  0 33  0.0000000  0  7G24G10G 5G 6G21G30G17
  23650712.211     6631066.21043   5186173.78742  23650714.291    23650710.874
  21146614.014   -18341130.30543 -14134191.74242  21146615.565    21146613.063
  22264454.248    -3952715.15543  -3068783.88842  22264456.015    22264453.213
  21153207.134   -21413979.67844 -16644398.94042  21153209.298    21153206.474
  22823146.308    -8475952.15043  -6388905.74442  22823148.336    22823144.969
  20414687.701   -19737817.98244 -15370868.60842  20414690.260    20414686.792
  21135235.510   -20937841.52944 -16226104.57242  21135236.957    21135234.284
 04  1  9  0 33 30.0000000  0  7G24G10G 5G 6G21G30G17
  23666545.098     6714269.43243   5251007.44942  23666547.365    23666544.013
  21152479.903   -18310304.91643 -14110171.95142  21152481.447    21152478.905
  22282455.094    -3858120.79343  -2995074.02842  22282456.821    22282453.920
  21143896.009   -21462910.01244 -16682526.45842  21143898.165    21143895.303
  22809582.262    -8547232.00243  -6444448.45042  22809584.344    22809580.834
  20421558.904   -19701709.64244 -15342732.25142  20421561.454    20421558.025
  21143508.863   -20894364.39243 -16192226.28242  21143510.348    21143507.740
 04  1  9  0 34  0.0000000  0  7G24G10G 5G 6G21G30G17
  23682379.060     6797476.21243   5315843.88842  23682381.210    23682377.759
  21158461.473   -18278871.16243 -14085678.11942  21158463.047    21158460.432
  22300507.225    -3763256.74543  -2921154.01142  22300508.962    22300505.882
  21134620.809   -21511651.62944 -16720506.93342  21134622.960    21134620.087
  22796059.820    -8618292.91243  -6499820.54742  22796061.947    22796058.411
  20428537.609   -19665036.09544 -15314155.47442  20428540.209    20428536.823
  21151826.689   -20850653.72743 -16158166.03342  21151828.146    21151825.632
 04  1  9  0 34 30.0000000  0  7G24G10G 5G 6G21G30G17
  23698212.127     6880679.38943   5380677.51842  23698214.305    23698210.839
  21164557.507   -18246836.21243 -14060715.82442  21164559.013    21164556.377
  22318609.084    -3668131.15643  -2847030.20142  22318610.867    22318607.669
  21125380.679   -21560209.15144 -16758343.94342  21125382.821    21125379.919
  22782578.086    -8689139.80743  -6555025.88742  22782580.201    22782576.651
  20435622.639   -19627804.29644 -15285143.69042  20435625.235    20435621.848
  21160187.580   -20806717.22843 -16123929.81242  21160188.976    21160186.490
 04  1  9  0 35  0.0000000  0  7G24G10G 5G 6G21G30G17
  23714045.700     6963885.87443   5445513.72142  23714047.922    23714044.597
  21170769.212   -18214193.59543 -14035280.01642  21170770.726    21170768.034
  22336761.569    -3572738.71143  -2772698.44842  22336763.411    22336760.279
  21116177.304   -21608573.26344 -16796030.25342  21116179.515    21116176.548
  22769138.438    -8759764.95443  -6610058.43242  22769140.550    22769137.061
  20442815.042   -19590007.74744 -15255691.84042  20442817.674    20442814.312
  21168592.652   -20762548.31443 -16089512.49042  21168594.044    21168591.572
 04  1  9  0 35 30.0000000  0  7G24G10G 5G 6G21G30G17
  23729878.664     7047087.79643   5510346.36142  23729880.730    23729877.421
  21177094.957   -18180951.80743 -14009377.32942  21177096.440    21177093.736
  22354963.060    -3477089.06143  -2698166.28242  22354964.868    22354961.857
  21107009.660   -21656749.81944 -16833570.40842  21107011.891    21107008.884
  22755739.860    -8830175.14043  -6664923.47842  22755742.008    22755738.339
  20450113.358   -19551654.82444 -15225806.45542  20450115.988    20450112.596
  21177040.308   -20718155.42543 -16054920.63342  21177041.734    21177039.319
 04  1  9  0 36  0.0000000  0  7G24G10G 5G 6G21G30G17
  23745711.000     7130287.78843   5575177.53242  23745713.184    23745709.853
  21183535.208   -18147107.94443 -13983005.48742  21183536.743    21183534.037
  22373213.787    -3381180.75043  -2623432.55942  22373215.557    22373212.609
  21097878.743   -21704733.15344 -16870959.99842  21097880.983    21097877.933
  22742382.846    -8900366.08843  -6719617.67642  22742385.071    22742381.477
  20457518.216   -19512742.41544 -15195485.10142  20457520.838    20457517.369
  21185531.129   -20673535.84243 -16020152.12842  21185532.581    21185530.145
 04  1  9  0 36 30.0000000  0  7G24G10G 5G 6G21G30G17
  23761542.591     7213482.73243   5640004.75342  23761544.682    23761541.193
  21190089.340   -18112665.82843 -13956167.48042  21190090.844    21190088.218
  22391512.882    -3285018.31443  -2548500.81342  22391514.603    22391511.821
  21088784.382   -21752523.97444 -16908199.58042  21088786.632    21088783.633
  22729067.253    -8970339.89443  -6774142.67342  22729069.416    22729066.009
  20465028.814   -19473274.22144 -15164730.67842  20465031.420    20465027.905
  21194064.427   -20628693.20743 -15985209.81542  21194065.879    21194063.392
 04  1  9  0 37  0.0000000  0  7G24G10G 5G 6G21G30G17
  23777373.478     7296673.22143   5704828.52342  23777375.480    23777371.685
  21196757.278   -18077625.38143 -13928863.23242  21196758.811    21196756.229
  22409860.084    -3188602.98043  -2473372.02042  22409861.794    22409859.193
  21079727.211   -21800119.47544 -16945286.96542  21079729.438    21079726.526
  22715793.489    -9040094.57643  -6828496.91942  22715795.611    22715792.119
  20472645.242   -19433249.78544 -15133542.81142  20472647.852    20472644.356
  21202640.169   -20583627.22843 -15950093.46542  21202641.644    21202639.173
 04  1  9  0 37 30.0000000  0  7G24G10G 5G 6G21G30G17
  23793202.401     7379854.91143   5769645.44042  23793204.456    23793200.597
  21203538.168   -18041991.54643 -13901096.60842  21203539.654    21203537.167
  22428254.420    -3091940.19043  -2398050.39042  22428256.065    22428253.541
  21070706.855   -21847521.44844 -16982223.54242  21070709.092    21070706.174
  22702560.800    -9109632.82743  -6882682.53442  22702562.984    22702559.453
  20480366.539   -19392673.94944 -15101925.28342  20480369.166    20480365.698
  21211257.511   -20538342.68743 -15914806.80342  21211258.970    21211256.507
 04  1  9  0 38  0.0000000  0  7G24G10G 5G 6G21G30G17
  23809030.763     7463032.81443   5834459.38542  23809032.714    23809028.842
  21210432.693   -18005759.92243 -13872864.16942  21210434.283    21210431.811
  22446696.371    -2995027.06343  -2322533.69342  22446698.024    22446695.551
  21061724.700   -21894722.73944 -17019003.75542  21061726.940    21061724.003
  22689370.362    -9178948.97543  -6936695.07042  22689372.562    22689369.025
  20488193.740   -19351542.11444 -15069874.51142  20488196.327    20488192.803
  21219917.292   -20492835.04943 -15879346.30442  21219918.750    21219916.251
 04  1  9  0 38 30.0000000  0  7G24G10G 5G 6G21G30G17
  23824857.266     7546201.38843   5899266.07142  23824859.108    23824855.342
  21217440.060   -17968936.17243 -13844170.33342  21217441.613    21217439.129
  22465184.615    -2897870.33343  -2246827.17942  22465186.302    22465184.001
  21052780.176   -21941726.32544 -17055629.90342  21052782.402    21052779.471
  22676221.363    -9248047.33343  -6990537.90042  22676223.576    22676219.974
  20496125.617   -19309860.05444 -15037394.99642  20496128.227    20496124.592
  21228618.431   -20447110.25443 -15843716.59042  21228619.872    21228617.340
 04  1  9  0 39  0.0000000  0  7G24G10G 5G 6G21G30G17
  23840681.762     7629361.85443   5964066.45242  23840683.977    23840680.184
  21224560.191   -17931519.52243 -13815014.49442  21224561.728    21224559.231
  22483719.338    -2800470.17743  -2170930.97942  22483720.898    22483718.707
  21043873.984   -21988528.38744 -17092099.02142  21043876.199    21043873.252
  22663114.314    -9316924.62543  -7044208.48742  22663116.627    22663112.944
  20504162.402   -19267626.64744 -15004485.85542  20504165.013    20504161.256
  21237361.180   -20401166.98443 -15807916.64042  21237362.559    21237360.033
 04  1  9  0 39 30.0000000  0  7G24G10G 5G 6G21G30G17
  23856505.000     7712511.83043   6028858.62242  23856506.804    23856503.095
  21231792.543   -17893513.01443 -13785399.03242  21231794.063    21231791.571
  22502299.434    -2702830.66743  -2094848.26642  22502300.992    22502298.913
  21035006.218   -22035128.92544 -17128411.10642  21035008.369    21035005.403
  22650049.168    -9385582.58143  -7097708.13942  22650051.450    22650047.787
  20512303.437   -19224844.76444 -14971149.32842  20512306.068    20512302.316
  21246144.928   -20355008.18643 -15771948.74742  21246146.259    21246143.778
 04  1  9  0 40  0.0000000  0  7G24G10G 5G 6G21G30G17
  23872325.201     7795645.53343   6093638.12742  23872326.669    23872322.996
  21239136.001   -17854922.99043 -13755328.87942  21239137.460    21239135.016
  22520923.706    -2604959.22243  -2018584.82242  22520925.198    22520923.240
  21026176.054   -22081531.24144 -17164568.74342  21026178.233    21026175.283
  22637024.831    -9454025.47643  -7151040.23642  22637027.153    22637023.452
  20520547.679   -19181520.68344 -14937390.31142  20520550.327    20520546.598
  21254968.587   -20308640.00343 -15735817.70542  21254969.869    21254967.406
 04  1  9  0 40 30.0000000  0  7G24G10G 5G 6G21G30G17
  23888143.578     7878772.10643   6158412.07942  23888145.243    23888141.646
  21246592.134   -17815741.08343 -13724797.51842  21246593.538    21246591.042
  22539593.562    -2506848.28643  -1942134.77542  22539595.042    22539593.098
  21017385.821   -22127723.78543 -17200562.91642  21017388.006    21017385.097
  22624043.413    -9522243.21843  -7204196.88042  22624045.723    22624041.973
  20528896.862   -19137645.62144 -14903201.96642  20528899.445    20528895.791
  21263833.651   -20262053.73443 -15699516.72342  21263834.956    21263832.535
 04  1  9  0 41  0.0000000  0  7G24G10G 5G 6G21G30G17
  23903959.439     7961884.45343   6223174.94342  23903961.037    23903957.632
  21254159.361   -17775975.08643 -13693811.01542  21254160.819    21254158.265
  22558307.352    -2408506.63743  -1865504.94842  22558308.821    22558306.801
  21008634.721   -22173711.36644 -17236397.38342  21008636.844    21008633.986
  22611103.684    -9590241.87843  -7257182.83642  22611106.006    22611102.092
  20537349.420   -19093227.35644 -14868590.33642  20537351.996    20537348.364
  21272738.771   -20215256.80843 -15663051.58642  21272740.120    21272737.735
 04  1  9  0 41 30.0000000  0  7G24G10G 5G 6G21G30G17
  23919772.683     8044984.40043   6287928.13742  23919774.444    23919771.175
  21261837.918   -17735624.17043 -13662368.73742  21261839.373    21261836.818
  22577065.121    -2309934.21643  -1788695.28842  22577066.519    22577064.383
  20999923.310   -22219490.15144 -17272069.14942  20999925.443    20999922.559
  22598206.243    -9658018.38843  -7309995.67042  22598208.502    22598204.687
  20545905.466   -19048264.87644 -14833554.64542  20545908.047    20545904.502
  21281684.105   -20168248.17943 -15626421.48042  21281685.526    21281683.163
 04  1  9  0 42  0.0000000  0  7G24G10G 5G 6G21G30G17
  23935582.499     8128067.76643   6352668.42342  23935584.636    23935581.556
  21269626.824   -17694692.95043 -13630474.27642  21269628.311    21269625.829
  22595865.586    -2211136.67743  -1711710.22042  22595867.105    22595864.882
  20991251.404   -22265061.39344 -17307579.19542  20991253.558    20991250.603
  22585350.545    -9725575.50643  -7362637.54542  22585352.818    22585348.977
  20554564.266   -19002762.64444 -14798098.37342  20554566.851    20554563.277
  21290669.045   -20121032.19643 -15589629.79942  21290670.427    21290667.991
 04  1  9  0 42 30.0000000  0  7G24G10G 5G 6G21G30G17
  23951389.663     8211135.30743   6417396.36142  23951391.711    23951388.902
  21277526.148   -17653181.39243 -13598127.61142  21277527.645    21277525.298
  22614708.887    -2112114.95043  -1634550.46242  22614710.366    22614708.051
  20982619.570   -22310422.20544 -17342925.26842  20982621.722    20982618.687
  22572536.757    -9792911.59143  -7415107.18942  22572539.129    22572535.317
  20563325.779   -18956720.52544 -14762221.41042  20563328.368    20563324.778
  21299693.447   -20073608.43943 -15552676.21542  21299694.861    21299692.348
 04  1  9  0 43  0.0000000  0  7G24G10G 5G 6G21G30G17
  23967193.380     8294182.63943   6482108.54642  23967194.990    23967192.367
  21285534.930   -17611094.68843 -13565332.77842  21285536.405    21285534.160
  22633593.500    -2012875.02043  -1557220.68142  22633595.117    22633592.733
  20974027.335   -22355574.54744 -17378108.89342  20974029.509    20974026.427
  22559764.611    -9860030.01543  -7467407.22242  22559766.955    22559763.036
  20572189.068   -18910143.45544 -14725927.59542  20572191.678    20572188.083
  21308756.547   -20025981.74843 -15515564.50742  21308757.888    21308755.348
 04  1  9  0 43 30.0000000  0  7G24G10G 5G 6G21G30G17
  23982994.064     8377216.71143   6546810.41942  23982995.773    23982993.141
  21293654.424   -17568426.80743 -13532085.08242  21293655.854    21293653.584
  22652520.725    -1913411.53743  -1479716.70242  22652522.334    22652520.047
  20965476.584   -22400508.89944 -17413122.66142  20965478.754    20965475.675
  22547035.389    -9926922.60143  -7519531.28642  22547037.776    22547033.762
  20581155.421   -18863025.27244 -14689212.13542  20581158.012    20581154.385
  21317859.331   -19978145.65243 -15478289.62142  21317860.743    21317858.252
 04  1  9  0 44  0.0000000  0  7G24G10G 5G 6G21G30G17
  23998790.918     8460231.73543   6611497.44842  23998793.016    23998790.394
  21301883.315   -17525184.10843 -13498389.47042  21301884.740    21301882.335
  22671488.977    -1813731.80543  -1402044.21442  22671490.635    22671488.528
  20956966.628   -22445228.67444 -17447969.22042  20956968.811    20956965.765
  22534348.159    -9993593.82643  -7571482.85942  22534350.617    22534346.684
  20590223.570   -18815372.18044 -14652079.86942  20590226.182    20590222.530
  21327000.975   -19930106.01643 -15440856.14242  21327002.367    21326999.856
 04  1  9  0 44 30.0000000  0  7G24G10G 5G 6G21G30G17
  24014584.088     8543225.15743   6676167.63842  24014586.186    24014583.416
  21310220.852   -17481370.52843 -13464249.01042  21310222.301    21310219.666
  22690497.663    -1713840.57843  -1324206.92342  22690499.270    22690497.279
  20948497.466   -22489734.56244 -17482649.12042  20948499.624    20948496.532
  22521702.845   -10060045.53843  -7623263.39342  22521705.212    22521701.342
  20599392.696   -18767187.91044 -14614533.69642  20599395.366    20599391.736
  21336180.763   -19881866.39943 -15403266.83142  21336182.084    21336179.577
 04  1  9  0 45  0.0000000  0  7G24G10G 5G 6G21G30G17
  24030372.793     8626195.32443   6740819.70342  24030374.660    24030372.090
  21318666.490   -17436988.41943 -13429665.54842  21318667.984    21318665.255
  22709545.981    -1613740.90743  -1246207.21342  22709547.530    22709545.704
  20940069.188   -22534025.45844 -17517161.50142  20940071.370    20940068.247
  22509099.164   -10126278.13643  -7674873.16742  22509101.474    22509097.685
  20608662.447   -18718474.56244 -14576575.24842  20608665.115    20608661.642
  21345398.164   -19833428.52243 -15365523.02242  21345399.471    21345397.018
 04  1  9  0 45 30.0000000  0  7G24G10G 5G 6G21G30G17
  24046157.729     8709145.73043   6805456.38842  24046159.517    24046156.944
  21327220.739   -17392035.08643 -13394636.98042  21327222.296    21327219.547
  22728634.481    -1513430.93843  -1168043.64142  22728635.873    22728634.175
  20931682.893   -22578095.75044 -17551501.97742  20931685.096    20931681.930
  22496537.997   -10192287.12343  -7726308.69842  22496540.332    22496536.539
  20618033.428   -18669229.48944 -14538202.47042  20618036.040    20618032.679
  21354653.832   -19784789.36743 -15327622.38042  21354655.220    21354652.741
 04  1  9  0 46  0.0000000  0  7G24G10G 5G 6G21G30G17
  24061938.207     8792072.63343   6870074.76742  24061939.824    24061937.336
  21335882.891   -17346515.30343 -13359167.01942  21335884.402    21335881.645
  22747762.024    -1412916.19743  -1089720.50042  22747763.319    22747761.590
  20923338.450   -22621946.54344 -17585671.42342  20923340.614    20923337.382
  22484018.972   -10258075.32643  -7777572.20342  22484021.202    22484017.325
  20627504.825   -18619457.00244 -14499418.72442  20627507.410    20627504.031
  21363947.087   -19735953.13443 -15289568.17242  21363948.528    21363945.940
 04  1  9  0 46 30.0000000  0  7G24G10G 5G 6G21G30G17
  24077714.518     8874976.84043   6934675.47142  24077715.819    24077713.468
  21344652.735   -17300429.61443 -13323256.08442  21344654.225    21344651.535
  22766928.246    -1312197.74043  -1011238.62442  22766929.619    22766927.813
  20915036.242   -22665574.85544 -17619667.50042  20915038.459    20915035.163
  22471542.199   -10323641.12043  -7828662.40242  22471544.380    22471540.526
  20637076.494   -18569157.52444 -14460224.33642  20637079.047    20637075.663
  21373277.894   -19686919.61543 -15251360.23142  21373279.382    21373276.657
 04  1  9  0 47  0.0000000  0  7G24G10G 5G 6G21G30G17
  24093485.904     8957857.51043   6999257.82542  24093487.517    24093485.114
  21353529.840   -17253779.67143 -13286905.48042  21353531.347    21353528.818
  22786132.672    -1211278.07843   -932599.96942  22786134.207    22786132.302
  20906776.758   -22708978.89844 -17653488.82242  20906778.944    20906775.640
  22459107.776   -10388983.89743  -7879578.82042  22459109.952    22459106.191
  20646748.149   -18518332.49744 -14420620.42842  20646750.712    20646747.319
  21382645.883   -19637689.82543 -15212999.34742  21382647.474    21382644.744
 04  1  9  0 47 30.0000000  0  7G24G10G 5G 6G21G30G17
  24109252.896     9040714.85943   7063822.01642  24109254.681    24109252.189
  21362514.214   -17206566.33043 -13250115.86542  21362515.709    21362513.281
  22805375.266    -1110158.81243   -853805.77142  22805376.857    22805374.746
  20898560.365   -22752156.24944 -17687133.50542  20898562.539    20898559.278
  22446716.098   -10454102.39743  -7930320.47142  22446718.252    22446714.529
  20656519.749   -18466982.54444 -14380607.48142  20656522.300    20656518.841
  21392051.400   -19588263.96543 -15174485.68942  21392052.919    21392050.159
 04  1  9  0 48  0.0000000  0  7G24G10G 5G 6G21G30G17
  24125014.457     9123543.27443   7128363.62142  24125016.326    24125013.918
  21371604.548   -17158796.15243 -13212892.34442  21371606.041    21371603.658
  22824654.284    -1008847.15343   -774861.65242  22824656.028    22824653.737
  20890386.539   -22795110.23244 -17720604.13242  20890388.659    20890385.438
  22434366.268   -10519001.18743  -7980890.91542  22434368.404    22434364.643
  20666390.001   -18415114.30244 -14340190.67842  20666392.535    20666389.044
  21401492.954   -19538648.59743 -15135824.36242  21401494.450    21401491.725
 04  1  9  0 48 30.0000000  0  7G24G10G 5G 6G21G30G17
  24140771.791     9206348.11843   7192886.87742  24140773.604    24140771.036
  21380801.596   -17110465.01043 -13175231.70842  21380803.133    21380800.770
  22843970.529     -907339.61843   -695764.89042  22843972.312    22843969.925
  20882256.533   -22837833.30544 -17753894.82842  20882258.730    20882255.516
  22422059.138   -10583674.69943  -8031285.84242  22422061.300    22422057.579
  20676359.710   -18362723.48644 -14299366.67642  20676362.236    20676358.691
  21410971.496   -19488838.42343 -15097011.24642  21410972.978    21410970.361
 04  1  9  0 49  0.0000000  0  7G24G10G 5G 6G21G30G17
  24156523.477     9289123.53843   7257387.20442  24156525.336    24156522.698
  21390104.115   -17061580.29243 -13137139.72342  21390105.598    21390103.176
  22863322.586     -805644.22143   -616521.77442  22863324.228    22863321.874
  20874169.896   -22880328.99944 -17787008.34442  20874172.065    20874168.841
  22409794.083   -10648127.47543  -8081508.74642  22409796.184    22409792.585
  20686427.563   -18309817.01344 -14258140.86842  20686430.101    20686426.469
  21420485.762   -19438840.06843 -15058051.49142  21420487.264    21420484.760
 04  1  9  0 49 30.0000000  0  7G24G10G 5G 6G21G30G17
  24172269.379     9371869.13543   7321864.28642  24172271.444    24172268.586
  21399511.657   -17012143.37743 -13098617.44142  21399513.162    21399510.643
  22882709.956     -703762.71943   -537133.61742  22882711.599    22882709.093
  20866126.844   -22922595.38544 -17819943.17842  20866129.007    20866125.831
  22397571.197   -10712359.19043  -8131559.38642  22397573.254    22397569.702
  20696593.282   -18256396.21644 -14216514.28142  20696595.848    20696592.129
  21430035.961   -19388654.27043 -15018945.67442  21430037.344    21430034.797
 04  1  9  0 50  0.0000000  0  8G24G10G 5G 6G21G30G17G18
  24188005.973     9454566.52943   7386303.81542  24188008.361    24188005.346
  21409020.648   -16962173.65243 -13059679.98242  21409022.116    21409019.527
  22902128.809     -601715.66643   -457616.47042  22902130.475    22902127.883
  20858124.424   -22964648.46944 -17852711.80642  20858126.597    20858123.428
  22385387.045   -10776387.01143  -8181451.16942  22385389.109    22385385.622
  20706853.033   -18202480.37344 -14174501.94442  20706855.657    20706851.993
  21439618.035   -19338299.74643 -14979708.37942  21439619.519    21439616.982
  24782599.526    -1754213.40653  -1107171.12952  24782602.224    24782598.782
 04  1  9  0 50 30.0000000  0  8G24G10G 5G 6G21G30G17G18
  24203740.973     9537253.77943   7450735.43542  24203743.286    24203740.252
  21418637.904   -16911634.48843 -13020298.80242  21418639.423    21418636.792
  22921586.094     -499466.75743   -377942.04042  22921587.750    22921585.104
  20850170.278   -23006447.98244 -17885282.83342  20850172.458    20850169.305
  22373249.141   -10840171.74943  -8231153.51442  22373251.206    22373247.722
  20717214.086   -18148032.64444 -14132075.14642  20717216.648    20717213.115
  21449239.404   -19287739.18343 -14940310.53242  21449240.895    21449238.331
  24761465.458    -1865272.54043  -1193710.65242  24761468.211    24761464.613
 04  1  9  0 51  0.0000000  0  8G24G10G 5G 6G21G30G17G18
  24219470.098     9619909.96343   7515142.84442  24219472.193    24219469.152
  21428359.364   -16860547.96343 -12980491.10942  21428360.880    21428358.209
  22941077.769     -397037.99243   -298127.45542  22941079.341    22941076.537
  20842260.784   -23048012.31344 -17917670.61442  20842263.004    20842259.895
  22361153.674   -10903733.91343  -8280682.43242  22361155.655    22361152.173
  20727672.083   -18093074.92044 -14089250.95042  20727674.692    20727671.232
  21458895.964   -19236993.78843 -14900768.65642  21458897.465    21458894.815
  24740335.901    -1976309.81843  -1280233.14642  24740338.632    24740334.995
 04  1  9  0 51 30.0000000  0  8G24G10G 5G 6G21G30G17G18
  24235192.938     9702533.88243   7579525.09142  24235194.921    24235191.988
  21438184.421   -16808916.46543 -12940258.76542  21438186.008    21438183.329
  22960602.951     -294433.30243   -218175.78942  22960604.521    22960601.572
  20834396.253   -23089340.54944 -17949874.41742  20834398.422    20834395.372
  22349100.447   -10967073.70643  -8330038.09342  22349102.452    22349098.983
  20738226.817   -18037609.58544 -14046031.22042  20738229.407    20738225.948
  21468587.299   -19186065.29943 -14861084.11242  21468588.842    21468586.144
  24719210.486    -2087323.29343  -1366737.04942  24719213.093    24719210.059
 04  1  9  0 52  0.0000000  0  8G24G10G 5G 6G21G30G17G18
  24250910.039     9785126.94743   7643883.34442  24250911.625    24250908.995
  21448113.338   -16756739.56843 -12899601.43442  21448114.881    21448112.222
  22980161.743     -191652.54843   -138086.92742  22980163.303    22980160.158
  20826577.411   -23130428.78744 -17981891.21042  20826579.553    20826576.515
  22337089.996   -11030188.62443  -8379218.52242  22337091.997    22337088.590
  20748878.279   -17981636.19944 -14002415.59642  20748880.844    20748877.311
  21478313.789   -19134952.51943 -14821255.96842  21478315.306    21478312.578
  24698090.650    -2198308.13643  -1453218.65642  24698093.150    24698090.207
 04  1  9  0 52 30.0000000  0  8G24G10G 5G 6G21G30G17G18
  24266620.473     9867687.64043   7708216.35142  24266622.239    24266619.664
  21458145.419   -16704020.41443 -12858521.56142  21458146.963    21458144.285
  22999753.272      -88699.19343    -57863.56742  22999754.994    22999751.661
  20818804.432   -23171276.11244 -18013720.28542  20818806.570    20818803.485
  22325122.264   -11093079.33343  -8428224.23342  22325124.290    22325120.776
  20759625.885   -17925157.29944 -13958406.07542  20759628.424    20759624.842
  21488074.830   -19083657.43143 -14781285.76442  21488076.383    21488073.784
  24676976.371    -2309262.81743  -1539676.76142  24676978.818    24676976.009
 04  1  9  0 53  0.0000000  0  8G24G10G 5G 6G21G30G17G18
  24282324.254     9950211.24343   7772520.47342  24282325.990    24282323.315
  21468279.550   -16650765.43143 -12817024.15842  21468281.056    21468278.322
  23019376.151       14419.97643     22488.99542  23019378.058    23019374.757
  20811076.752   -23211885.19044 -18045363.70842  20811078.909    20811075.818
  22313196.457   -11155750.08743  -8477058.55342  22313198.502    22313194.913
  20770468.459   -17868179.17044 -13914007.53742  20770471.018    20770467.452
  21497869.666   -19032185.49543 -14741177.76142  21497871.101    21497868.640
  24655867.688    -2420189.27143  -1626112.88042  24655869.924    24655867.121
 04  1  9  0 53 30.0000000  0  8G24G10G 5G 6G21G30G17G18
  24298021.913    10032701.36443   7836798.51942  24298023.542    24298020.704
  21478516.009   -16596972.59543 -12775107.64842  21478517.522    21478514.747
  23039030.642      117706.04543    102971.61342  23039032.714    23039029.692
  20803395.456   -23252250.37244 -18076817.08542  20803397.647    20803394.592
  22301313.412   -11218196.23643  -8525717.86842  22301315.490    22301311.822
  20781406.450   -17810699.54644 -13869218.22642  20781409.050    20781405.473
  21507698.602   -18980534.08943 -14700929.90942  21507700.029    21507697.528
  24634765.452    -2531081.19143  -1712522.07742  24634767.677    24634764.463
 04  1  9  0 54  0.0000000  0  8G24G10G 5G 6G21G30G17G18
  24313711.979    10115153.90543   7901047.27242  24313713.873    24313711.084
  21488853.814   -16542647.26343 -12732776.20542  21488855.335    21488852.504
  23058716.070      221153.33943    183579.85342  23058718.018    23058715.370
  20795760.288   -23292373.40444 -18108081.77742  20795762.448    20795759.438
  22289472.199   -11280421.42743  -8574204.99742  22289474.369    22289470.755
  20792438.945   -17752723.79744 -13824042.32642  20792441.586    20792437.945
  21517560.876   -18928707.57143 -14660545.61242  21517562.267    21517559.777
  24613669.790    -2641939.39443  -1798904.99642  24613672.158    24613668.599
 04  1  9  0 54 30.0000000  0  8G24G10G 5G 6G21G30G17G18
  24329396.091    10197575.30143   7965271.75042  24329398.122    24329395.548
  21499293.893   -16487784.41443 -12690025.92842  21499295.400    21499292.575
  23078433.212      324767.03143    264317.76842  23078435.009    23078432.700
  20788172.892   -23332245.44544 -18139150.89142  20788175.041    20788172.040
  22277674.604   -11342418.28143  -8622514.22542  22277676.767    22277673.114
  20803566.826   -17694246.59044 -13778475.67642  20803569.538    20803565.790
  21527457.580   -18876699.93343 -14620020.17342  21527458.962    21527456.519
  24592582.498    -2752754.08043  -1885254.01342  24592584.876    24592580.999
 04  1  9  0 55  0.0000000  0  8G24G10G 5G 6G21G30G17G18
  24345072.705    10279956.87343   8029465.18342  24345074.837    24345072.338
  21509834.415   -16432393.78143 -12646864.37942  21509835.922    21509833.048
  23098179.856      428536.38243    345176.95442  23098181.599    23098179.597
  20780632.128   -23371872.75544 -18170029.30242  20780634.218    20780631.200
  22265919.105   -11404194.16843  -8670651.23942  22265921.230    22265917.487
  20814788.232   -17635277.64844 -13732525.85542  20814790.929    20814787.251
  21537387.079   -18824520.03243 -14579360.50442  21537388.458    21537386.041
  24571502.477    -2863530.47743  -1971573.18142  24571504.834    24571500.841
 04  1  9  0 55 30.0000000  0  8G24G10G 5G 6G21G30G17G18
  24360741.831    10362301.47443   8093629.82442  24360744.348    24360742.113
  21520475.426   -16376474.36743 -12603290.79642  21520477.024    21520474.189
  23117956.220      532461.95743    426157.87942  23117957.934    23117956.119
  20773138.718   -23411250.63044 -18200713.34642  20773140.863    20773137.800
  22254205.998   -11465746.30543  -8718613.92342  22254208.143    22254204.370
  20826103.322   -17575815.93144 -13686192.05442  20826106.006    20826102.472
  21547349.760   -18772166.16743 -14538565.27942  21547351.094    21547348.665
  24550430.659    -2974263.51143  -2057858.58142  24550432.897    24550428.938
 04  1  9  0 56  0.0000000  0  8G24G10G 5G 6G21G30G17G18
  24376404.441    10444608.14043   8157764.90642  24376406.657    24376404.910
  21531216.670   -16320028.61443 -12559307.08542  21531218.199    21531215.460
  23137761.840      636541.06143    507258.44042  23137763.558    23137761.759
  20765693.066   -23450377.66744 -18231201.93742  20765695.224    20765692.094
  22242535.606   -11527074.41343  -8766402.02742  22242537.690    22242534.043
  20837511.950   -17515863.46744 -13639475.85842  20837514.578    20837511.024
  21557345.240   -18719639.48543 -14497635.39042  21557346.652    21557344.114
  24529367.462    -3084950.55643  -2144108.12742  24529369.779    24529365.884
 04  1  9  0 56 30.0000000  0  8G24G10G 5G 6G21G30G17G18
  24392059.608    10526873.71043   8221867.95642  24392061.216    24392059.664
  21542057.069   -16263061.22843 -12514916.90542  21542058.653    21542055.985
  23157595.656      740768.55243    588474.62142  23157597.390    23157595.623
  20758294.952   -23489254.59444 -18261495.63642  20758297.149    20758294.001
  22230907.337   -11588180.88243  -8814017.42242  22230909.386    22230905.950
  20849013.131   -17455424.78644 -13592380.79742  20849015.731    20849012.104
  21567372.981   -18666943.51643 -14456573.59142  21567374.380    21567371.813
  24508312.951    -3195591.88143  -2230322.03742  24508315.221    24508311.575
 04  1  9  0 57  0.0000000  0  8G24G10G 5G 6G21G30G17G18
  24407707.292    10609101.05143   8285941.19442  24407708.634    24407707.145
  21552997.047   -16205570.86643 -12470119.21242  21552998.599    21552995.965
  23177457.706      845145.38543    669807.18442  23177459.638    23177457.818
  20750945.412   -23527876.49244 -18291590.61342  20750947.564    20750944.471
  22219321.935   -11649062.34343  -8861457.49142  22219323.944    22219320.557
  20860606.964   -17394498.67344 -13544905.91442  20860609.614    20860605.949
  21577433.276   -18614076.07243 -14415378.17042  21577434.783    21577432.182
  24487268.029    -3306181.66743  -2316495.75442  24487270.370    24487267.270
 04  1  9  0 57 30.0000000  0  8G24G10G 5G 6G21G30G17G18
  24423346.779    10691285.68243   8349981.20042  24423347.950    24423346.549
  21564035.458   -16147563.68643 -12424918.80742  21564036.940    21564034.339
  23197347.128      949665.23243    751251.17842  23197349.013    23197347.205
  20743643.988   -23566245.62444 -18321488.62142  20743646.096    20743643.104
  22207778.745   -11709722.55643  -8908725.15942  22207780.734    22207777.223
  20872292.477   -17333090.92344 -13497055.72942  20872295.131    20872291.477
  21587525.280   -18561042.30043 -14374053.14442  21587526.825    21587524.191
  24466232.805    -3416721.38743  -2402630.51542  24466234.912    24466232.184
 04  1  9  0 58  0.0000000  0  8G24G10G 5G 6G21G30G17G18
  24438978.511    10773433.22543   8413992.32442  24438980.041    24438978.837
  21575172.978   -16089036.05143 -12379312.85942  21575174.386    21575171.789
  23217264.501     1054331.22343    832809.04442  23217266.186    23217264.441
  20736392.072   -23604354.47844 -18351183.82042  20736394.200    20736391.262
  22196278.655   -11770155.66043  -8955815.87742  22196280.663    22196277.082
  20884070.381   -17271197.72144 -13448827.27442  20884072.985    20884069.413
  21597649.815   -18507837.30443 -14332594.69842  21597651.419    21597648.799
  24445208.891    -3527202.61043  -2488719.69642  24445210.659    24445208.427
 04  1  9  0 58 30.0000000  0  8G24G10G 5G 6G21G30G17G18
  24454601.784    10855536.03643   8477968.56542  24454603.625    24454602.575
  21586407.807   -16029996.84343 -12333308.26442  21586409.238    21586406.539
  23237207.631     1159134.18043    914473.66342  23237209.377    23237207.765
  20729188.825   -23642208.05944 -18380680.10742  20729190.943    20729187.948
  22184820.626   -11830368.10943  -9002734.64442  22184822.631    22184818.997
  20895938.869   -17208827.77144 -13400227.31642  20895941.500    20895938.051
  21607805.565   -18454468.87043 -14291008.90542  21607807.099    21607804.406
  24424195.452    -3637629.32543  -2574766.38742  24424196.986    24424194.984
 04  1  9  0 59  0.0000000  0  8G24G10G 5G 6G21G30G17G18
  24470217.567    10937599.60343   8541914.23842  24470219.675    24470218.530
  21597740.568   -15970442.26443 -12286902.08442  21597742.115    21597739.391
  23257177.608     1264077.59743    996247.71642  23257179.209    23257177.820
  20722035.573   -23679798.68644 -18409971.49942  20722037.697    20722034.679
  22173405.801   -11890353.56243  -9049476.53542  22173407.837    22173404.024
  20907898.923   -17145977.04644 -13351252.73542  20907901.512    20907898.159
  21617993.172   -18400932.16243 -14249291.98442  21617994.733    21617992.049
  24403193.799    -3747993.38243  -2660764.24842  24403195.238    24403193.477
 04  1  9  0 59 30.0000000  0  8G24G10G 5G 6G21G30G17G18
  24485825.147    11019617.30743   8605824.13242  24485827.086    24485825.808
  21609169.905   -15910380.70443 -12240100.86242  21609171.401    21609168.644
  23277172.742     1369152.66043   1078124.34642  23277174.068    23277172.986
  20714931.479   -23717131.06044 -18439061.65242  20714933.607    20714930.505
  22162032.894   -11950118.28843  -9096046.40742  22162034.960    22162031.059
  20919948.931   -17082653.98444 -13301910.10242  20919951.468    20919948.174
  21628211.654   -18347234.34643 -14207449.52442  21628213.092    21628210.399
  24382203.389    -3858298.38143  -2746716.08942  24382204.872    24382203.154
 04  1  9  1  0  0.0000000  0  8G24G10G 5G 6G21G30G17G18
  24501424.439    11101590.36643   8669699.25142  24501426.071    24501424.586
  21620695.580   -15849812.51743 -12192904.87342  21620697.050    21620694.442
  23297192.938     1474359.12043   1160103.38942  23297194.205    23297193.097
  20707877.280   -23754201.27444 -18467947.51942  20707879.399    20707876.246
  22150702.526   -12009660.09643  -9142442.60042  22150704.582    22150700.556
  20932088.843   -17018858.53644 -13252199.38042  20932091.344    20932088.056
  21638460.836   -18293374.63143 -14165480.91042  21638462.284    21638459.557
  24361225.155    -3968539.78943  -2832618.41242  24361226.909    24361224.623
 04  1  9  1  0 30.0000000  0  8G24G10G 5G 6G21G30G17G18
  24517015.444    11183521.08743   8733541.36742  24517016.963    24517015.012
  21632317.836   -15788737.19143 -12145313.70542  21632319.276    21632316.791
  23317237.853     1579696.72043   1242184.60742  23317239.247    23317238.124
  20700873.693   -23791005.19544 -18496625.88542  20700875.810    20700872.685
  22139414.940   -12068976.20943  -9188662.91842  22139417.039    22139413.146
  20944318.715   -16954590.23544 -13202120.19542  20944321.218    20944317.954
  21648741.011   -18239351.43843 -14123384.91342  21648742.498    21648739.767
  24340259.916    -4078712.80843  -2918467.41242  24340261.986    24340259.206
 04  1  9  1  1  0.0000000  0  8G24G10G 5G 6G21G30G17G18
  24532597.353    11265405.43143   8797347.34342  24532599.156    24532596.911
  21644035.430   -15727160.89943 -12097332.17342  21644036.875    21644034.491
  23337306.838     1685159.32043   1324363.23242  23337308.258    23337307.001
  20693920.408   -23827544.82244 -18525098.30842  20693922.508    20693919.432
  22128169.740   -12128070.45943  -9234710.35742  22128171.817    22128167.970
  20956637.440   -16889854.96544 -13151677.13942  20956639.961    20956636.717
  21659051.585   -18185169.32543 -14081165.09342  21659052.911    21659050.259
  24319307.394    -4188818.43343  -3004263.87342  24319309.648    24319306.649
 04  1  9  1  1 30.0000000  0  8G24G10G 5G 6G21G30G17G18
  24548170.919    11347244.35043   8861117.95542  24548172.617    24548170.230
  21655848.280   -15665083.97643 -12048960.54442  21655849.709    21655847.474
  23357399.312     1790746.21343   1406638.70942  23357400.798    23357399.546
  20687018.076   -23863816.73944 -18553362.12142  20687020.189    20687017.149
  22116967.129   -12186940.86843  -9280583.36342  22116969.250    22116965.340
  20969044.966   -16824653.14944 -13100870.54242  20969047.493    20969044.257
  21669392.375   -18130827.98043 -14038821.18242  21669393.695    21669391.145
  24298368.333    -4298852.86543  -3090004.90542  24298370.741    24298367.656
 04  1  9  1  2  0.0000000  0  8G24G10G 5G 6G21G30G17G18
  24563735.508    11429039.22343   8924854.19942  24563737.623    24563735.300
  21667756.289   -15602507.28343 -12000199.47942  21667757.680    21667755.509
  23377515.143     1896456.64743   1489010.45042  23377516.726    23377515.613
  20680167.315   -23899817.70444 -18581414.81242  20680169.445    20680166.420
  22105807.332   -12245585.84643  -9326280.71642  22105809.492    22105805.558
  20981541.192   -16758985.22544 -13049700.74542  20981543.746    20981540.484
  21679763.708   -18076326.66143 -13996352.62342  21679764.999    21679762.497
  24277443.761    -4408811.58143  -3175686.94842  24277446.285    24277443.004
 04  1  9  1  2 30.0000000  0  8G24G10G 5G 6G21G30G17G18
  24579291.785    11510787.19643   8988553.95342  24579293.750    24579291.435
  21679758.502   -15539435.28443 -11951052.45142  21679759.943    21679757.740
  23397653.565     2002285.69543   1571474.62042  23397655.252    23397654.446
  20673368.061   -23935548.12644 -18609256.68442  20673370.146    20673367.159
  22094690.007   -12304007.44543  -9371804.00442  22094692.203    22094688.298
  20994125.305   -16692855.68944 -12998171.25342  20994127.788    20994124.569
  21690164.816   -18021668.51243 -13953761.86642  21690166.082    21690163.628
  24256533.633    -4518693.99743  -3261309.51742  24256536.287    24256532.933
 04  1  9  1  3  0.0000000  0  8G24G10G 5G 6G21G30G17G18
  24594838.810    11592484.61643   9052214.29442  24594840.365    24594837.942
  21691853.928   -15475873.35343 -11901523.66442  21691855.406    21691853.145
  23417813.817     2108227.94143   1654026.98342  23417815.344    23417814.701
  20666619.938   -23971009.43844 -18636888.86542  20666622.026    20666619.043
  22083614.671   -12362208.60243  -9417155.51842  22083616.912    22083612.984
  21006796.167   -16626269.73744 -12946286.10642  21006798.693    21006795.432
  21700594.902   -17966857.65143 -13911052.10242  21700596.172    21700593.824
  24235637.804    -4628501.23643  -3346873.54042  24235640.430    24235637.377
 04  1  9  1  3 30.0000000  0  8G24G10G 5G 6G21G30G17G18
  24610376.774    11674135.78843   9115838.59542  24610377.968    24610375.765
  21704042.968   -15411819.38643 -11851611.47142  21704044.470    21704042.193
  23437995.918     2214285.06343   1736668.86242  23437997.472    23437996.787
  20659924.205   -24006195.37344 -18664306.46042  20659926.308    20659923.320
  22072582.104   -12420184.80343  -9462331.75342  22072584.403    22072580.485
  21019554.386   -16559224.84544 -12894043.34642  21019556.927    21019553.600
  21711054.631   -17911890.73243 -13868220.73842  21711055.886    21711053.747
  24214757.891    -4738226.09943  -3432373.37742  24214760.435    24214757.604
 04  1  9  1  4  0.0000000  0  8G24G10G 5G 6G21G30G17G18
  24625905.082    11755738.99943   9179425.55442  24625906.416    24625904.562
  21716324.937   -15347276.37543 -11801318.20342  21716326.519    21716324.230
  23458199.218     2320454.14843   1819397.98142  23458200.884    23458200.145
  20653281.084   -24041105.23244 -18691508.93442  20653283.167    20653280.149
  22061592.359   -12477936.43643  -9507332.99942  22061594.568    22061590.746
  21032399.325   -16491724.31244 -12841445.54342  21032401.873    21032398.494
  21721543.862   -17856769.56643 -13825269.17142  21721545.066    21721542.951
  24193893.913    -4847867.12543  -3517807.89442  24193896.454    24193893.779
 04  1  9  1  4 30.0000000  0  8G24G10G 5G 6G21G30G17G18
  24641423.834    11837289.78443   9242971.65742  24641424.741    24641423.596
  21728698.758   -15282251.08843 -11750649.13842  21728700.295    21728698.050
  23478422.524     2426727.99743   1902208.72942  23478424.110    23478423.330
  20646689.953   -24075741.63244 -18718498.32042  20646692.027    20646689.051
  22050644.434   -12535468.09043  -9552162.82642  22050646.646    22050642.850
  21045329.744   -16423774.51944 -12788497.66742  21045332.337    21045328.873
  21732061.379   -17801499.37943 -13782201.48642  21732062.647    21732060.489
  24173045.713    -4957426.10643  -3603178.45542  24173048.217    24173045.562
 04  1  9  1  5  0.0000000  0  8G24G10G 5G 6G21G30G17G18
  24656933.277    11918795.17543   9306482.40542  24656934.544    24656933.505
  21741165.463   -15216738.41443 -11699600.30542  21741166.861    21741164.654
  23498666.684     2533111.77443   1985105.14742  23498668.256    23498667.443
  20640152.601   -24110095.38544 -18745267.46642  20640154.664    20640151.790
  22039739.829   -12592771.87943  -9596815.09642  22039742.036    22039738.355
  21058346.719   -16355370.14844 -12735195.57342  21058349.317    21058345.858
  21742608.468   -17746073.85143 -13739012.75842  21742609.752    21742607.519
  24152215.035    -5066892.83343  -3688477.16642  24152217.556    24152214.867
 04  1  9  1  5 30.0000000  0  8G24G10G 5G 6G21G30G17G18
  24672433.836    12000251.61543   9369954.93542  24672435.185    24672434.049
  21753723.799   -15150743.95143 -11648176.03642  21753725.191    21753722.964
  23518930.564     2639599.38443   2068082.47742  23518932.231    23518931.421
  20633668.817   -24144168.05344 -18771817.58142  20633670.842    20633667.990
  22028877.963   -12649851.40543  -9641292.61642  22028880.141    22028876.454
  21071449.105   -16286516.77744 -12681543.60842  21071451.734    21071448.264
  21753184.408   -17690497.01543 -13695706.13142  21753185.632    21753183.412
  24131401.489    -5176268.50443  -3773704.91042  24131404.217    24131401.537
 04  1  9  1  6  0.0000000  0  8G24G10G 5G 6G21G30G17G18
  24687924.107    12081652.39443   9433384.15242  24687925.016    24687923.821
  21766372.069   -15084276.45543 -11596383.17742  21766373.516    21766371.345
  23539212.827     2746182.49343   2151134.22342  23539214.535    23539213.554
  20627237.610   -24177964.16844 -18798152.20142  20627239.710    20627236.785
  22018057.607   -12706712.60743  -9685600.01142  22018059.732    22018056.082
  21084635.210   -16217223.09144 -12627548.54142  21084637.854    21084634.450
  21763787.755   -17634776.34243 -13652287.41642  21763788.976    21763786.672
  24110604.685    -5285556.71543  -3858864.47842  24110607.376    24110604.775
 04  1  9  1  6 30.0000000  0  8G24G10G 5G 6G21G30G17G18
  24703404.854    12163005.36243   9496776.02942  24703406.300    24703404.458
  21779111.683   -15017329.81943 -11544216.95942  21779113.080    21779110.799
  23559514.605     2852867.04643   2234265.01142  23559516.221    23559514.994
  20620861.015   -24211473.61244 -18824263.44842  20620863.142    20620860.109
  22007280.388   -12763347.08843  -9729730.74442  22007282.464    22007278.839
  21097906.320   -16147482.87844 -12573205.52942  21097908.947    21097905.574
  21774419.783   -17578904.31943 -13608750.76942  21774421.068    21774418.785
  24089826.384    -5394746.40443  -3943947.29142  24089829.075    24089826.556
 04  1  9  1  7  0.0000000  0  8G24G10G 5G 6G21G30G17G18
  24718875.587    12244305.65543   9560126.87442  24718877.512    24718875.524
  21791941.139   -14949911.16143 -11491682.93142  21791942.487    21791940.103
  23579834.120     2959645.80643   2317469.20742  23579835.889    23579834.377
  20614538.373   -24244699.45444 -18850153.70542  20614540.514    20614537.402
  21996545.426   -12819759.65043  -9773688.54842  21996547.402    21996543.869
  21111261.099   -16077303.03344 -12518519.95242  21111263.722    21111260.333
  21785079.620   -17522886.87043 -13565100.80342  21785080.850    21785078.544
  24069066.463    -5503839.92443  -4028955.15342  24069069.249    24069066.558
 04  1  9  1  7 30.0000000  0  8G24G10G 5G 6G21G30G17G18
  24734336.593    12325551.27043   9623435.11542  24734338.274    24734335.964
  21804859.579   -14882024.42343 -11438784.16542  21804861.013    21804858.453
  23600170.528     3066514.55943   2400743.53542  23600172.535    23600170.941
  20608269.686   -24277641.53544 -18875822.84742  20608271.841    20608268.711
  21985852.342   -12875951.40743  -9817474.29142  21985854.309    21985850.924
  21124698.862   -16006687.31744 -12463494.73542  21124701.509    21124698.049
  21795766.666   -17466726.17043 -13521339.21242  21795767.909    21795765.552
  24048325.001    -5612836.44543  -4113887.41742  24048327.712    24048325.025
 04  1  9  1  8  0.0000000  0  8G24G10G 5G 6G21G30G17G18
  24749787.586    12406749.14843   9686706.21642  24749789.740    24749787.347
  21817867.947   -14813664.68743 -11385516.82542  21817869.432    21817866.737
  23620525.077     3173478.38143   2484091.94142  23620527.166    23620525.494
  20602056.750   -24310290.73044 -18901263.76542  20602058.908    20602055.774
  21975202.704   -12931914.90743  -9861082.17142  21975204.598    21975201.357
  21138220.521   -15935630.73944 -12408125.99042  21138223.183    21138219.693
  21806482.029   -17410415.74543 -13477460.95542  21806483.337    21806481.071
  24027603.886    -5721725.81643  -4198736.18042  24027606.471    24027603.832
 04  1  9  1  8 30.0000000  0  8G24G10G 5G 6G21G30G17G18
  24765227.647    12487890.26543   9749933.12642  24765229.975    24765228.413
  21830964.203   -14744842.93043 -11331889.47542  21830965.707    21830962.986
  23640895.542     3280526.11943   2567505.74542  23640897.671    23640896.047
  20595898.310   -24342654.00244 -18926481.89342  20595900.433    20595897.233
  21964594.984   -12987658.93543  -9904519.03042  21964596.778    21964593.596
  21151823.918   -15864144.31144 -12352422.29442  21151826.612    21151823.080
  21817224.110   -17353965.59243 -13433473.81442  21817225.408    21817223.185
  24006902.342    -5830513.88843  -4283506.02842  24006904.681    24006901.945
 04  1  9  1  9  0.0000000  0  8G24G10G 5G 6G21G30G17G18
  24780658.415    12568978.12943   9813118.53242  24780660.758    24780659.192
  21844148.731   -14675558.18443 -11277901.34742  21844150.151    21844147.303
  23661282.324     3387658.68543   2650985.62542  23661284.426    23661282.741
  20589795.251   -24374726.08544 -18951473.11442  20589797.383    20589794.085
  21954029.684   -13043179.97643  -9947782.14442  21954031.470    21954028.175
  21165509.293   -15792226.77144 -12296382.66542  21165512.057    21165508.503
  21827993.407   -17297372.68143 -13389375.44042  21827994.645    21827992.493
  23986220.881    -5939195.23443  -4368192.70042  23986223.259    23986220.584
 04  1  9  1  9 30.0000000  0  7G10G 5G 6G21G30G17G18
  21857422.100   -14605805.82943 -11223548.84142  21857423.630    21857420.670
  23681686.067     3494880.65243   2734535.17642  23681688.080    23681686.389
  20583749.186   -24406498.40044 -18976230.74942  20583751.377    20583748.002
  21943508.148   -13098470.94743  -9990865.98842  21943509.998    21943506.585
  21179277.767   -15719873.30744 -12240003.35842  21179280.458    21179276.899
  21838791.021   -17240631.27643 -13345161.35642  21838792.185    21838790.036
  23965561.553    -6047760.38443  -4452788.82042  23965563.854    23965561.300
 04  1  9  1 10  0.0000000  0  7G10G 5G 6G21G30G17G18
  21870781.545   -14535602.02443 -11168844.57142  21870782.968    21870779.913
  23702103.683     3602175.97843   2818141.89542  23702105.690    23702103.957
  20577757.977   -24437982.60944 -19000763.89142  20577760.137    20577756.685
  21933027.805   -13153544.96043 -10033780.76442  21933029.720    21933026.336
  21193126.050   -15647100.08044 -12183296.96042  21193128.705    21193125.109
  21849614.010   -17183755.63343 -13300842.66842  21849615.239    21849613.049
  23944922.219    -6156220.22343  -4537302.90942  23944924.595    23944921.943
 04  1  9  1 10 30.0000000  0  7G10G 5G 6G21G30G17G18
  21884227.164   -14464944.97643 -11113787.12342  21884228.553    21884225.483
  23722535.624     3709546.43043   2901807.15742  23722537.639    23722535.887
  20571822.583   -24469172.90144 -19025067.99842  20571824.773    20571821.312
  21922589.574   -13208398.09043 -10076523.43242  21922591.446    21922588.016
  21207054.590   -15573905.04044 -12126261.88142  21207057.209    21207053.629
  21860463.096   -17126742.70643 -13256417.00142  21860464.407    21860462.221
  23924304.123    -6264567.97343  -4621729.65542  23924306.481    23924303.955
 04  1  9  1 11  0.0000000  0  7G10G 5G 6G21G30G17G18
  21897759.255   -14393833.51243 -11058375.58142  21897760.678    21897757.577
  23742982.028     3816993.32543   2985531.97942  23742984.028    23742982.354
  20565944.199   -24500064.04044 -19049139.01042  20565946.345    20565942.883
  21912194.093   -13263026.58043 -10119091.04942  21912195.930    21912192.489
  21221063.632   -15500287.21644 -12068897.36442  21221066.242    21221062.619
  21871339.018   -17069589.58343 -13211882.09542  21871340.289    21871338.009
  23903708.462    -6372797.65543  -4706064.39342  23903710.799    23903708.388
 04  1  9  1 11 30.0000000  0  7G10G 5G 6G21G30G17G18
  21911376.436   -14322275.03443 -11002615.71742  21911377.848    21911374.806
  23763441.552     3924508.94743   3069310.36642  23763443.435    23763441.947
  20560122.148   -24530659.26744 -19072979.43742  20560124.290    20560120.774
  21901840.386   -13317435.44043 -10161487.53542  21901842.282    21901838.759
  21235151.728   -15426253.83844 -12011209.03642  21235154.404    21235150.691
  21882240.302   -17012302.31443 -13167242.65242  21882241.637    21882239.365
  23883135.256    -6480911.81943  -4790309.12542  23883137.347    23883134.769
 04  1  9  1 12  0.0000000  0  7G10G 5G 6G21G30G17G18
  21925078.944   -14250267.60543 -10946506.03642  21925080.446    21925077.531
  23783914.459     4032095.64943   3153144.12442  23783916.317    23783915.083
  20554357.623   -24560952.04844 -19096584.19342  20554359.790    20554356.243
  21891529.429   -13371619.96743 -10203709.22642  21891531.334    21891527.795
  21249319.371   -15351802.60344 -11953195.10642  21249322.046    21249318.276
  21893168.065   -16954876.80343 -13122495.49642  21893169.339    21893167.117
  23862585.115    -6588903.10543  -4874458.13842  23862587.316    23862584.552
 04  1  9  1 12 30.0000000  0  7G10G 5G 6G21G30G17G18
  21938865.842   -14177816.65443 -10890050.74442  21938867.364    21938864.599
  23804400.251     4139748.16443   3237029.16842  23804401.847    23804400.662
  20548650.372   -24590943.73944 -19119954.33242  20548652.570    20548649.008
  21881260.521   -13425583.00243 -10245758.30142  21881262.484    21881258.932
  21263565.463   -15276938.82044 -11894859.70642  21263568.138    21263564.370
  21904121.235   -16897317.25543 -13077643.88742  21904122.554    21904120.345
  23842058.332    -6696772.16243  -4958511.87842  23842060.488    23842057.772
 04  1  9  1 13  0.0000000  0  7G10G 5G 6G21G30G17G18
  21952736.667   -14104924.75943 -10833251.85742  21952738.186    21952735.476
  23824898.017     4247463.63143   3320963.27442  23824899.352    23824898.135
  20543000.707   -24620632.85344 -19143088.69342  20543002.887    20542999.364
  21871033.750   -13479324.95443 -10287635.11442  21871035.701    21871032.112
  21277889.579   -15201665.15644 -11836204.92242  21277892.262    21277888.424
  21915099.752   -16839624.65643 -13032688.60642  21915101.068    21915098.897
  23821555.380    -6804516.63243  -5042468.55942  23821557.500    23821554.784
 04  1  9  1 13 30.0000000  0  7G10G 5G 6G21G30G17G18
  21966691.494   -14031591.91843 -10776109.36342  21966692.998    21966690.163
  23845407.560     4355242.22843   3404946.56042  23845408.886    23845407.659
  20537409.417   -24650015.00044 -19165983.86342  20537411.628    20537408.141
  21860849.634   -13532842.71543 -10329337.24242  21860851.600    21860847.957
  21292291.759   -15125981.38944 -11777230.57842  21292294.443    21292290.554
  21926103.937   -16781797.22843 -12987628.26742  21926105.266    21926103.097
  23801076.831    -6912131.34643  -5126324.14542  23801079.054    23801076.517
 04  1  9  1 14  0.0000000  0  7G10G 5G 6G21G30G17G18
  21980729.187   -13957823.57543 -10718627.52142  21980730.666    21980727.754
  23865928.187     4463078.66143   3488974.91142  23865929.534    23865928.223
  20531876.385   -24679091.43244 -19188640.81242  20531878.581    20531875.101
  21850707.639   -13586139.05543 -10370866.82642  21850709.605    21850705.895
  21306770.971   -15049892.83044 -11717940.80842  21306773.661    21306769.761
  21937132.953   -16723838.80243 -12942465.85642  21937134.338    21937132.315
  23780622.964    -7019616.93943  -5210079.12642  23780625.168    23780622.686
 04  1  9  1 14 30.0000000  0  7G10G 5G 6G21G30G17G18
  21994849.205   -13883621.92043 -10660808.04042  21994850.771    21994847.846
  23886459.510     4570970.97943   3573046.81042  23886460.915    23886459.345
  20526401.866   -24707860.28144 -19211058.08642  20526404.078    20526400.606
  21840607.750   -13639214.13843 -10412224.00642  21840609.741    21840605.991
  21321326.698   -14973401.88744 -11658337.48942  21321329.420    21321325.518
  21948186.819   -16665750.08743 -12897201.90742  21948188.198    21948186.211
  23760194.237    -7126970.73443  -5293731.38642  23760196.308    23760193.948
 04  1  9  1 15  0.0000000  0  7G10G 5G 6G21G30G17G18
  22009051.403   -13808989.59143 -10602652.97542  22009052.825    22009049.906
  23907000.688     4678916.38943   3657160.05742  23907002.191    23907000.570
  20520986.250   -24736319.77244 -19233234.30742  20520988.424    20520985.014
  21830550.062   -13692067.93243 -10453408.75642  21830552.111    21830548.208
  21335958.540   -14896510.84743 -11598422.41142  21335961.261    21335957.488
  21959265.411   -16607531.57243 -12851836.82042  21959266.825    21959264.791
  23739791.014    -7234190.15143  -5377278.95642  23739793.122    23739790.694
 04  1  9  1 15 30.0000000  0  7G10G 5G 6G21G30G17G18
  22023334.700   -13733929.49143 -10544164.56842  22023336.265    22023333.267
  23927551.729     4786911.99843   3741312.44342  23927553.097    23927551.446
  20515629.680   -24764468.59844 -19255168.45042  20515631.864    20515628.527
  21820534.247   -13744700.99343 -10494421.50442  21820536.337    21820532.440
  21350665.978   -14819222.64844 -11538197.85742  21350668.708    21350664.951
  21970368.475   -16549184.88243 -12806371.85842  21970369.895    21970367.775
  23719414.132    -7341272.46543  -5460719.68642  23719416.170    23719413.331
 04  1  9  1 16  0.0000000  0  7G10G 5G 6G21G30G17G18
  22037699.551   -13658441.68743 -10485342.90042  22037701.102    22037698.096
  23948112.116     4894958.06443   3825504.15942  23948113.692    23948112.015
  20510333.037   -24792302.55744 -19276857.23942  20510335.216    20510331.918
  21810561.066   -13797110.17543 -10535259.80542  21810563.181    21810559.305
  21365449.048   -14741537.24543 -11477663.79542  21365451.724    21365448.013
  21981496.243   -16490708.02943 -12760805.46842  21981497.714    21981495.418
  23699063.860    -7448213.18843  -5544050.07742  23699066.122    23699063.015
 04  1  9  1 16 30.0000000  0  8G10G 5G 6G21G30G26G17G18
  22052144.149   -13582534.90243 -10426194.75642  22052145.620    22052142.752
  23968680.593     5003046.03443   3909728.51342  23968682.127    23968680.613
  20505095.447   -24819826.08244 -19298304.13442  20505097.608    20505094.315
  21800629.328   -13849301.83043 -10575928.60042  21800631.390    21800627.478
  21380306.058   -14663463.22543 -11416826.91642  21380308.727    21380304.994
  23797368.105
  21992647.445   -16432108.28643 -12715143.32042  21992648.936    21992646.430
  23678740.022    -7555016.07643  -5627273.06542  23678742.338    23678739.109
 04  1  9  1 17  0.0000000  0  8G10G 5G 6G21G30G26G17G18
  22066668.588   -13506207.84743 -10366719.12742  22066670.184    22066667.420
  23989257.519     5111177.34343   3993986.62242  23989258.761    23989257.469
  20499918.039   -24847033.38744 -19319504.62242  20499920.185    20499916.889
  21790739.757   -13901271.89543 -10616424.72742  21790741.839    21790737.823
  21395237.228   -14584999.22943 -11355686.16142  21395239.905    21395236.245
  23780939.693    -1520376.80753  -1141962.55352  23780939.778    23780934.448
  22003822.544   -16373382.45143 -12669382.91742  22003824.069    22003821.536
  23658443.625    -7661674.70043  -5710383.62142  23658445.925    23658442.664
 04  1  9  1 17 30.0000000  0  8G10G 5G 6G21G30G26G17G18
  22081272.818   -13429462.19643 -10306917.31842  22081274.364    22081271.626
  24009842.367     5219350.49743   4078277.35842  24009843.613    24009842.249
  20494801.281   -24873922.17144 -19340456.91642  20494803.383    20494800.092
  21780892.445   -13953019.86943 -10656747.79242  21780894.555    21780890.473
  21410242.249   -14506146.98543 -11294242.87142  21410244.914    21410241.439
  23764539.278    -1606557.66143  -1209116.46542  23764541.388    23764535.767
  22015021.748   -16314530.74043 -12623524.43942  22015023.202    22015020.645
  23638175.322    -7768185.52843  -5793379.01442  23638177.524    23638174.307
 04  1  9  1 18  0.0000000  0  8G10G 5G 6G21G30G26G17G18
  22095955.782   -13352302.32143 -10246792.73842  22095957.363    22095954.738
  24030434.508     5327561.20043   4162597.35042  24030435.694    24030434.248
  20489745.125   -24900492.35744 -19361160.94842  20489747.228    20489743.957
  21771087.139   -14004547.20043 -10696898.92942  21771089.250    21771085.195
  21425320.447   -14426910.57743 -11232500.23742  21425323.032    21425319.713
  23748167.497    -1692588.45743  -1276153.37842  23748170.670    23748164.634
  22026244.442   -16255555.46143 -12577569.67342  22026245.871    22026243.286
  23617935.102    -7874548.02143  -5876258.82742  23617937.282    23617934.183
 04  1  9  1 18 30.0000000  0  8G10G 5G 6G21G30G26G17G18
  22110717.829   -13274727.56043 -10186344.86642  22110719.347    22110716.729
  24051033.745     5435810.27643   4246947.23042  24051034.967    24051033.466
  20484750.558   -24926738.96944 -19381612.84542  20484752.658    20484749.391
  21761324.347   -14055850.77643 -10736875.71442  21761326.477    21761322.451
  21440471.940   -14347289.30643 -11170457.71342  21440474.437    21440471.217
  23731826.131    -1778462.01843  -1343067.75942  23731829.444    23731823.799
  22037491.075   -16196454.13143 -12531516.69042  22037492.527    22037489.873
  23597724.143    -7980756.60943  -5959018.71242  23597726.386    23597723.207
 04  1  9  1 19  0.0000000  0  8G10G 5G 6G21G30G26G17G18
  22125557.460   -13196745.33243 -10125579.47942  22125558.907    22125556.245
  24071638.901     5544090.82943   4331321.65142  24071640.265    24071638.658
  20479816.922   -24952665.23744 -19401815.12342  20479819.018    20479815.792
  21751603.280   -14106935.31943 -10776681.82242  21751605.383    21751601.409
  21455695.205   -14267290.61843 -11108121.10042  21455697.750    21455694.528
  23715514.373    -1864179.63743  -1409860.63642  23715517.600    23715512.491
  22048760.561   -16137232.54243 -12485369.99442  22048762.104    22048759.341
  23577542.170    -8086813.32143  -6041660.23842  23577544.461    23577541.228
 04  1  9  1 19 30.0000000  0  8G10G 5G 6G21G30G26G17G18
  22140474.094   -13118357.49643 -10064498.04842  22140475.660    22140472.957
  24092249.880     5652400.70643   4415718.91242  24092251.190    24092249.402
  20474944.661   -24978268.76344 -19421765.91742  20474946.775    20474943.597
  21741923.929   -14157800.22743 -10816316.78742  21741926.054    21741922.087
  21470989.844   -14186916.48543 -11045491.93042  21470992.467    21470989.258
  23699232.811    -1949736.93743  -1476528.58942  23699236.233    23699231.572
  22060052.974   -16077890.53143 -12439129.46342  22060054.492    22060051.709
  23557389.508    -8192715.07043  -6124181.02542  23557391.844    23557388.644
 04  1  9  1 20  0.0000000  0  8G10G 5G 6G21G30G26G17G18
  22155467.827   -13039565.51643 -10003101.68742  22155469.286    22155466.410
  24112865.947     5760738.67143   4500138.06342  24112867.487    24112865.546
  20470134.309   -25003546.83144 -19441463.10042  20470136.436    20470133.370
  21732286.618   -14208444.27843 -10855779.64942  21732288.687    21732284.767
  21486355.768   -14106168.23543 -10982571.23942  21486358.314    21486355.162
  23682983.343    -2035129.24643  -1543067.98742  23682986.084    23682981.533
  22071368.290   -16018428.11843 -12392795.10942  22071369.796    22071367.058
  23537267.013    -8298458.55443  -6206578.48842  23537269.280    23537266.176
 04  1  9  1 20 30.0000000  0  8G10G 5G 6G21G30G26G17G18
  22170538.046   -12960370.30943  -9941391.14242  22170539.566    22170536.750
  24133487.382     5869104.23343   4584578.70742  24133488.962    24133486.885
  20465386.602   -25028496.05244 -19460904.04642  20465388.699    20465385.711
  21722691.703   -14258866.02143 -10895069.29042  21722693.682    21722689.743
  21501792.722   -14025046.79443 -10919359.75042  21501795.231    21501792.049
  23666765.929    -2120351.15043  -1609474.57842  23666768.867    23666763.873
  22082706.756   -15958844.22443 -12346366.09042  22082708.207    22082705.422
  23517175.492    -8404039.42443  -6288849.23642  23517177.641    23517174.840
 04  1  9  1 21  0.0000000  0  8G10G 5G 6G21G30G26G17G18
  22185683.548   -12880780.52643  -9879373.12142  22185684.947    22185682.095
  24154112.226     5977488.86743   4669034.21942  24154113.992    24154111.806
  20460700.704   -25053120.53244 -19480091.94542  20460702.772    20460699.838
  21713138.083   -14309071.01843 -10934190.03742  21713140.043    21713136.033
  21517299.012   -13943560.55943 -10855863.99942  21517301.537    21517298.361
  23650580.829    -2205404.84543  -1675750.09342  23650583.344    23650578.360
  22094067.144   -15899145.51843 -12299847.61042  22094068.491    22094065.664
  23497114.455    -8509460.92643  -6370995.79942  23497116.461    23497113.921
 04  1  9  1 21 30.0000000  0  8G10G 5G 6G21G30G26G17G18
  22200904.420   -12800794.29443  -9817046.18642  22200905.796    22200902.968
  24174741.173     6085894.62543   4753506.19042  24174743.044    24174740.838
  20456077.795   -25077414.05344 -19499021.94742  20456079.840    20456076.922
  21703626.513   -14359054.80243 -10973138.41842  21703628.462    21703624.406
  21532875.061   -13861707.72343 -10792082.58542  21532877.623    21532874.378
  23634428.872    -2290282.02043  -1741888.08042  23634431.586    23634427.444
  22105449.833   -15839328.17743 -12253236.68842  22105451.268    22105448.522
  23477085.117    -8614716.32543  -6453012.91642  23477087.101    23477084.605
 04  1  9  1 22  0.0000000  0  8G10G 5G 6G21G30G26G17G18
  22216200.299   -12720413.92443  -9754412.12642  22216201.701    22216198.828
  24195373.783     6194319.62143   4837993.15942  24195375.642    24195373.505
  20451518.241   -25101374.63744 -19517692.52442  20451520.238    20451517.358
  21694157.019   -14408817.05343 -11011914.16542  21694159.020    21694154.933
  21548520.500   -13779490.33243 -10728017.10142  21548523.076    21548519.799
  23618311.100    -2374978.75343  -1807885.47042  23618314.078    23618310.924
  22116855.126   -15779392.96543 -12206533.90942  22116856.501    22116853.856
  23457087.743    -8719802.87943  -6534898.48642  23457089.944    23457087.272
 04  1  9  1 22 30.0000000  0  8G10G 5G 6G21G30G26G17G18
  22231569.952   -12639645.89043  -9691475.98542  22231571.340    22231568.535
  24216008.855     6302757.49843   4922490.15642  24216010.684    24216008.709
  20447021.597   -25125004.43544 -19536105.34642  20447023.584    20447020.709
  21684728.947   -14458361.87743 -11050520.49842  21684730.939    21684726.846
  21564234.064   -13696915.06443 -10663672.75542  21564236.624    21564233.346
  23602228.067    -2459495.27543  -1873742.40342  23602230.864    23602228.303
  22128282.060   -15719344.00243 -12159742.50842  22128283.357    22128280.926
  23437122.262    -8824722.08043  -6616653.65242  23437124.525    23437121.678
 04  1  9  1 23  0.0000000  0  8G10G 5G 6G21G30G26G17G18
  22247013.302   -12558490.44843  -9628237.96342  22247014.691    22247011.913
  24236646.405     6411208.74943   5006997.58542  24236648.170    24236646.412
  20442588.700   -25148299.57744 -19554257.39642  20442590.684    20442587.772
  21675342.696   -14507686.92943 -11088955.57542  21675344.700    21675340.561
  21580015.676   -13613982.20643 -10599049.76242  21580018.239    21580014.983
  23586180.346    -2543825.60943  -1939454.18842  23586182.912    23586180.802
  22139731.047   -15659180.04543 -12112861.49942  22139732.226    22139729.889
  23417189.450    -8929468.78043  -6698274.38942  23417191.793    23417189.012
 04  1  9  1 23 30.0000000  0  8G10G 5G 6G21G30G26G17G18
  22262529.972   -12476949.31743  -9564699.41742  22262531.376    22262528.786
  24257285.892     6519671.88143   5091514.28542  24257287.865    24257286.285
  20438220.034   -25171257.15044 -19572146.41242  20438222.057    20438219.060
  21665998.409   -14556790.88543 -11127218.37142  21666000.511    21665996.392
  21595865.070   -13530693.13743 -10534149.20742  21595867.647    21595864.396
  23570169.365    -2627964.79543  -2005017.08342  23570171.623    23570169.617
  22151201.928   -15598900.45843 -12065890.37342  22151203.098    22151200.776
  23397290.251    -9034039.44743  -6779757.96942  23397292.539    23397289.738
 04  1  9  1 24  0.0000000  0  8G10G 5G 6G21G30G26G17G18
  22278119.266   -12395026.78643  -9500863.67042  22278120.742    22278118.254
  24277927.194     6628142.41243   5176036.75042  24277929.010    24277927.596
  20433915.522   -25193877.65244 -19589772.76642  20433917.550    20433914.513
  21656695.896   -14605675.87943 -11165310.55642  21656697.987    21656693.866
  21611781.403   -13447052.41243 -10468974.63242  21611783.998    21611780.722
  23554194.665    -2711911.19743  -2070429.81142  23554197.274    23554195.921
  22162694.140   -15538508.18943 -12018831.44642  22162695.415    22162692.998
  23377424.705    -9138433.86743  -6861104.20342  23377426.867    23377424.148
 04  1  9  1 24 30.0000000  0  8G10G 5G 6G21G30G26G17G18
  22293780.036   -12312729.52143  -9436735.93042  22293781.380    22293778.947
  24298568.877     6736614.09343   5260560.08042  24298570.482    24298569.112
  20429674.765   -25216162.98244 -19607137.95242  20429676.794    20429673.743
  21647434.430   -14654345.50643 -11203234.92042  21647436.470    21647432.265
  21627763.522   -13363066.45743 -10403531.05042  21627766.085    21627762.731
  23538256.901    -2795664.69343  -2135692.21642  23538259.496    23538259.002
  22174207.157   -15478007.57343 -11971688.08942  22174208.398    22174205.830
  23357592.254    -9242653.57243  -6942314.30742  23357594.394    23357591.730
 04  1  9  1 25  0.0000000  0  9G10G 5G 6G21G30G26G17G18G16
  22309509.865   -12230068.75443  -9372324.92942  22309511.260    22309508.657
  24319208.603     6845076.08543   5345075.88642  24319210.155    24319208.751
  20425496.370   -25238120.23044 -19624247.48342  20425498.414    20425495.427
  21638212.233   -14702808.37243 -11240998.16542  21638214.278    21638210.067
  21643809.137   -13278746.47343 -10337827.18242  21643811.719    21643808.315
  23522355.022    -2879230.45243  -2200808.31042  23522357.528    23522357.004
  22185738.758   -15417407.95543 -11924467.59442  22185740.081    22185737.588
  23337791.801    -9346704.51043  -7023392.90942  23337793.839    23337791.561
  24715266.815    -1433633.92553  -1106818.54552  24715269.327    24715268.421
 04  1  9  1 25 30.0000000  0  9G10G 5G 6G21G30G26G17G18G16
  22325312.489   -12147025.33543  -9307615.76242  22325313.893    22325311.133
  24339849.888     6953547.50143   5429599.03142  24339851.587    24339850.216
  20421384.976   -25259725.94444 -19641083.09742  20421386.971    20421383.988
  21629033.448   -14751042.80143 -11278583.40542  21629035.516    21629031.361
  21659921.752   -13194073.53343 -10271848.28142  21659924.426    21659920.988
  23506493.398    -2962582.91743  -2265758.17942  23506496.127    23506494.901
  22197293.364   -15356688.31043 -11877153.56542  22197294.608    22197292.096
  23318028.120    -9450562.01043  -7104320.77442  23318030.092    23318028.046
  24698503.109    -1521725.35343  -1175461.19242  24698505.403    24698504.270
 04  1  9  1 26  0.0000000  0  9G10G 5G 6G21G30G26G17G18G16
  22341186.026   -12063609.08643  -9242616.07642  22341187.493    22341184.509
  24360491.440     7062018.94943   5514122.22142  24360493.127    24360491.620
  20417339.424   -25280985.49044 -19657648.96742  20417341.491    20417338.434
  21619896.936   -14799055.97644 -11315996.24742  21619898.946    21619894.771
  21676099.788   -13109057.26443 -10205601.85342  21676102.427    21676099.044
  23490671.665    -3045725.47643  -2330544.52242  23490674.205    23490672.807
  22208869.173   -15295856.51243 -11829752.16442  22208870.338    22208868.057
  23298300.470    -9554230.83343  -7185101.64742  23298302.342    23298300.415
  24681796.897    -1609515.49643  -1243869.08542  24681799.360    24681797.701
 04  1  9  1 26 30.0000000  0 10G10G29G 5G 6G21G30G26G17G18G16
  22357129.888   -11979823.40643  -9177328.52442  22357131.322    22357128.313
  23547552.497
  24381132.325     7170487.70143   5598643.31042  24381134.083    24381132.398
  20413359.967   -25301897.87544 -19673944.32942  20413362.049    20413358.926
  21610802.300   -14846848.49744 -11353237.14142  21610804.350    21610800.144
  21692342.588   -13023700.97643 -10139090.47742  21692345.157    21692341.799
  23474890.828    -3128655.12343  -2395164.95442  23474893.077    23474891.081
  22220466.156   -15234914.02043 -11782264.49842  22220467.218    22220465.019
  23278609.112    -9657709.43843  -7265734.27842  23278610.899    23278608.955
  24665148.278    -1697002.17343  -1312040.47942  24665150.621    24665149.577
 04  1  9  1 27  0.0000000  0  9G10G 5G 6G21G30G26G17G18G16
  22373143.006   -11895673.37043  -9111757.05942  22373144.430    22373141.578
  24401771.898     7278948.82243   5683158.43542  24401773.610    24401771.840
  20409446.380   -25322463.85244 -19689969.75842  20409448.468    20409445.393
  21601749.048   -14894422.96543 -11390308.12042  21601751.137    21601746.959
  21708649.167   -12938009.87943 -10072318.21342  21708651.698    21708648.247
  23459150.807    -3211370.66643  -2459618.56842  23459152.910    23459150.529
  22232083.867   -15173863.64543 -11734692.77542  22232084.714    22232082.547
  23258954.005    -9760997.99643  -7346218.83042  23258955.805    23258953.651
  24648557.727    -1784185.30043  -1379975.37442  24648559.662    24648558.540
 04  1  9  1 27 30.0000000  0  9G10G 5G 6G21G30G26G17G18G16
  22389224.787   -11811163.77943  -9045905.43542  22389226.083    22389223.362
  24422409.226     7387397.63243   5767663.97342  24422410.916    24422409.010
  20405598.547   -25342684.06644 -19705725.75642  20405600.678    20405597.627
  21592736.873   -14941781.78043 -11427211.07342  21592738.926    21592734.775
  21725018.460   -12851988.92443 -10005288.91842  21725021.001    21725017.536
  23443451.176    -3293870.57243  -2523904.13342  23443453.794    23443450.873
  22243721.283   -15112708.80843 -11687039.65942  22243722.081    22243719.896
  23239335.171    -9864096.33643  -7426555.15642  23239337.045    23239334.624
  24632024.976    -1871064.36743  -1447673.33642  24632026.619    24632025.129
 04  1  9  1 28  0.0000000  0 10G10G29G 5G 6G21G30G26G17G18G16
  22405375.264   -11726291.89243  -8979771.48842  22405376.631    22405374.025
  23519036.686    -1305595.70753   -997250.61452  23519035.964    23519034.176
  24443044.753     7495837.51543   5852162.55642  24443046.472    24443044.419
  20401817.944   -25362551.47444 -19721206.84842  20401820.030    20401816.993
  21583766.911   -14988919.16643 -11463941.48142  21583768.850    21583764.768
  21741451.017   -12765635.05343  -9938000.20642  21741453.614    21741450.201
  23427794.713    -3376145.62243  -2588014.47242  23427797.185    23427794.101
  22255379.380   -15051444.15643 -11639300.97042  22255380.333    22255378.199
  23219753.881    -9966996.35443  -7506736.94542  23219755.887    23219753.273
  24615551.620    -1957631.13743  -1515127.91742  24615553.301    24615551.819
 04  1  9  1 28 30.0000000  0 10G10G29G 5G 6G21G30G26G17G18G16
  22421593.727   -11641062.94243  -8913359.32742  22421595.123    22421592.578
  23509666.821    -1354826.86853  -1035612.51752  23509669.188    23509667.040
  24463677.291     7604263.46143   5936650.28942  24463679.214    24463677.310
  20398104.253   -25382067.02844 -19736413.76242  20398106.329    20398103.294
  21574838.624   -15035837.73343 -11500501.37542  21574840.503    21574836.431
  21757945.916   -12678953.62343  -9870456.25042  21757948.546    21757945.181
  23412181.355    -3458194.54343  -2651948.64942  23412183.704    23412181.258
  22267057.919   -14990073.10643 -11591479.36642  22267058.898    22267056.662
  23200210.372   -10069698.27343  -7586764.37642  23200212.411    23200209.700
  24599137.918    -2043885.49243  -1582339.04642  24599139.481    24599137.812
 04  1  9  1 29  0.0000000  0 10G10G29G 5G 6G21G30G26G17G18G16
  22437878.444   -11555485.76443  -8846675.81242  22437879.832    22437877.334
  23500366.593    -1403703.36043  -1073698.02342  23500368.847    23500366.998
  24484305.956     7712667.28943   6021120.76542  24484307.669    24484305.976
  20394456.568   -25401235.36944 -19751350.12042  20394458.696    20394455.654
  21565950.661   -15082543.87343 -11536895.74442  21565952.537    21565948.518
  21774501.405   -12591953.66543  -9802664.09542  21774504.034    21774500.767
  23396610.228    -3540020.18343  -2715708.83442  23396613.293    23396610.905
  22278755.363   -14928602.49143 -11543580.17842  22278756.414    22278754.244
  23180703.733   -10172205.90343  -7666640.41742  23180705.978    23180703.051
  24582783.046    -2129831.30043  -1649309.79242  24582784.496    24582782.533
 04  1  9  1 29 30.0000000  0 10G10G29G 5G 6G21G30G26G17G18G16
  22454230.510   -11469554.25343  -8779716.20442  22454231.990    22454229.611
  23491135.222    -1452213.21453  -1111497.81852  23491137.965    23491136.267
  24504931.273     7821055.40943   6105579.02442  24504933.092    24504931.540
  20390877.023   -25420045.76044 -19766007.56242  20390879.158    20390876.145
  21557104.964   -15129028.62343 -11573117.60342  21557106.758    21557102.733
  21791118.761   -12504628.91743  -9734618.86042  21791121.282    21791118.137
  23381083.768    -3621609.70543  -2779284.97342  23381087.117    23381085.271
  22290473.459   -14867024.11443 -11495597.02542  22290474.486    22290472.212
  23161236.249   -10274507.92943  -7746356.23642  23161238.528    23161235.504
  24566489.142    -2215456.83743  -1716030.94942  24566490.674    24566488.714
 04  1  9  1 30  0.0000000  0  9G10G29G 5G 6G21G30G17G18G16
  22470648.106   -11383278.57743  -8712488.39542  22470649.562    22470647.376
  23481973.028    -1500361.29153  -1149015.74252  23481975.443    23481973.587
  24525551.939     7929417.73743   6190017.18242  24525553.556    24525552.249
  20387364.494   -25438504.11244 -19780390.68242  20387366.631    20387363.607
  21548299.938   -15175299.27644 -11609172.63642  21548301.776    21548297.697
  21807795.873   -12416989.51943  -9666328.43942  21807798.385    21807795.315
  22302210.332   -14805345.99143 -11447536.14342  22302211.471    22302209.186
  23141806.771   -10376609.36343  -7825915.75642  23141809.114    23141806.091
  24550255.377    -2300766.90043  -1782506.29242  24550256.958    24550254.670
 04  1  9  1 30 30.0000000  0  8G10G 5G 6G21G30G17G18G16
  22487131.499   -11296657.45643  -8644991.40042  22487132.909    22487130.744
  24546167.734     8037755.96643   6274436.56542  24546169.435    24546168.418
  20383920.055   -25456604.91044 -19794495.19142  20383922.145    20383919.146
  21539536.293   -15221352.25443 -11645058.05642  21539538.176    21539534.066
  21824533.191   -12329034.33343  -9597791.94642  21824535.637    21824532.647
  22313966.844   -14743565.22443 -11399395.27742  22313967.952    22313965.639
  23122416.744   -10478504.09443  -7905314.21842  23122418.897    23122415.948
  24534082.424    -2385754.89643  -1848730.66942  24534084.332    24534082.127
 04  1  9  1 31  0.0000000  0  8G10G 5G 6G21G30G17G18G16
  22503680.025   -11209694.30743  -8577227.89542  22503681.409    22503679.272
  24566778.600     8146066.87143   6358834.62642  24566780.071    24566779.431
  20380543.805   -25474347.35144 -19808320.45942  20380545.887    20380542.855
  21530813.896   -15267188.09343 -11680774.26642  21530815.817    21530811.778
  21841329.959   -12240766.73643  -9529012.01642  21841332.365    21841329.403
  22325742.588   -14681683.00343 -11351175.36542  22325743.692    22325741.455
  23103066.382   -10580190.39843  -7984550.25842  23103068.442    23103065.613
  24517971.446    -2470418.77243  -1914702.48342  24517973.428    24517971.138
 04  1  9  1 31 30.0000000  0  8G10G 5G 6G21G30G17G18G16
  22520292.836   -11122393.27443  -8509201.10642  22520294.126    22520291.919
  24587383.888     8254347.11143   6443208.78942  24587385.162    24587384.624
  20377235.688   -25491731.25944 -19821866.34842  20377237.817    20377234.813
  21522132.679   -15312808.47943 -11716322.58642  21522134.531    21522130.476
  21858185.453   -12152190.89543  -9459991.90242  21858187.813    21858184.875
  22337537.148   -14619701.31343 -11302877.92942  22337538.348    22337536.086
  23083755.995   -10681667.13843  -8063623.00042  23083757.946    23083755.222
  24501922.314    -2554757.45143  -1980420.91342  24501924.312    24501921.811
 04  1  9  1 32  0.0000000  0 10G10G29G 5G 6G21G30G26G17G18G16
  22536969.791   -11034755.15943  -8440911.67142  22536971.005    22536968.903
  23446031.829    -1125026.86453   -867185.22852  23446030.868    23446028.941
  24607983.147     8362596.36643   6527558.82042  24607984.467    24607983.958
  20373996.517   -25508753.08844 -19835130.09642  20373998.641    20373995.676
  21513492.720   -15358211.64344 -11751701.65942  21513494.583    21513490.591
  21875099.410   -12063307.65243  -9390732.24942  21875101.774    21875098.848
  23304138.836    -1206848.67253   -925131.02452  23304141.196    23304135.691
  22349350.996   -14557618.63243 -11254501.81742  22349352.155    22349350.045
  23064486.472   -10782930.11143  -8142529.16742  23064488.261    23064485.530
  24485935.847    -2638766.53443  -2045882.54842  24485937.662    24485935.281
 04  1  9  1 32 30.0000000  0 10G10G29G 5G 6G21G30G26G17G18G16
  22553710.615   -10946780.76143  -8372360.16442  22553711.968    22553709.795
  23437222.236    -1171308.22853   -903248.66852  23437222.049    23437223.911
  24628576.289     8470813.88443   6611884.12042  24628577.678    24628577.196
  20370826.943   -25525409.27044 -19848108.92342  20370829.073    20370826.094
  21504894.528   -15403395.44844 -11786909.79442  21504896.425    21504892.434
  21892071.733   -11974117.76143  -9321233.65742  21892074.100    21892071.232
  23288889.668    -1286970.87443   -987563.81942  23288893.322    23288888.626
  22361184.309   -14495434.00143 -11206046.25142  22361185.518    22361183.442
  23045258.282   -10883975.14243  -8221265.52042  23045260.076    23045257.415
  24470012.854    -2722441.42543  -2111083.68842  24470014.802    24470012.683
 04  1  9  1 33  0.0000000  0 10G10G29G 5G 6G21G30G26G17G18G16
  22570513.804   -10858478.92343  -8303553.52342  22570515.258    22570513.064
  23428486.141    -1217212.70043   -939018.29942  23428487.730    23428488.042
  24649161.894     8578991.27443   6696178.16442  24649163.441    24649162.729
  20367726.103   -25541704.42744 -19860806.44142  20367728.212    20367725.236
  21496336.908   -15448366.13944 -11821951.87042  21496338.805    21496334.805
  21909100.620   -11884630.16743  -9251503.07542  21909103.069    21909100.168
  23273691.404    -1366839.22643  -1049798.81242  23273694.398    23273690.074
  22373035.712   -14433154.06143 -11157516.42142  22373037.026    22373034.922
  23026070.928   -10984805.82043  -8299834.82742  23026072.678    23026069.961
  24454152.657    -2805785.50543  -2176027.08742  24454154.647    24454152.969
 04  1  9  1 33 30.0000000  0 10G10G29G 5G 6G21G30G26G17G18G16
  22587379.136   -10769851.19543  -8234492.95042  22587380.394    22587378.475
  23419823.469    -1262736.54343   -974491.37442  23419825.036    23419824.559
  24669739.609     8687127.34043   6780440.01342  24669741.214    24669740.450
  20364694.349   -25557636.07644 -19873220.69742  20364696.501    20364693.529
  21487819.976   -15493122.90244 -11856827.24942  21487821.936    21487817.922
  21926185.791   -11794846.71343  -9181541.95442  21926188.295    21926185.469
  23258542.145    -1446449.13343  -1111832.46542  23258544.902    23258540.492
  22384905.443   -14370778.25643 -11108911.90042  22384906.738    22384904.613
  23006924.746   -11085418.97843  -8378234.63942  23006926.745    23006923.909
  24438356.211    -2888795.42843  -2240710.07242  24438357.932    24438356.737
 04  1  9  1 34  0.0000000  0 10G10G29G 5G 6G21G30G26G17G18G16
  22604306.243   -10680898.33443  -8165179.02442  22604307.493    22604305.720
  23411233.768    -1307875.03743  -1009664.17342  23411235.610    23411234.498
  24690309.194     8795221.96143   6864669.56542  24690311.142    24690310.310
  20361732.495   -25573200.58144 -19885348.87242  20361734.659    20361731.697
  21479344.118   -15537663.77144 -11891534.40242  21479346.139    21479342.135
  21943327.186   -11704768.06843  -9111350.82142  21943329.648    21943326.859
  23243442.774    -1525794.75343  -1173660.14942  23243445.800    23243441.445
  22396793.522   -14308305.50243 -11060231.82542  22396794.909    22396792.730
  22987820.980   -11185809.84543  -8456461.25342  22987823.085    22987820.170
  24422624.433    -2971466.35243  -2305128.91242  24422626.179    24422624.971
 04  1  9  1 34 30.0000000  0 10G10G29G 5G 6G21G30G26G17G18G16
  22621294.575   -10591623.23143  -8095614.01342  22621295.910    22621294.225
  23402718.176    -1352625.73943  -1044534.81442  23402720.071    23402718.475
  24710870.846     8903272.45943   6948864.75142  24710872.715    24710871.827
  20358840.796   -25588396.50144 -19897189.83242  20358842.952    20358839.998
  21470909.368   -15581988.80444 -11926073.36042  21470911.416    21470907.365
  21960524.289   -11614396.94643  -9040931.77842  21960526.730    21960523.923
  23228394.958    -1604872.56943  -1235279.17642  23228397.734    23228393.504
  22408700.181   -14245736.20143 -11011476.51642  22408701.550    22408699.254
  22968760.023   -11285976.32343  -8534513.00242  22968762.175    22968759.214
  24406957.819    -3053795.85943  -2369281.74442  24406959.394    24406958.062
 04  1  9  1 35  0.0000000  0 10G10G29G 5G 6G21G30G26G17G18G16
  22638343.726   -10502029.37443  -8025800.62442  22638345.044    22638343.424
  23394276.510    -1396986.76743  -1079101.79342  23394278.902    23394277.001
  24731423.383     9011276.05143   7033023.37742  24731425.272    24731424.160
  20356019.412   -25603222.93044 -19908742.88542  20356021.581    20356018.556
  21462515.504   -15626098.51644 -11960444.53342  21462517.605    21462513.504
  21977776.433   -11523737.01243  -8970287.69142  21977778.814    21977775.836
  23213398.654    -1683679.55943  -1296687.12842  23213400.938    23213396.820
  22420624.796   -14183071.80343 -10962647.11042  22420626.284    22420623.931
  22949742.003   -11385916.94443  -8612388.76942  22949744.156    22949741.134
  24391356.130    -3135782.13143  -2433167.09642  24391357.982    24391356.659
 04  1  9  1 35 30.0000000  0 10G10G29G 5G 6G21G30G26G17G18G16
  22655453.361   -10412118.27243  -7955740.01542  22655454.614    22655452.957
  23385909.858    -1440954.78943  -1113362.55342  23385912.397    23385909.942
  24751966.880     9119231.37343   7117144.38042  24751968.673    24751967.341
  20353268.879   -25617677.28444 -19920006.01142  20353271.018    20353267.927
  21454162.767   -15669992.03844 -11994647.24742  21454164.876    21454160.780
  21995083.033   -11432790.02143  -8899419.92042  21995085.535    21995082.410
  23198454.510    -1762211.12843  -1357880.46942  23198456.941    23198452.810
  22432567.580   -14120311.86443 -10913743.25342  22432569.144    22432566.820
  22930767.591   -11485628.43143  -8690085.99542  22930769.686    22930766.725
  24375820.531    -3217421.37843  -2496782.02342  24375822.479    24375821.133
 04  1  9  1 36  0.0000000  0 10G10G29G 5G 6G21G30G26G17G18G16
  22672622.279   -10321894.92843  -7885436.12442  22672623.575    22672621.939
  23377617.868    -1484529.37253  -1147316.71752  23377620.511    23377617.735
  24772500.246     9227133.87943   7201224.22842  24772502.183    24772500.538
  20350588.978   -25631760.42544 -19930979.87442  20350591.095    20350587.952
  21445850.784   -15713672.01944 -12028683.57842  21445852.839    21445848.721
  22012443.439   -11341560.99743  -8828332.38742  22012445.907    22012442.744
  23183562.876    -1840465.68343  -1418858.00742  23183565.253    23183561.380
  22444528.043   -14057459.33043 -10864767.24942  22444529.625    22444527.262
  22911836.551   -11585110.59843  -8767604.52542  22911838.756    22911835.909
  24360351.433    -3298713.57143  -2560126.55742  24360353.161    24360351.529
 04  1  9  1 36 30.0000000  0 10G10G29G 5G 6G21G30G26G17G18G16
  22689850.559   -10231360.46843  -7814889.77542  22689851.908    22689850.096
  23369401.259    -1527706.18053  -1180960.95552  23369403.963    23369401.238
  24793023.340     9334983.26143   7285262.66842  24793025.475    24793023.676
  20347980.241   -25645469.16044 -19941661.99942  20347982.403    20347979.235
  21437579.847   -15757136.37744 -12062551.88642  21437581.923    21437577.664
  22029857.161   -11250050.90743  -8757025.83542  22029859.705    22029856.603
  23168725.079    -1918437.96343  -1479615.55642  23168727.339    23168723.682
  22456506.235   -13994512.89543 -10815718.06742  22456507.818    22456505.501
  22892949.979   -11684359.37743  -8844941.18942  22892952.244    22892949.397
  24344949.020    -3379654.29443  -2623197.20542  24344950.789    24344949.143
 04  1  9  1 37  0.0000000  0 10G10G29G 5G 6G21G30G26G17G18G16
  22707137.127   -10140519.18243  -7744104.34242  22707138.635    22707136.543
  23361260.613    -1570484.33053  -1214294.51952  23361263.029    23361260.159
  24813535.405     9442775.01943   7369256.24542  24813537.585    24813535.668
  20345442.745   -25658803.56944 -19952052.43442  20345444.927    20345441.762
  21429349.437   -15800387.21844 -12096253.81242  21429351.578    21429347.278
  22047323.698   -11158264.21943  -8685503.76442  22047326.144    22047323.033
  23153941.541    -1996126.05543  -1540151.70542  23153943.653    23153940.524
  22468502.087   -13931474.67343 -10766597.39242  22468503.436    22468501.293
  22874108.085   -11783374.09543  -8922095.47742  22874110.264    22874107.408
  24329613.478    -3460242.73943  -2685993.38442  24329615.335    24329613.593
 04  1  9  1 37 30.0000000  0 10G10G29G 5G 6G21G30G26G17G18G16
  22724482.111   -10049371.52543  -7673080.19542  22724483.581    22724481.322
  23353197.196    -1612859.11643  -1247313.79342  23353199.256    23353196.409
  24834036.523     9550509.80543   7453205.43242  24834038.766    24834036.764
  20342977.335   -25671759.59744 -19962148.04142  20342979.510    20342976.302
  21421160.197   -15843421.86344 -12129787.27842  21421162.339    21421158.077
  22064842.694   -11066201.27143  -8613766.42242  22064845.216    22064841.981
  23139213.187    -2073523.64843  -1600461.45042  23139215.420    23139212.512
  22480515.534   -13868342.86743 -10717403.78042  22480516.946    22480514.767
  22855311.632   -11882150.11043  -8999063.76242  22855313.719    22855310.969
  24314345.654    -3540473.56043  -2748510.85342  24314347.692    24314346.245
 04  1  9  1 38  0.0000000  0  9G10G29G 6G21G30G26G17G18G16
  22741885.463    -9957915.97243  -7601816.12042  22741887.042    22741884.728
  23345211.727    -1654823.86743  -1280013.55942  23345213.854    23345210.833
  20340584.929   -25684331.81644 -19971944.56642  20340587.098    20340583.900
  21413012.789   -15886236.58244 -12163149.37342  21413014.933    21413010.666
  22082414.543   -10973861.00543  -8541812.98942  22082417.105    22082413.711
  23124541.934    -2150623.29343  -1660539.06242  23124544.071    23124541.281
  22492547.662   -13805114.17043 -10668134.65842  22492548.918    22492546.797
  22836561.693   -11980680.93443  -9075840.99542  22836563.842    22836561.201
  24299147.328    -3620340.61443  -2810744.86442  24299149.160    24299148.021
 04  1  9  1 38 30.0000000  0  9G10G29G 6G21G30G26G17G18G16
  22759343.803    -9866171.41643  -7530326.86042  22759345.340    22759343.182
  23337301.498    -1696392.28943  -1312404.49742  23337303.842    23337300.933
  20338262.763   -25696534.65644 -19981453.26742  20338264.946    20338261.771
  21404904.228   -15928847.55044 -12196352.70942  21404906.307    21404902.026
  22100035.511   -10881262.13943  -8469658.04942  22100038.180    22100034.732
  23109925.234    -2227437.27843  -1720394.04942  23109927.219    23109924.180
  22504594.854   -13741805.24543 -10618803.03842  22504596.095    22504594.131
  22817855.897   -12078980.55943  -9152438.06742  22817858.027    22817855.361
  24284015.738    -3699857.17943  -2872705.74542  24284017.633    24284016.545
 04  1  9  1 39  0.0000000  0  9G10G29G 6G21G30G26G17G18G16
  22776859.140    -9774127.70943  -7458604.49242  22776860.586    22776858.626
  23329469.436    -1737549.07643  -1344474.67942  23329472.098    23329469.327
  20336013.632   -25708353.77044 -19990662.95942  20336015.810    20336012.644
  21396836.828   -15971241.84644 -12229387.20942  21396838.916    21396834.646
  22117707.737   -10788394.64443  -8397293.77942  22117710.377    22117706.876
  23095365.478    -2303949.28643  -1780013.74142  23095367.822    23095364.516
  22516659.832   -13678403.40843 -10569399.00342  22516661.050    22516659.089
  22799196.914   -12177033.82743  -9228843.16542  22799199.029    22799196.373
  24268953.918    -3779008.17643  -2934381.80842  24268955.672    24268954.503
 04  1  9  1 39 30.0000000  0  9G10G29G 6G21G30G26G17G18G16
  22794430.021    -9681790.49143  -7386653.41642  22794431.571    22794429.890
  23321715.553    -1778294.83743  -1376224.54542  23321718.306    23321715.625
  20333837.263   -25719790.59644 -19999574.76642  20333839.434    20333836.273
  21388810.079   -16013422.66444 -12262255.35442  21388812.183    21388807.912
  22135429.880   -10695264.48843  -8324724.85142  22135432.496    22135429.039
  23080863.109    -2380158.57943  -1839397.52942  23080865.553    23080862.575
  22528741.713   -13614912.41243 -10519925.50742  22528742.951    22528741.169
  22780584.833   -12274841.14443  -9305056.61342  22780586.872    22780584.155
  24253961.763    -3857793.87443  -2995773.22142  24253963.640    24253962.044
 04  1  9  1 40  0.0000000  0  9G10G29G 6G21G30G26G17G18G16
  22812056.015    -9589165.68443  -7314478.24042  22812057.400    22812055.844
  23314039.850    -1818630.18743  -1407654.61642  23314042.662    23314040.080
  20331733.311   -25730847.03844 -20008190.16742  20331735.443    20331732.300
  21380823.435   -16055393.04644 -12294959.52142  21380825.523    21380821.201
  22153200.895   -10601877.47243  -8251955.75942  22153203.545    22153200.034
  23066418.367    -2456064.73243  -1898545.16042  23066420.760    23066418.143
  22540839.954   -13551335.95743 -10470385.39742  22540841.239    22540839.372
  22762019.277   -12372403.64743  -9381079.30142  22762021.333    22762018.540
  24239038.970    -3936215.04843  -3056880.59742  24239040.934    24239039.072
 04  1  9  1 40 30.0000000  0  9G10G29G 6G21G30G26G17G18G16
  22829736.872    -9496251.49643  -7242077.57942  22829738.329    22829736.873
  23306443.612    -1858548.29743  -1438759.58942  23306446.572    23306443.720
  20329702.863   -25741516.92744 -20016504.36442  20329704.988    20329701.895
  21372877.526   -16097148.62044 -12327496.31042  21372879.690    21372875.353
  22171020.980   -10508231.91343  -8178985.21242  22171023.637    22171020.241
  23052033.083    -2531659.49443  -1957450.08642  23052035.447    23052033.142
  22552955.170   -13487670.04243 -10420775.59442  22552956.422    22552954.546
  22743501.638   -12469714.83543  -9456906.14842  22743503.674    22743500.787
  24224186.866    -4014264.45643  -3117698.28842  24224189.012    24224186.815
 04  1  9  1 41  0.0000000  0  9G10G29G 6G21G30G26G17G18G16
  22847472.139    -9403052.35743  -7169454.85942  22847473.515    22847471.991
  23298927.201    -1898048.50343  -1469538.97642  23298929.923    23298926.820
  20327745.937   -25751800.51244 -20024517.53742  20327748.052    20327745.023
  21364972.188   -16138691.18944 -12359867.12542  21364974.309    21364969.986
  22188889.364   -10414332.37643  -8105816.75142  22188892.091    22188888.841
  23037707.397    -2606941.03443  -2016110.98742  23037709.905    23037707.543
  22565087.183   -13423916.80843 -10371097.72842  22565088.360    22565086.282
  22725032.010   -12566773.75843  -9532536.44542  22725034.108    22725030.945
  24209405.560    -4091941.56043  -3178225.86542  24209407.740    24209405.311
 04  1  9  1 41 30.0000000  0  9G10G29G 6G21G30G26G17G18G16
  22865260.811    -9309572.26443  -7096613.23342  22865262.321    22865260.680
  23291490.380    -1937129.79543  -1499991.90442  23291492.899    23291489.506
  20325862.567   -25761697.81944 -20032229.71342  20325864.657    20325861.646
  21357107.207   -16180022.16944 -12392073.05842  21357109.255    21357104.899
  22206805.494   -10320183.00243  -8032453.61142  22206808.075    22206804.898
  23023442.081    -2681907.00143  -2074525.99942  23023444.477    23023441.969
  22577235.135   -13360078.39743 -10321353.50542  22577236.428    22577234.351
  22706610.447   -12663579.28043  -9607969.26742  22706612.628    22706609.261
  24194695.238    -4169245.04243  -3238462.32942  24194697.433    24194694.845
 04  1  9  1 42  0.0000000  0  9G10G29G 6G21G30G26G17G18G16
  22883102.913    -9215812.94343  -7023554.01642  22883104.285    22883102.407
  23284134.027    -1975788.79643  -1530115.74542  23284136.431    23284132.665
  20324053.148   -25771206.41944 -20039639.00242  20324055.217    20324052.233
  21349282.659   -16221140.16344 -12424113.03942  21349284.698    21349280.381
  22224768.692   -10225785.59943  -7958897.19842  22224771.278    22224768.140
  23009237.482    -2756553.00043  -2132691.66142  23009240.004    23009237.393
  22589399.579   -13296154.03343 -10271542.31542  22589400.849    22589398.865
  22688237.604   -12760128.27843  -9683202.18842  22688239.850    22688236.488
  24180056.574    -4246171.58043  -3298405.05142  24180058.719    24180056.104
 04  1  9  1 42 30.0000000  0  9G10G29G 6G21G30G26G17G18G16
  22900997.458    -9121776.25543  -6950278.66442  22900998.964    22900996.935
  23276858.153    -2014022.13043  -1559907.87242  23276860.851    23276857.141
  20322318.164   -25780323.82344 -20046743.46542  20322320.215    20322317.244
  21341498.743   -16262044.82744 -12455986.78442  21341500.766    21341496.464
  22242778.799   -10131142.13443  -7885149.05642  22242781.373    22242778.158
  22995094.501    -2830874.13643  -2190604.20342  22995097.060    22995094.667
  22601580.235   -13232143.30343 -10221663.81342  22601581.578    22601579.825
  22669914.424   -12856417.58843  -9758232.76942  22669916.566    22669913.025
  24165490.279    -4322717.65343  -3358051.33142  24165492.413    24165489.567
 04  1  9  1 43  0.0000000  0  9G10G29G 6G21G30G26G17G18G16
  22918944.152    -9027466.79643  -6876790.77542  22918945.555    22918943.414
  23269663.657    -2051829.70143  -1589368.25642  23269666.047    23269662.660
  20320657.514   -25789050.68044 -20053543.60642  20320659.551    20320656.586
  21333755.008   -16302738.44244 -12487696.07642  21333757.047    21333752.680
  22260834.831   -10036257.31843  -7811212.84442  22260837.392    22260834.076
  22981013.773    -2904868.90143  -2248262.42542  22981016.104    22981013.894
  22613777.083   -13168048.74243 -10171719.99342  22613778.254    22613776.767
  22651640.602   -12952447.24043  -9833061.00642  22651642.717    22651639.083
  24150996.586    -4398882.85343  -3417400.82442  24150998.582    24150995.700
 04  1  9  1 43 30.0000000  0  9G10G29G 6G21G30G26G17G18G16
  22936942.188    -8932886.39343  -6803091.76042  22936943.722    22936941.465
  23262550.630    -2089208.23243  -1618494.35142  23262553.102    23262549.765
  20319071.613   -25797384.63644 -20060037.59042  20319073.665    20319070.682
  21326051.671   -16343219.80244 -12519239.97142  21326053.739    21326049.248
  22278936.424    -9941133.19843  -7737090.16942  22278939.010    22278935.503
  22966995.725    -2978532.87243  -2305662.90342  22966998.325    22966995.975
  22625989.821   -13103869.79443 -10121710.41342  22625991.059    22625989.602
  22633416.644   -13048213.68743  -9907684.14242  22633418.874    22633415.321
  24136576.047    -4474663.70743  -3476450.81742  24136577.969    24136574.971
 04  1  9  1 44  0.0000000  0  9G10G29G 6G21G30G26G17G18G16
  22954991.189    -8838038.55743  -6729184.34842  22954992.707    22954990.466
  23255519.744    -2126155.72943  -1647284.59542  23255522.084    23255518.862
  20317560.596   -25805324.83844 -20066224.75442  20317562.688    20317559.679
  21318388.662   -16383489.32944 -12550618.80642  21318390.746    21318386.105
  22297082.804    -9845773.07743  -7662783.59942  22297085.466    22297081.810
  22953041.528    -3051863.19343  -2362803.35442  22953043.961    22953041.586
  22638218.470   -13039607.88243 -10071636.19742  22638219.631    22638218.204
  22615243.330   -13143715.26243  -9982100.89742  22615245.548    22615241.972
  24122228.819    -4550058.61343  -3535200.07742  24122230.849    24122227.745
 04  1  9  1 44 30.0000000  0  9G10G29G 6G21G30G26G17G18G16
  22973090.812    -8742925.05443  -6655069.93942  22973092.292    22973089.940
  23248571.278    -2162669.56243  -1675736.88842  23248573.753    23248570.574
  20316124.947   -25812869.27944 -20072103.53342  20316127.031    20316123.997
  21310765.981   -16423546.77844 -12581832.38242  21310768.072    21310763.417
  22315273.557    -9750179.20443  -7588294.87842  22315276.287    22315272.633
  22939151.634    -3124855.33143  -2419680.30442  22939154.299    22939151.355
  22650463.049   -12975262.37943 -10021496.83242  22650464.156    22650462.786
  22597120.838   -13238949.44043 -10056309.28242  22597123.031    22597119.483
  24107955.653    -4625064.30843  -3593646.03342  24107957.719    24107954.680
 04  1  9  1 45  0.0000000  0  9G10G29G 6G21G30G26G17G18G16
  22991240.046    -8647551.02043  -6580752.51342  22991241.507    22991239.048
  23241705.754    -2198749.92243  -1703851.39442  23241707.985    23241704.594
  20314764.386   -25820019.05344 -20077674.77642  20314766.472    20314763.429
  21303183.143   -16463394.47744 -12612882.53242  21303185.232    21303180.650
  22333507.840    -9654356.67843  -7513627.99442  22333510.571    22333506.999
  22925326.065    -3197508.33243  -2476292.98242  22925328.850    22925325.953
  22662722.663   -12910836.28243  -9971294.67142  22662724.024    22662722.700
  22579049.286   -13333916.14643 -10130309.24542  22579051.467    22579047.996
  24093756.739    -4699680.70443  -3651788.66842  24093758.641    24093755.645
 04  1  9  1 45 30.0000000  0 10G10G15G29G 6G21G30G26G17G18G16
  23009435.623    -8551933.00743  -6506244.95842  23009437.167    23009434.628
  24726252.549    -1288044.12853   -977299.37052  24726254.209    24726252.958
  23234920.217    -2234408.06543  -1731636.88842  23234922.410    23234918.935
  20313476.605   -25826786.56444 -20082948.15442  20313478.658    20313475.593
  21295637.612   -16503046.38544 -12643780.11142  21295639.663    21295635.151
  22351782.479    -9558322.38743  -7438796.08842  22351785.149    22351781.745
  22911563.392    -3269832.45843  -2532649.40642  22911566.081    22911563.330
  22674995.348   -12846343.89543  -9921040.85042  22674996.553    22674995.241
  22561026.406   -13428627.34643 -10204110.11442  22561028.638    22561025.035
  24079629.284    -4773919.51443  -3709637.04142  24079631.280    24079628.458
 04  1  9  1 46  0.0000000  0 10G10G15G29G 6G21G30G26G17G18G16
  23027683.004    -8456041.53643  -6431524.33942  23027684.739    23027682.105
  24710818.346    -1369149.72643  -1040498.55542  24710820.327    24710819.317
  23228221.186    -2269610.14843  -1759067.06442  23228223.408    23228219.809
  20312267.910   -25833138.35644 -20087897.60342  20312269.965    20312266.839
  21288135.350   -16542470.65944 -12674500.30242  21288137.414    21288132.955
  22370103.001    -9462047.11443  -7363776.41142  22370105.549    22370102.391
  22897870.154    -3341792.03643  -2588721.73542  22897872.819    22897870.034
  22687286.272   -12781753.79243  -9870710.90042  22687287.682    22687286.296
  22543058.526   -13523048.57843 -10277685.03342  22543060.940    22543057.158
  24065580.517    -4847746.23843  -3767164.34542  24065582.480    24065579.662
 04  1  9  1 46 30.0000000  0 10G10G15G29G 6G21G30G26G17G18G16
  23045978.940    -8359896.13843  -6356605.83842  23045980.602    23045977.965
  24695400.218    -1450171.51743  -1103632.37742  24695402.131    24695401.709
  23221606.179    -2304370.57543  -1786153.10742  23221608.655    23221604.946
  20311135.348   -25839089.86844 -20092535.13942  20311137.430    20311134.287
  21280673.288   -16581684.30744 -12705056.38342  21280675.274    21280670.828
  22388465.660    -9365550.45343  -7288584.20942  22388468.199    22388465.187
  22884243.425    -3413400.40043  -2644520.40942  22884246.287    22884243.486
  22699592.698   -12717083.10443  -9820318.13542  22699594.174    22699592.594
  22525143.161   -13617194.78743 -10351045.65042  22525145.640    22525141.641
  24051607.494    -4921175.09143  -3824381.64742  24051609.455    24051606.423
 04  1  9  1 47  0.0000000  0 10G10G15G29G 6G21G30G26G17G18G16
  23064321.949    -8263501.97443  -6281493.52342  23064323.514    23064321.222
  24679997.745    -1531111.16543  -1166702.26142  24679999.586    24679999.141
  23215075.637    -2338689.58243  -1812895.16342  23215077.992    23215074.211
  20310078.787   -25844642.07844 -20096861.52942  20310080.883    20310077.722
  21273250.766   -16620689.61244 -12735450.10642  21273252.755    21273248.341
  22406869.623    -9268837.55243  -7213223.51042  22406872.022    22406869.049
  22870683.843    -3484656.17643  -2700044.29542  22870686.573    22870683.917
  22711913.864   -12652334.46443  -9769864.65542  22711915.408    22711913.743
  22507280.145   -13711065.58343 -10424191.64942  22507282.695    22507278.537
  24037710.162    -4994205.93443  -3881288.77642  24037712.187    24037708.966
 04  1  9  1 47 30.0000000  0 10G10G15G29G 6G21G30G26G17G18G16
  23082712.173    -8166860.24843  -6206188.27142  23082713.727    23082711.443
  24664611.337    -1611967.24743  -1229706.90542  24664613.263    24664612.482
  23208629.761    -2372563.53143  -1839290.43442  23208632.048    23208628.041
  20309098.823   -25849792.17944 -20100874.59242  20309100.854    20309097.703
  21265868.244   -16659485.07644 -12765680.32642  21265870.192    21265865.799
  22425314.327    -9171909.84443  -7137695.43142  22425316.801    22425313.845
  22857192.171    -3555554.47243  -2755289.67642  22857194.962    22857192.133
  22724250.092   -12587506.92943  -9719349.68542  22724251.639    22724249.890
  22489470.151   -13804657.57943 -10497120.41542  22489472.726    22489468.378
  24023889.096    -5066835.22243  -3937883.00842  24023891.107    24023887.781
 04  1  9  1 48  0.0000000  0 10G10G15G29G 6G21G30G26G17G18G16
  23101149.465    -8069971.61143  -6130690.64642  23101150.888    23101148.876
  24649241.250    -1692737.26343  -1292644.61142  24649243.172    24649242.172
  23202268.956    -2405988.03143  -1865335.49542  23202271.310    23202267.806
  20308195.933   -25854536.82444 -20104571.71042  20308198.009    20308194.822
  21258526.039   -16698068.52044 -12795745.33042  21258527.960    21258523.645
  22443799.955    -9074768.05443  -7062000.52442  22443802.344    22443799.251
  22843769.602    -3626089.82143  -2810252.22242  22843772.478    22843769.553
  22736602.012   -12522598.99243  -9668772.07142  22736603.267    22736601.515
  22471713.917   -13897966.84743 -10569828.86842  22471716.514    22471712.073
  24010145.443    -5139058.41243  -3994160.78742  24010147.496    24010143.950
 04  1  9  1 48 30.0000000  0 10G10G15G29G 6G21G30G26G17G18G16
  23119632.724    -7972841.49543  -6055004.84242  23119634.148    23119632.269
  24633886.914    -1773424.01043  -1355517.33442  24633888.926    24633887.524
  23195993.875    -2438963.74743  -1891030.83742  23195996.143    23195992.601
  20307369.949   -25858877.39544 -20107953.97442  20307372.067    20307368.820
  21251223.626   -16736442.74944 -12825647.30242  21251225.523    21251221.273
  22462325.145    -8977417.79243  -6986143.18542  22462327.560    22462324.263
  22830416.383    -3696261.22043  -2864931.17142  22830418.969    22830416.001
  22748968.237   -12457613.50743  -9618134.03442  22748969.617    22748967.906
  22454011.382   -13990993.36343 -10642316.98742  22454013.969    22454009.709
  23996478.931    -5210875.90143  -4050122.46042  23996481.036    23996477.364
 04  1  9  1 49  0.0000000  0 10G10G15G29G 6G21G30G26G17G18G16
  23138161.632    -7875472.54743  -5979132.93342  23138162.956    23138160.963
  24618548.534    -1854027.23743  -1418324.99242  24618550.400    24618548.974
  23189804.725    -2471488.84943  -1916375.03242  23189807.097    23189802.796
  20306621.104   -25862812.63644 -20111020.39342  20306623.251    20306619.944
  21243960.998   -16774608.13444 -12855386.55342  21243962.840    21243958.581
  22480889.462    -8879861.90943  -6910125.62242  22480891.938    22480888.474
  22817132.995    -3766065.31643  -2919323.92542  22817135.667    22817132.423
  22761349.022   -12392551.25643  -9567436.17142  22761350.565    22761348.758
  22436363.011   -14083735.31343 -10714583.39242  22436365.555    22436361.423
  23982890.232    -5282285.30043  -4105766.13542  23982892.226    23982888.557
 04  1  9  1 49 30.0000000  0 10G10G15G29G 6G21G30G26G17G18G16
  23156735.753    -7777865.14943  -5903075.22542  23156737.052    23156735.063
  24603226.425    -1934544.41943  -1481065.64042  24603228.410    24603226.837
  23183702.077    -2503558.68543  -1941364.47642  23183704.663    23183699.752
  20305950.068   -25866339.00044 -20113768.21142  20305952.218    20305948.900
  21236738.451   -16812562.53644 -12884961.39042  21236740.314    21236736.091
  22499492.695    -8782100.96043  -6833948.26442  22499495.290    22499491.747
  22803920.870    -3835496.30143  -2973425.93842  22803923.550    22803920.056
  22773744.984   -12327410.29343  -9516676.97142  22773746.401    22773744.525
  22418769.686   -14176188.15443 -10786624.50642  22418772.162    22418768.187
  23969380.063    -5353282.17743  -4161088.35942  23969382.031    23969378.376
 04  1  9  1 50  0.0000000  0 10G10G15G29G 6G21G30G26G17G18G16
  23175353.391    -7680028.20243  -5826838.63742  23175354.743    23175352.680
  24587919.686    -2014981.81643  -1543744.12442  24587921.543    24587919.935
  23177685.189    -2535177.67243  -1966002.67642  23177687.738    23177682.677
  20305355.873   -25869461.34244 -20116201.19542  20305358.077    20305354.734
  21229554.888   -16850312.33844 -12914376.80142  21229556.724    21229552.548
  22518133.253    -8684144.27243  -6757618.37942  22518135.892    22518132.397
  22790779.101    -3904557.02043  -3027239.43842  22790781.673    22790778.208
  22786154.609   -12262197.35843  -9465861.69142  22786155.997    22786154.080
  22401230.728   -14268356.23543 -10858443.73642  22401233.044    22401229.142
  23955947.550    -5423870.41543  -4216092.15842  23955949.434    23955945.992
 04  1  9  1 50 30.0000000  0 10G10G15G29G 6G21G30G26G17G18G16
  23194016.029    -7581954.50943  -5750417.58542  23194017.446    23194015.323
  24572630.107    -2095328.98443  -1606352.30542  24572632.042    24572630.360
  23171756.358    -2566333.64543  -1990280.03042  23171758.879    23171753.977
  20304840.747   -25872168.50844 -20118310.67242  20304842.954    20304839.598
  21222412.224   -16887847.39144 -12943624.87542  21222414.030    21222409.856
  22536812.374    -8585984.64143  -6681130.35342  22536815.035    22536811.708
  22777710.044    -3973233.96943  -3080753.90042  22777712.691    22777709.486
  22798579.536   -12196902.68343  -9414982.71442  22798581.054    22798579.199
  22383748.220   -14360227.55343 -10930031.71642  22383750.491    22383746.656
  23942595.057    -5494037.95743  -4270768.16242  23942596.872    23942593.546
 04  1  9  1 51  0.0000000  0 10G10G15G29G 6G21G30G26G17G18G16
  23212721.637    -7483655.35543  -5673820.83142  23212723.119    23212720.798
  24557355.979    -2175594.57243  -1668896.89142  24557357.928    24557356.304
  23165914.506    -2597033.52943  -2014201.99642  23165917.081    23165912.324
  20304403.188   -25874467.85344 -20120102.37342  20304405.422    20304402.076
  21215308.727   -16925176.64944 -12972712.58342  21215310.522    21215306.281
  22555527.860    -8487633.58943  -6604493.18142  22555530.524    22555527.436
  22764712.978    -4041532.53643  -3133973.50042  22764715.464    22764712.909
  22811018.710   -12131535.35643  -9364047.13442  22811019.895    22811018.083
  22366320.850   -14451808.64543 -11001393.55342  22366323.208    22366319.338
  23929321.424    -5563790.88643  -4325121.06642  23929323.262    23929320.004
 04  1  9  1 51 30.0000000  0 10G10G15G29G 6G21G30G26G17G18G16
  23231470.826    -7385129.00943  -5597047.06742  23231472.123    23231469.483
  24542098.331    -2255774.11643  -1731374.47542  24542100.080    24542098.353
  23160160.532    -2627270.91243  -2037763.56942  23160163.174    23160158.471
  20304044.324   -25876353.85444 -20121571.97842  20304046.536    20304043.182
  21208245.095   -16962295.86144 -13001636.62042  21208246.971    21208242.665
  22574280.198    -8389089.67243  -6527705.72242  22574282.727    22574279.798
  22751789.527    -4109444.82143  -3186892.11742  22751791.909    22751789.749
  22823472.236   -12066091.73743  -9313052.10142  22823473.382    22823471.508
  22348949.952   -14543093.17143 -11072524.29942  22348952.338    22348948.455
  23916127.809    -5633122.85843  -4379145.96242  23916129.712    23916126.505
 04  1  9  1 52  0.0000000  0 10G10G15G29G 6G21G30G26G17G18G16
  23250261.896    -7286382.55843  -5520101.77142  23250263.091    23250260.064
  24526856.018    -2335871.58643  -1793788.06042  24526858.026    24526855.966
  23154494.125    -2657047.88643  -2060966.38042  23154496.622    23154492.165
  20303763.519   -25877829.60544 -20122721.91042  20303765.693    20303762.337
  21201220.585   -16999209.42044 -13030400.40642  21201222.484    21201218.268
  22593067.773    -8290360.15743  -6450773.64242  22593070.326    22593067.497
  22738939.960    -4176971.56443  -3239510.33942  22738942.032    22738939.913
  22835939.230   -12000576.32443  -9262001.12442  22835940.451    22835938.650
  22331635.063   -14634083.33243 -11143425.67042  22331637.406    22331633.489
  23903013.986    -5702036.03243  -4432844.51342  23903015.960    23903012.553
 04  1  9  1 52 30.0000000  0 10G10G15G29G 6G21G30G26G17G18G16
  23269094.620    -7187415.68143  -5442984.72142  23269096.047    23269092.849
  24511630.418    -2415883.89043  -1856135.20942  24511632.355    24511629.698
  23148916.422    -2686359.79543  -2083806.82742  23148918.842    23148914.459
  20303561.546   -25878890.95944 -20123548.93642  20303563.693    20303560.342
  21194235.797   -17035914.98844 -13059002.13342  21194237.630    21194233.379
  22611890.708    -8191445.10243  -6373696.98242  22611893.193    22611890.346
  22726164.718    -4244106.85143  -3291823.49742  22726166.962    22726164.429
  22848420.688   -11934986.54443  -9210892.20142  22848421.778    22848419.951
  22314377.201   -14724774.05743 -11214093.71742  22314379.460    22314375.526
  23889981.166    -5770525.01643  -4486212.53242  23889983.101    23889979.518
 04  1  9  1 53  0.0000000  0 10G10G15G29G 6G21G30G26G17G18G16
  23287969.149    -7088229.71943  -5365696.97742  23287970.587    23287967.571
  24496421.404    -2495809.49743  -1918414.85042  24496423.314    24496420.293
  23143427.940    -2715203.25143  -2106282.23842  23143430.504    23143425.819
  20303438.920   -25879535.24644 -20124050.97642  20303441.107    20303437.720
  21187290.963   -17072410.55844 -13087440.21942  21187292.779    21187288.468
  22630748.655    -8092345.71143  -6296476.70242  22630751.118    22630748.331
  22713464.665    -4310845.52443  -3343827.61042  22713467.340    22713464.321
  22860916.545   -11869321.48943  -9159724.62342  22860917.503    22860915.681
  22297176.928   -14815161.60843 -11284525.53042  22297179.219    22297175.252
  23877029.435    -5838586.36443  -4539247.32342  23877031.301    23877027.854
 04  1  9  1 53 30.0000000  0 10G10G15G29G 6G21G30G26G17G18G16
  23306884.158    -6988830.23243  -5288242.80842  23306885.721    23306882.892
  24481227.980    -2575651.14943  -1980629.04842  24481230.117    24481227.146
  23138028.140    -2743578.97243  -2128393.18642  23138030.897    23138026.149
  20303395.386   -25879763.97744 -20124229.20342  20303397.577    20303394.203
  21180385.533   -17108698.80744 -13115716.76442  21180387.383    21180383.060
  22649640.677    -7993067.69543  -6219117.21142  22649643.148    22649640.326
  22700839.876    -4377187.02343  -3395522.22642  22700842.700    22700840.086
  22873425.867   -11803584.25043  -9108500.78642  22873426.864    22873425.085
  22280034.276   -14905246.73743 -11354721.68142  22280036.509    22280032.563
  23864158.701    -5906220.54543  -4591949.24942  23864160.719    23864157.560
 04  1  9  1 54  0.0000000  0 10G10G15G29G 6G21G30G26G17G18G16
  23325840.024    -6889216.24043  -5210621.50042  23325841.626    23325838.994
  24466051.123    -2655405.09243  -2042774.90842  24466053.469    24466050.969
  23132718.143    -2771481.87643  -2150135.66942  23132721.144    23132716.233
  20303431.766   -25879572.66144 -20124080.12142  20303433.940    20303430.594
  21173520.094   -17144776.83744 -13143829.49242  21173521.983    21173517.637
  22668566.757    -7893610.50343  -6141618.12742  22668569.223    22668566.354
  22688291.878    -4443124.46843  -3446902.04642  22688294.585    22688292.903
  22885949.292   -11737771.82943  -9057218.37442  22885950.423    22885948.727
  22262950.140   -14995024.16943 -11424678.08042  22262952.351    22262948.355
  23851370.572    -5973421.87043  -4644313.93442  23851372.498    23851369.377
 04  1  9  1 54 30.0000000  0 10G10G15G29G 6G21G30G26G17G18G16
  23344835.176    -6789396.69243  -5132840.04242  23344836.808    23344834.163
  24450889.722    -2735077.42143  -2104857.18342  24450892.010    24450889.919
  23127497.517    -2798916.18243  -2171512.97942  23127500.347    23127495.488
  20303547.122   -25878966.19844 -20123607.54542  20303549.279    20303545.984
  21166693.512   -17180650.80344 -13171783.21942  21166695.448    21166691.046
  22687525.194    -7793983.33243  -6063986.55742  22687527.731    22687524.750
  22675820.986    -4508660.77943  -3497969.30842  22675823.157    22675822.200
  22898486.130   -11671890.59443  -9005882.34342  22898487.123    22898485.531
  22245923.764   -15084498.00743 -11494397.90842  22245925.947    22245921.961
  23838664.198    -6040194.36643  -4696344.43942  23838665.968    23838662.986
 04  1  9  1 55  0.0000000  0 10G10G15G29G 6G21G30G26G17G18G16
  23363869.195    -6689372.74343  -5054899.29742  23363870.852    23363868.082
  24435744.493    -2814666.24243  -2166874.34442  24435746.636    24435744.535
  23122366.500    -2825878.36643  -2192522.43442  23122369.343    23122364.958
  20303742.012   -25877942.02044 -20122809.48442  20303744.141    20303740.854
  21159905.995   -17216319.33144 -13199576.85542  21159907.959    21159903.576
  22706515.839    -7694187.43243  -5986223.54142  22706518.325    22706515.178
  22663427.305    -4573791.11043  -3548720.17742  22663429.550    22663428.737
  22911036.261   -11605939.61243  -8954491.96842  22911037.201    22911035.498
  22228955.669   -15173665.19043 -11563878.79242  22228957.872    22228953.977
  23826040.390    -6106534.50343  -4748038.02942  23826041.990    23826038.785
 04  1  9  1 55 30.0000000  0 10G10G15G29G 6G21G30G26G17G18G16
  23382942.752    -6589141.16343  -4976796.76942  23382944.470    23382941.342
  24420616.299    -2894165.44443  -2228821.68542  24420618.327    24420616.386
  23117326.838    -2852360.87343  -2213158.10442  23117329.469    23117325.812
  20304017.754   -25876493.11944 -20121680.46242  20304019.827    20304016.551
  21153158.584   -17251776.75344 -13227206.00242  21153160.620    21153156.273
  22725539.117    -7594219.83043  -5908326.72642  22725541.617    22725538.337
  22651112.881    -4638506.06043  -3599147.38242  22651115.333    22651113.732
  22923600.678   -11539913.40243  -8903042.97042  22923601.644    22923599.845
  22212047.694   -15262517.15143 -11633114.05042  22212049.800    22212045.989
  23813500.079    -6172434.10343  -4799388.34342  23813501.747    23813498.333
 04  1  9  1 56  0.0000000  0 10G10G15G29G 6G21G30G26G17G18G16
  23402053.967    -6488710.70343  -4898539.29442  23402055.818    23402052.324
  24405503.893    -2973581.17443  -2290703.96142  24405505.906    24405503.846
  23112377.719    -2878367.95943  -2233423.36742  23112380.290    23112377.002
  20304373.320   -25874624.43444 -20120224.34042  20304375.406    20304372.134
  21146450.363   -17287029.06244 -13254675.32042  21146452.325    21146447.980
  22744593.255    -7494089.56543  -5830303.14342  22744595.816    22744592.438
  22638876.777    -4702808.56643  -3649253.16842  22638879.516    22638876.946
  22936178.154   -11473818.35543  -8851540.33942  22936179.171    22936177.351
  22195198.743   -15351058.44543 -11702107.21942  22195200.863    22195197.120
  23801042.818    -6237897.39143  -4850398.68242  23801044.602    23801040.823
 04  1  9  1 56 30.0000000  0 10G10G15G29G 6G21G30G26G17G18G16
  23421202.707    -6388083.71143  -4820128.64942  23421204.588    23421200.846
  24390407.649    -3052913.09443  -2352520.91442  24390409.456    24390407.784
  23107519.591    -2903897.54343  -2253316.52242  23107521.983    23107518.976
  20304809.005   -25872334.59444 -20118440.04142  20304811.099    20304807.855
  21139781.090   -17322076.21444 -13281984.77242  21139783.090    21139778.755
  22763677.847    -7393799.18443  -5752154.81042  22763680.394    22763677.121
  22626719.639    -4766694.99843  -3699034.74742  22626722.472    22626719.327
  22948768.632   -11407654.51443  -8799984.09142  22948769.742    22948767.877
  22178409.490   -15439286.72443 -11770856.48442  22178411.503    22178407.794
  23788669.217    -6302921.78743  -4901067.05442  23788671.064    23788666.686
 04  1  9  1 57  0.0000000  0 10G10G15G29G 6G21G30G26G17G18G16
  23440389.274    -6287256.60943  -4741562.06742  23440391.199    23440387.545
  24375328.166    -3132155.12043  -2414267.88942  24375330.078    24375328.625
  23102754.049    -2928941.85743  -2272831.51342  23102756.170    23102753.210
  20305326.330   -25869616.23944 -20116321.83742  20305328.367    20305325.120
  21133152.038   -17356912.10544 -13309129.60542  21133154.029    21133149.758
  22782793.638    -7293345.44943  -5673879.18942  22782796.171    22782792.949
  22614643.080    -4830155.91543  -3748484.77942  22614646.028    22614642.820
  22961373.458   -11341416.03343  -8748369.69242  22961374.510    22961372.589
  22161681.169   -15527193.88743 -11839355.53942  22161683.255    22161679.610
  23776380.674    -6367499.01243  -4951386.92942  23776382.603    23776377.978
 04  1  9  1 57 30.0000000  0 10G10G15G29G 6G21G30G26G17G18G16
  23459611.808    -6186240.74943  -4662848.41842  23459613.746    23459610.350
  24360264.385    -3211315.54343  -2475951.26242  24360266.182    24360264.927
  23098079.249    -2953507.74143  -2291973.69242  23098081.491    23098078.365
  20305923.672   -25866477.01544 -20113875.68742  20305925.741    20305922.482
  21126561.510   -17391545.65244 -13336116.77342  21126563.499    21126559.268
  22801938.265    -7192740.00043  -5595485.34042  22801940.808    22801937.615
  22602646.657    -4893196.58943  -3797607.37842  22602649.404    22602646.321
  22973990.451   -11275112.07943  -8696704.28642  22973991.715    22973989.788
  22145012.807   -15614786.42643 -11907609.42542  22145014.883    22145011.299
  23764176.058    -6431635.59943  -5001363.45142  23764178.004    23764173.166
 04  1  9  1 58  0.0000000  0 10G10G15G29G 6G21G30G26G17G18G16
  23478870.324    -6085035.30943  -4583987.04442  23478872.370    23478869.102
  24345216.700    -3290390.68243  -2537568.14042  24345218.475    24345217.287
  23093496.213    -2977589.93843  -2310738.99442  23093498.235    23093495.503
  20306602.018   -25862912.40044 -20111098.06342  20306604.041    20306600.795
  21120010.144   -17425973.20644 -13362943.42142  21120012.139    21120007.864
  22821111.810    -7091982.06343  -5516972.67442  22821114.434    22821111.253
  22590732.101    -4955810.29243  -3846397.21142  22590734.657    22590731.240
  22986620.753   -11208739.29443  -8644985.23742  22986621.959    22986620.077
  22128405.432   -15702059.16343 -11975614.12242  22128407.476    22128403.863
  23752056.347    -6495325.94343  -5050992.30642  23752058.311    23752053.299
 04  1  9  1 58 30.0000000  0 10G10G15G29G 6G21G30G26G17G18G16
  23498165.481    -5983639.73143  -4504977.47842  23498167.406    23498164.117
  24330185.785    -3369377.24443  -2599116.03042  24330187.809    24330186.538
  23089005.661    -3001183.51153  -2329123.59252  23089007.899    23089005.691
  20307361.935   -25858918.28644 -20107985.76542  20307364.027    20307360.832
  21113498.578   -17460191.91244 -13389607.33442  21113500.545    21113496.175
  22840314.508    -6991071.48243  -5438341.05042  22840317.130    22840313.875
  22578899.767    -5017990.72843  -3894849.44042  22578902.539    22578898.996
  22999264.838   -11142295.03843  -8593210.48742  22999265.891    22999263.917
  22111859.922   -15789006.90743 -12043365.56542  22111861.960    22111858.244
  23740022.287    -6558564.93343  -5100269.44042  23740024.280    23740019.405
 04  1  9  1 59  0.0000000  0 10G10G15G29G 6G21G30G26G17G18G16
  23517494.939    -5882062.22243  -4425826.16142  23517496.875    23517493.608
  24315170.759    -3448280.83443  -2660599.30442  24315172.766    24315171.695
  23084608.048    -3024292.41743  -2347130.51842  23084610.195    23084608.088
  20308202.949   -25854499.00944 -20104542.17042  20308204.979    20308201.785
  21107025.579   -17494207.48244 -13416112.96142  21107027.580    21107023.129
  22859544.699    -6890016.59843  -5359596.99342  22859547.247    22859543.843
  22567149.268    -5079740.19243  -3942965.83142  22567152.149    22567148.665
  23011921.244   -11075785.08743  -8541384.55942  23011922.294    23011920.265
  22095375.366   -15875633.31243 -12110866.61642  22095377.515    22095373.798
  23728073.413    -6621356.22743  -5149197.69842  23728075.445    23728070.692
 04  1  9  1 59 30.0000000  0 10G10G15G29G 6G21G30G26G17G18G16
  23536859.140    -5780302.44043  -4346532.80142  23536861.132    23536857.674
  24300172.171    -3527098.37243  -2722015.48742  24300174.082    24300173.356
  23080304.073    -3046912.16643  -2364756.25042  23080306.149    23080303.799
  20309125.607   -25849650.67244 -20100764.23742  20309127.608    20309124.413
  21100591.873   -17528016.95844 -13442457.98742  21100593.829    21100589.313
  22878802.106    -6788817.43243  -5280740.51142  22878804.720    22878801.315
  22555481.768    -5141052.20743  -3990741.38542  22555484.705    22555481.250
  23024590.556   -11009206.78043  -8489505.34042  23024591.721    23024589.719
  22078952.922   -15961933.28043 -12178113.31242  22078955.081    22078951.350
  23716210.733    -6683694.92043  -5197773.28842  23716212.660    23716207.967
 04  1  9  2  0  0.0000000  0 10G10G15G29G 6G21G30G26G17G18G16
  23556257.704    -5678361.84643  -4267098.55442  23556259.586    23556255.963
  24285190.156    -3605828.52943  -2783363.58542  24285192.052    24285191.685
  23076093.628    -3069039.77543  -2381998.54742  23076095.579    23076093.077
  20310130.310   -25844371.03944 -20096650.23842  20310132.293    20310129.124
  21094197.519   -17561619.33344 -13468641.64542  21094199.513    21094194.939
  22898086.745    -6687475.74643  -5201772.97542  22898089.376    22898085.872
  22543898.171    -5201922.65943  -4038172.84942  22543901.197    22543897.839
  23037273.176   -10942559.31943  -8437572.24742  23037274.357    23037272.422
  22062593.131   -16047903.91443 -12245103.36642  22062595.300    22062591.671
  23704434.712    -6745577.69043  -5245993.62542  23704436.730    23704431.952
 04  1  9  2  0 30.0000000  0 10G10G15G29G 6G21G30G26G17G18G16
  23575689.617    -5576245.79743  -4187527.58442  23575691.247    23575687.387
  24270224.807    -3684473.90643  -2844645.63542  24270226.538    24270225.920
  23071976.393    -3090676.63243  -2398858.41142  23071978.463    23071975.803
  20311216.740   -25838661.73644 -20092201.42442  20311218.735    20311215.583
  21087842.099   -17595017.36144 -13494666.07042  21087844.063    21087839.508
  22917397.469    -6585997.13143  -5122698.75142  22917400.045    22917396.564
  22532398.974    -5262351.18043  -4085259.94442  22532401.765    22532398.294
  23049968.621   -10875845.90243  -8385587.77242  23049969.628    23049967.635
  22046295.966   -16133546.27243 -12311837.63542  22046298.044    22046294.385
  23692745.304    -6807005.37743  -5293859.34442  23692747.370    23692742.446
 04  1  9  2  1  0.0000000  0 10G10G15G29G 6G21G30G26G17G18G16
  23595154.803    -5473956.39043  -4107821.55042  23595156.251    23595152.203
  24255275.020    -3763034.05543  -2905861.28342  24255277.088    24255276.117
  23067952.802    -3111820.60643  -2415334.18842  23067955.085    23067952.149
  20312385.218   -25832521.47244 -20087416.80242  20312387.224    20312384.027
  21081525.621   -17628210.63244 -13520530.94042  21081527.581    21081523.040
  22936733.904    -6484384.23343  -5043519.86742  22936736.442    22936732.788
  22520984.243    -5322334.11343  -4131999.84242  22520987.011    22520983.582
  23062676.484   -10809066.43343  -8333551.81542  23062677.423    23062675.410
  22030061.741   -16218857.93043 -12378314.21142  22030063.779    22030060.061
  23681143.213    -6867975.49343  -5341368.51742  23681145.197    23681140.075
 04  1  9  2  1 30.0000000  0 10G10G15G29G 6G21G30G26G17G18G16
  23614652.258    -5371496.88943  -4027982.96642  23614653.644    23614649.435
  24240341.561    -3841509.15643  -2967010.66042  24240343.557    24240342.699
  23064023.518    -3132470.60143  -2431425.06942  23064025.680    23064022.657
  20313635.729   -25825949.79244 -20082296.00642  20313637.795    20313634.591
  21075248.026   -17661199.89044 -13546236.84342  21075249.949    21075245.421
  22956095.028    -6382640.30243  -4964238.89342  22956097.647    22956094.031
  22509655.373    -5381868.67343  -4178390.39542  22509657.796    22509654.318
  23075396.598   -10742221.68543  -8281464.99042  23075397.590    23075395.534
  22013890.637   -16303837.71043 -12444532.18542  22013892.663    22013888.924
  23669628.469    -6928486.41743  -5388519.89042  23669630.438    23669625.034
 04  1  9  2  2  0.0000000  0 10G10G15G29G 6G21G30G26G17G18G16
  23634181.553    -5268868.50643  -3948012.80842  23634183.075    23634179.258
  24225424.755    -3919897.71043  -3028092.60342  24225426.576    24225425.819
  23060188.321    -3152623.96443  -2447128.97742  23060190.420    23060187.698
  20314968.773   -25818944.44844 -20076837.29542  20314970.857    20314967.666
  21069009.346   -17693984.15544 -13571783.00842  21069011.310    21069006.782
  22975480.993    -6280766.88543  -4884857.02042  22975483.500    22975479.889
  22498412.276    -5440950.59143  -4224428.19842  22498415.061    22498411.005
  23088129.286   -10675310.67143  -8229326.51942  23088130.401    23088128.338
  21997783.259   -16388482.22243 -12510488.90842  21997785.295    21997781.577
  23658201.311    -6988535.33143  -5435311.20942  23658203.355    23658198.045
 04  1  9  2  2 30.0000000  0 10G10G15G29G 6G21G30G26G17G18G16
  23653743.260    -5166070.78643  -3867910.65842  23653744.798    23653741.380
  24210524.745    -3998196.90243  -3089104.90242  24210526.594    24210526.168
  23056448.453    -3172275.82543  -2462442.11342  23056450.420    23056447.987
  20316385.091   -25811501.49544 -20071037.58542  20316387.165    20316384.026
  21062810.265   -17726560.32044 -13597167.00942  21062812.234    21062807.767
  22994891.429    -6178763.98443  -4805374.24742  22994893.984    22994890.385
  22487256.513    -5499573.60243  -4270108.40242  22487259.328    22487254.917
  23100875.082   -10608330.75643  -8177134.36542  23100876.296    23100874.250
  21981740.643   -16472786.61743 -12576180.60442  21981742.656    21981738.992
  23646863.219    -7048117.19143  -5481738.64642  23646865.202    23646859.968
 04  1  9  2  3  0.0000000  0 10G10G15G29G 6G21G30G26G17G18G16
  23673335.042    -5063115.56343  -3787685.84042  23673336.610    23673333.899
  24195640.312    -4076415.20743  -3150054.19442  24195642.217    24195641.726
  23052802.733    -3191434.01243  -2477370.55942  23052804.680    23052802.214
  20317883.192   -25803629.03444 -20064903.19642  20317885.231    20317882.116
  21056649.074   -17758937.65444 -13622396.08742  21056651.010    21056646.599
  23014324.296    -6076643.44343  -4725799.80142  23014326.860    23014323.296
  22476187.040    -5557743.53643  -4315435.59742  22476189.825    22476185.549
  23113632.175   -10541291.16443  -8124895.71942  23113633.575    23113631.510
  21965761.424   -16556758.19143 -12641612.96342  21965763.378    21965759.784
  23635612.649    -7107238.99743  -5527807.57242  23635614.498    23635609.648
 04  1  9  2  3 30.0000000  0 10G10G15G29G 6G21G30G26G17G18G16
  23692957.923    -4959996.82943  -3707333.56542  23692959.600    23692957.382
  24180773.120    -4154544.45343  -3210934.08242  24180774.798    24180774.095
  23049253.000    -3210088.51043  -2491906.52142  23049254.947    23049252.417
  20319464.861   -25795317.55944 -20058426.71542  20319466.895    20319463.762
  21050527.226   -17791107.88144 -13647463.78342  21050529.170    21050524.765
  23033780.551    -5974399.71943  -4646129.37542  23033783.144    23033779.685
  22465205.793    -5615448.99643  -4360400.85842  22465208.820    22465204.893
  23126402.290   -10474183.60243  -8072604.10242  23126403.724    23126401.647
  21949847.439   -16640386.50543 -12706777.84542  21949849.387    21949845.903
  23624451.683    -7165890.41243  -5573509.95542  23624453.425    23624448.614
 04  1  9  2  4  0.0000000  0 10G10G15G29G 6G21G30G26G17G18G16
  23712610.709    -4856721.85543  -3626859.56742  23712612.226    23712610.321
  24165921.589    -4232589.34643  -3271748.26242  24165923.151    24165922.406
  23045798.795    -3228242.51543  -2506052.47842  23045800.734    23045797.862
  20321129.300   -25786571.02444 -20051611.23342  20321131.387    20321128.182
  21044444.030   -17823075.26744 -13672373.41942  21044445.949    21044441.517
  23053258.983    -5872040.28543  -4566368.79342  23053261.472    23053257.988
  22454312.981    -5672691.50543  -4405005.38842  22454315.882    22454312.198
  23139184.294   -10407013.16543  -8020263.48642  23139185.774    23139183.885
  21933998.132   -16723674.62743 -12771677.64942  21934000.093    21933996.742
  23613379.460    -7224074.36543  -5618848.09842  23613381.375    23613376.662
 04  1  9  2  4 30.0000000  0 10G10G15G29G 6G21G30G26G17G18G16
  23732292.989    -4753289.60543  -3546263.00542  23732294.592    23732292.746
  24151086.895    -4310545.96243  -3332493.64442  24151088.443    24151087.441
  23042440.476    -3245891.16843  -2519804.65742  23042442.503    23042439.709
  20322877.445   -25777384.81444 -20044453.14242  20322879.509    20322876.277
  21038400.061   -17854836.52444 -13697122.42742  21038401.940    21038397.477
  23072759.419    -5769564.52543  -4486517.55442  23072761.917    23072758.437
  22443509.109    -5729464.43843  -4449243.99442  22443512.022    22443508.721
  23151979.023   -10339776.55043  -7967871.31742  23151980.483    23151978.687
  21918214.622   -16806617.20443 -12836308.19842  21918216.516    21918213.323
  23602397.467    -7281785.36543  -5663817.66942  23602399.369    23602394.896
 04  1  9  2  5  0.0000000  0 10G10G15G29G 6G21G30G26G17G18G16
  23752004.298    -4649707.44743  -3465549.64142  23752005.623    23752003.568
  24136267.741    -4388418.98543  -3393173.87742  24136269.283    24136268.732
  23039177.614    -3263037.58643  -2533165.47642  23039179.796    23039176.896
  20324708.412   -25767762.84544 -20036955.49642  20324710.496    20324707.281
  21032394.437   -17886396.70644 -13721714.75842  21032396.262    21032391.670
  23092280.625    -5666980.10343  -4406581.66442  23092283.124    23092279.586
  22432794.643    -5785769.55143  -4493118.05742  22432797.167    22432793.976
  23164785.402   -10272479.04843  -7915431.68742  23164786.927    23164784.978
  21902496.369   -16889217.02343 -12900671.65842  21902498.246    21902495.100
  23591504.968    -7339026.05943  -5708420.79542  23591506.915    23591502.473
 04  1  9  2  5 30.0000000  0 10G10G15G29G 6G21G30G26G17G18G16
  23771744.224    -4545974.02843  -3384718.36742  23771745.647    23771742.984
  24121465.523    -4466204.76143  -3453786.13442  24121466.844    24121466.730
  23036011.454    -3279676.64443  -2546130.97742  23036013.772    23036010.551
  20326623.212   -25757700.23644 -20029114.49442  20326625.321    20326622.161
  21026427.673   -17917752.04344 -13746147.46842  21026429.544    21026424.909
  23111822.706    -5564285.99443  -4326560.29342  23111825.107    23111821.598
  22422170.571    -5841599.71743  -4536622.01442  22422173.087    22422169.740
  23177603.991   -10205116.51843  -7862941.40242  23177605.665    23177603.631
  21886844.494   -16971468.70943 -12964763.85342  21886846.305    21886843.033
  23580702.996    -7395791.11343  -5752653.25642  23580704.929    23580700.469
 04  1  9  2  6  0.0000000  0 10G10G15G29G 6G21G30G26G17G18G16
  23791512.425    -4442091.95343  -3303771.28642  23791513.819    23791510.977
  24106680.038    -4543902.77043  -3514330.02442  24106681.333    24106681.414
  23032941.962    -3295806.83543  -2558699.94642  23032944.382    23032940.719
  20328622.110   -25747196.14444 -20020929.48042  20328624.224    20328621.071
  21020499.909   -17948902.39044 -13770420.45242  21020501.808    21020497.193
  23131385.143    -5461484.99443  -4246455.63242  23131387.553    23131384.054
  22411637.644    -5896951.94643  -4579753.59742  22411639.926    22411636.772
  23190435.084   -10137689.43343  -7810400.80742  23190436.693    23190434.578
  21871259.209   -17053370.36843 -13028583.29142  21871261.035    21871257.653
  23569991.928    -7452078.43943  -5796513.52142  23569993.918    23569989.233
 04  1  9  2  6 30.0000000  0 10G10G15G29G 6G21G30G26G17G18G16
  23811307.341    -4338069.31343  -3222714.64842  23811308.792    23811305.389
  24091910.278    -4621518.74443  -3574809.99142  24091911.491    24091911.530
  23029968.527    -3311432.87343  -2570876.08042  23029970.971    23029966.884
  20330704.062   -25736255.61744 -20012404.38542  20330706.203    20330702.997
  21014610.054   -17979853.88944 -13794538.48142  21014611.909    21014607.307
  23150966.158    -5358585.76943  -4166274.44342  23150968.641    23150965.255
  22401194.778    -5951829.03243  -4622514.95742  22401197.184    22401194.409
  23203277.197   -10070204.16243  -7757814.88342  23203278.780    23203276.486
  21855739.594   -17134925.95243 -13092133.06742  21855741.538    21855738.090
  23559370.868    -7507892.14943  -5840004.68742  23559372.874    23559368.001
 04  1  9  2  7  0.0000000  0 10G10G15G29G 6G21G30G26G17G18G16
  23831130.355    -4233900.00343  -3141543.77542  23831131.650    23831128.049
  24077157.634    -4699044.11843  -3635219.34342  24077158.830    24077158.872
  23027092.935    -3326544.45643  -2582651.31942  23027095.439    23027090.899
  20332870.795   -25724869.19144 -20003531.84442  20332872.988    20332869.755
  21008759.574   -18010598.11344 -13818495.00442  21008761.433    21008756.848
  23170567.015    -5255582.47943  -4086012.13842  23170569.469    23170566.271
  22390844.622    -6006219.45543  -4664897.06642  22390846.977    22390844.592
  23216132.005   -10002651.96143  -7705176.79242  23216133.619    23216131.199
  21840287.901   -17216125.09643 -13155405.09942  21840289.853    21840286.374
  23548841.787    -7563221.86543  -5883118.74942  23548843.891    23548838.961
 04  1  9  2  7 30.0000000  0 10G10G15G29G 6G21G30G26G17G18G16
  23850979.257    -4129594.02443  -3060266.35542  23850980.637    23850977.090
  24062421.034    -4776485.85643  -3695563.52742  24062422.270    24062422.139
  23024314.181    -3341147.79443  -2594030.51442  23024316.555    23024311.893
  20335121.238   -25713043.10244 -19994316.70342  20335123.397    20335120.156
  21002947.281   -18041141.71544 -13842295.19142  21002949.128    21002944.604
  23190185.615    -5152485.38643  -4005676.76242  23190188.126    23190185.163
  22380586.358    -6060127.39243  -4706903.18642  22380588.803    22380586.151
  23228998.073    -9935040.34343  -7652492.41042  23228999.734    23228997.254
  21824902.916   -17296973.37343 -13218403.71842  21824904.908    21824901.387
  23538403.937    -7618073.06643  -5925859.92542  23538405.985    23538401.122
 04  1  9  2  8  0.0000000  0 10G10G15G29G 6G21G30G26G17G18G16
  23870854.917    -4025147.50243  -2978879.47542  23870856.304    23870852.802
  24047701.226    -4853837.75743  -3755837.72442  24047702.653    24047702.598
  23021633.274    -3355235.30543  -2605007.74442  23021635.839    23021630.872
  20337456.601   -25700770.52044 -19984753.65142  20337458.756    20337455.541
  20997174.333   -18071478.96644 -13865934.58442  20997176.159    20997171.644
  23209822.701    -5049291.05943  -3925265.62042  23209825.208    23209822.553
  22370421.505    -6113543.64943  -4748526.19242  22370424.045    22370421.250
  23241876.567    -9867363.53443  -7599757.20942  23241878.143    23241875.662
  21809586.280   -17377462.65143 -13281122.60542  21809588.309    21809584.699
  23528058.799    -7672437.71843  -5968221.97542  23528060.823    23528055.970
 04  1  9  2  8 30.0000000  0 10G10G15G29G 6G21G30G26G17G18G16
  23890754.903    -3920571.06943  -2897391.29542  23890756.543    23890753.295
  24032997.223    -4931107.86043  -3816048.19242  24032998.746    24032998.652
  23019049.094    -3368813.63643  -2615588.28642  23019051.650    23019047.137
  20339875.589   -25688058.44644 -19974848.13442  20339877.754    20339874.563
  20991439.071   -18101617.89244 -13889419.44042  20991440.906    20991436.372
  23229476.257    -4946010.43943  -3844787.21242  23229478.833    23229476.279
  22360348.948    -6166473.24243  -4789769.99142  22360351.555    22360348.927
  23254765.835    -9799629.47843  -7546977.42542  23254767.377    23254764.941
  21794336.811   -17457599.43943 -13343566.82342  21794338.788    21794335.093
  23517805.198    -7726322.00243  -6010209.72642  23517807.161    23517802.249
 04  1  9  2  9  0.0000000  0 10G10G15G29G 6G21G30G26G17G18G16
  23910680.823    -3815859.22743  -2815797.63142  23910682.619    23910679.544
  24018310.384    -5008288.23343  -3876188.71642  24018312.028    24018311.723
  23016563.732    -3381873.72143  -2625764.98742  23016566.065    23016561.565
  20342379.888   -25674898.38044 -19964593.53742  20342382.017    20342378.857
  20985742.939   -18131551.01844 -13912743.93342  20985744.797    20985740.290
  23249147.503    -4842638.39643  -3764237.60642  23249149.858    23249147.487
  22350371.086    -6218905.46243  -4830626.23742  22350373.425    22350371.360
  23267667.503    -9731830.90043  -7494147.36342  23267668.966    23267666.604
  21779156.074   -17537374.23243 -13405728.96142  21779158.113    21779154.407
  23507644.381    -7779716.64843  -6051815.93242  23507646.493    23507641.486
 04  1  9  2  9 30.0000000  0 10G10G15G29G 6G21G30G26G17G18G16
  23930630.943    -3711019.49443  -2734104.33342  23930632.854    23930630.014
  24003639.646    -5085383.78943  -3936263.13142  24003641.394    24003640.752
  23014176.422    -3394419.59743  -2635540.98142  23014178.583    23014173.965
  20344968.549   -25661294.78344 -19953993.33442  20344970.696    20344967.524
  20980085.074   -18161283.27544 -13935911.91142  20980086.923    20980082.412
  23268834.440    -4739183.05743  -3683623.08242  23268836.906    23268834.549
  22340487.900    -6270842.61843  -4871096.73342  22340489.922    22340488.102
  23280580.626    -9663972.93943  -7441271.03342  23280581.999    23280579.693
  21764043.621   -17616790.50343 -13467611.74242  21764045.702    21764041.913
  23497576.202    -7832625.16143  -6093043.30542  23497578.339    23497573.406
 04  1  9  2 10  0.0000000  0 10G10G15G29G 6G21G30G26G17G18G16
  23950605.747    -3606051.82843  -2652311.30742  23950607.498    23950604.458
  23988985.578    -5162391.67943  -3996269.23642  23988987.506    23988986.322
  23011887.523    -3406447.50043  -2644913.33542  23011889.923    23011884.943
  20347642.267   -25647244.24944 -19943044.86642  20347644.385    20347641.203
  20974465.909   -18190812.10644 -13958921.36942  20974467.779    20974463.207
  23288537.237    -4635644.49143  -3602943.69342  23288539.734    23288537.338
  22330699.677    -6322279.18743  -4911177.14142  22330701.918    22330700.034
  23293505.374    -9596053.22943  -7388346.57942  23293506.847    23293504.501
  21749000.236   -17695843.77043 -13529211.65642  21749002.352    21748998.528
  23487601.582    -7885042.96543  -6133888.34942  23487603.625    23487598.559
 04  1  9  2 10 30.0000000  0 10G10G15G29G 6G21G30G26G17G18G16
  23970603.194    -3500962.32243  -2570423.47342  23970605.068    23970602.073
  23974347.504    -5239315.25943  -4056209.65242  23974349.397    23974348.080
  23009696.755    -3417959.49143  -2653883.70242  23009699.271    23009694.171
  20350400.469   -25632749.38444 -19931750.15842  20350402.620    20350399.422
  20968884.809   -18220141.01744 -13981775.04842  20968886.653    20968882.117
  23308254.738    -4532029.00143  -3522204.35542  23308257.243    23308254.780
  22321006.719    -6373215.40443  -4950867.66442  22321008.948    22321006.955
  23306441.449    -9528075.43243  -7335376.85642  23306442.703    23306440.237
  21734025.670   -17774535.73743 -13590530.04242  21734027.743    21734023.907
  23477719.838    -7936971.71243  -6174352.29142  23477721.965    23477716.709
 04  1  9  2 11  0.0000000  0 10G10G15G29G 6G21G30G26G17G18G16
  23990624.905    -3395748.79143  -2488438.85042  23990626.587    23990623.108
  23959726.368    -5316149.79343  -4116080.69442  23959728.226    23959726.924
  23007605.220    -3428949.76443  -2662447.53342  23007607.658    23007602.550
  20353244.335   -25617804.75344 -19920104.99142  20353246.466    20353243.233
  20963342.467   -18249265.60044 -14004469.51642  20963344.344    20963339.870
  23327987.098    -4428334.65943  -3441403.58042  23327989.620    23327987.162
  22311410.424    -6423644.14143  -4990162.76942  22311412.718    22311410.521
  23319389.206    -9460034.84843  -7282358.22742  23319390.575    23319387.896
  21719121.098   -17852859.80943 -13651561.75542  21719123.162    21719119.280
  23467932.432    -7988405.16343  -6214430.29142  23467934.504    23467929.298
 04  1  9  2 11 30.0000000  0 10G10G15G29G 6G21G30G26G17G18G16
  24010668.897    -3290414.52843  -2406360.22642  24010671.299    24010667.194
  23945122.038    -5392896.06343  -4175882.93442  23945123.996    23945122.601
  23005612.873    -3439418.38643  -2670604.87642  23005615.204    23005610.372
  20356173.800   -25602410.68544 -19908109.61942  20356175.907    20356172.647
  20957838.950   -18278186.54644 -14027005.30642  20957840.798    20957836.381
  23347733.737    -4324565.41543  -3360544.43342  23347736.261    23347733.669
  22301910.824    -6473563.34743  -5029060.83042  22301913.159    22301911.131
  23332348.548    -9391933.01043  -7229291.84342  23332349.992    23332347.224
  21704286.469   -17930815.78843 -13712306.64742  21704288.606    21704284.693
  23458239.135    -8039343.00143  -6254122.09042  23458241.218    23458236.308
 04  1  9  2 12  0.0000000  0 10G10G15G29G 6G21G30G26G17G18G16
  24030734.943    -3184967.54543  -2324193.74242  24030737.193    24030732.895
  23930533.409    -5469559.67443  -4235620.75942  23930535.534    23930534.085
  23003719.299    -3449369.62843  -2678359.07542  23003721.598    23003716.804
  20359187.845   -25586572.07044 -19895767.84542  20359189.956    20359186.650
  20952373.151   -18306909.55944 -14049386.86942  20952374.944    20952370.562
  23367493.084    -4220729.69943  -3279633.49742  23367495.579    23367492.805
  22292508.094    -6522975.69243  -5067563.96942  22292509.992    22292508.165
  23345318.458    -9323775.33843  -7176181.94542  23345319.881    23345317.261
  21689521.200   -18008407.80943 -13772767.93242  21689523.334    21689519.406
  23448639.538    -8089788.89543  -6293430.57642  23448641.568    23448636.857
 04  1  9  2 12 30.0000000  0 10G10G15G29G 6G21G30G26G17G18G16
  24050822.266    -3079405.65943  -2241937.74042  24050824.809    24050820.509
  23915961.412    -5546135.72543  -4295290.36042  23915963.561    23915962.127
  23001925.283    -3458797.87443  -2685705.75042  23001927.604    23001922.826
  20362287.410   -25570283.52744 -19883075.47642  20362289.549    20362286.248
  20946945.835   -18335430.15944 -14071610.69742  20946947.613    20946943.282
  23387265.436    -4116825.41143  -3198669.14642  23387267.934    23387265.010
  22283203.337    -6571873.84343  -5105666.38642  22283205.156    22283203.208
  23358299.945    -9255557.45643  -7123025.13042  23358301.256    23358298.672
  21674826.483   -18085629.18843 -13832940.40242  21674828.623    21674824.575
  23439134.765    -8139736.62443  -6332350.85742  23439136.687    23439132.293
 04  1  9  2 13  0.0000000  0 10G10G15G29G 6G21G30G26G17G18G16
  24070931.401    -2973732.28543  -2159594.85542  24070933.694    24070929.932
  23901406.034    -5622625.20843  -4354892.52442  23901408.282    23901406.560
  23000230.871    -3467702.79743  -2692644.61842  23000233.220    23000228.417
  20365472.552   -25553545.34044 -19870032.73342  20365474.700    20365471.388
  20941556.904   -18363749.11744 -14093677.40742  20941558.662    20941554.381
  23407050.283    -4012856.43843  -3117654.36342  23407052.701    23407049.504
  22273996.581    -6620255.93143  -5143366.66342  22273998.564    22273996.480
  23371292.425    -9187280.60543  -7069822.36742  23371293.756    23371291.357
  21660202.335   -18162479.56543 -13892823.77342  21660204.470    21660200.388
  23429724.907    -8189185.61343  -6370882.52342  23429726.865    23429722.447
 04  1  9  2 13 30.0000000  0 10G10G15G29G 6G21G30G26G17G18G16
  24091061.636    -2867947.03343  -2077164.78242  24091063.852    24091060.835
  23886867.580    -5699025.68343  -4414425.31342  23886869.926    23886867.881
  22998636.366    -3476081.12743  -2699173.17842  22998638.800    22998634.236
  20368743.948   -25536354.39344 -19856637.19642  20368746.045    20368742.675
  20936206.748   -18391864.32344 -14115585.35142  20936208.512    20936204.259
  23426847.167    -3908823.16643  -3036589.48242  23426849.717    23426846.370
  22264888.889    -6668116.66443  -5180660.73442  22264891.042    22264888.957
  23384296.661    -9118942.43343  -7016571.83142  23384297.945    23384295.675
  21645649.513   -18238954.75243 -13952414.79842  21645651.681    21645647.565
  23420410.927    -8238131.79643  -6409022.39742  23420412.774    23420408.424
 04  1  9  2 14  0.0000000  0 10G10G15G29G 6G21G30G26G17G18G16
  24111211.858    -2762056.93343  -1994652.98842  24111214.016    24111211.461
  23872345.151    -5775341.10743  -4473891.81342  23872347.519    23872345.592
  22997141.479    -3483935.92343  -2705293.76042  22997143.882    22997139.681
  20372100.793   -25518714.16044 -19842891.56042  20372102.942    20372099.502
  20930894.504   -18419779.94444 -14137337.77042  20930896.297    20930892.073
  23446655.225    -3804732.44343  -2955479.86142  23446657.722    23446654.293
  22255880.436    -6715457.57843  -5217549.74242  22255882.391    22255880.346
  23397311.744    -9050547.15643  -6963276.80442  23397313.046    23397310.768
  21631167.677   -18315057.10543 -14011715.30242  21631169.772    21631165.740
  23411192.016    -8286577.59843  -6446772.36342  23411193.944    23411189.515
 04  1  9  2 14 30.0000000  0 10G10G15G29G 6G21G30G26G17G18G16
  24131381.585    -2656064.78943  -1912061.74142  24131383.530    24131381.422
  23857838.821    -5851572.22343  -4533292.66342  23857841.087    23857839.058
  22995746.181    -3491266.75943  -2711006.08342  22995748.585    22995744.718
  20375543.106   -25500624.74444 -19828795.90642  20375545.289    20375541.831
  20925620.130   -18447496.56544 -14158935.12342  20925621.952    20925617.774
  23466473.355    -3700587.85543  -2874328.25842  23466476.035    23466472.511
  22246971.296    -6762276.35943  -5254031.86142  22246973.435    22246970.689
  23410337.909    -8982095.67943  -6909937.99242  23410338.932    23410336.540
  21616756.997   -18390785.75043 -14070724.60342  21616759.052    21616755.039
  23402068.496    -8334522.32043  -6484131.86542  23402070.336    23402065.926
 04  1  9  2 15  0.0000000  0 10G10G15G29G 6G21G30G26G17G18G16
  24151571.028    -2549968.89843  -1829389.62642  24151573.148    24151570.822
  23843349.146    -5927714.71443  -4592624.42442  23843351.387    23843349.460
  22994451.879    -3498068.62043  -2716306.23742  22994454.226    22994450.516
  20379071.813   -25482081.28744 -19814346.45542  20379073.980    20379070.568
  20920384.473   -18475009.99444 -14180374.14942  20920386.286    20920382.143
  23486302.023    -3596387.97543  -2793133.56242  23486304.843    23486301.297
  22238162.922    -6808566.41243  -5290101.97842  22238165.187    22238161.678
  23423375.312    -8913584.01243  -6856552.27842  23423376.350    23423373.787
  21602418.535   -18466135.19144 -14129438.42342  21602420.558    21602416.526
  23393041.383    -8381960.31243  -6521096.53842  23393043.207    23393038.702
 04  1  9  2 15 30.0000000  0 10G10G15G29G 6G21G30G26G17G18G16
  24171779.650    -2443775.03943  -1746641.14242  24171781.378    24171778.470
  23828875.841    -6003771.70643  -4651889.59942  23828877.904    23828876.148
  22993258.050    -3504343.88743  -2721196.01742  22993260.173    22993256.332
  20382686.353   -25463086.55144 -19799545.36442  20382688.543    20382685.170
  20915186.867   -18502323.48644 -14201657.37342  20915188.675    20915184.587
  23506139.933    -3492138.88643  -2711900.53042  23506142.862    23506139.489
  22229454.836    -6854328.14443  -5325760.43742  22229457.252    22229453.453
  23436423.658    -8845015.65743  -6803122.40442  23436424.553    23436421.994
  21588151.817   -18541106.92444 -14187857.92042  21588153.880    21588149.857
  23384110.377    -8428893.43343  -6557667.80642  23384112.235    23384107.641
 04  1  9  2 16  0.0000000  0 10G10G15G29G 6G21G30G26G17G18G16
  24192006.362    -2337482.80743  -1663816.02942  24192008.513    24192004.846
  23814419.657    -6079740.48643  -4711086.02742  23814421.396    23814419.633
  22992164.782    -3510088.97843  -2725672.67242  22992166.999    22992163.110
  20386387.471   -25443637.22644 -19784390.04442  20386389.608    20386386.261
  20910027.802   -18529434.47644 -14222782.80742  20910029.598    20910025.565
  23525987.365    -3387840.70743  -2630629.26442  23525990.164    23525986.997
  22220848.155    -6899556.27943  -5361003.13042  22220850.594    22220846.942
  23449482.980    -8776387.91143  -6749646.21542  23449483.951    23449481.351
  21573957.751   -18615696.90444 -14245979.95442  21573959.826    21573955.756
  23375276.081    -8475317.54843  -6593842.42442  23375277.904    23375273.423
 04  1  9  2 16 30.0000000  0 10G10G15G29G 6G21G30G26G17G18G16
  24212251.423    -2231094.41443  -1580915.99042  24212253.668    24212249.379
  23799980.055    -6155620.61143  -4770213.35842  23799981.857    23799980.149
  22991172.698    -3515302.68243  -2729735.26042  22991174.945    22991170.927
  20390175.173   -25423732.71044 -19768880.02942  20390177.301    20390173.987
  20904907.268   -18556342.90544 -14243750.39942  20904909.081    20904905.051
  23545843.369    -3283496.09843  -2549321.79242  23545846.201    23545843.262
  22212343.604    -6944248.11043  -5395827.90642  22212346.070    22212342.504
  23462553.592    -8707700.89743  -6696123.86142  23462554.599    23462551.884
  21559836.596   -18689903.68843 -14303803.39342  21559838.638    21559834.551
  23366538.726    -8521231.00743  -6629619.12042  23366540.613    23366536.486
 04  1  9  2 17  0.0000000  0 10G10G15G29G 6G21G30G26G17G18G16
  24232513.682    -2124615.62943  -1497945.47242  24232515.922    24232511.305
  23785556.740    -6231415.19043  -4829274.05242  23785558.582    23785556.752
  22990280.972    -3519987.63343  -2733385.86842  22990283.237    22990279.490
  20394048.970   -25403375.48144 -19753017.25142  20394051.095    20394047.848
  20899824.668   -18583052.12544 -14264562.76442  20899826.445    20899822.431
  23565706.996    -3179111.17843  -2467982.91842  23565709.819    23565707.037
  22203940.934    -6988404.19143  -5430235.21642  22203943.475    22203939.976
  23475634.754    -8638957.94243  -6642557.92242  23475635.946    23475633.083
  21545788.197   -18763728.73244 -14361329.37442  21545790.187    21545786.068
  23357898.309    -8566635.64543  -6664999.34442  23357900.279    23357896.066
 04  1  9  2 17 30.0000000  0 10G10G15G29G 6G21G30G26G17G18G16
  24252792.861    -2018046.06743  -1414904.22642  24252795.217    24252790.806
  23771150.152    -6307121.75643  -4888266.14642  23771151.986    23771150.146
  22989490.463    -3524140.41743  -2736621.81742  22989492.765    22989489.250
  20398009.569   -25382562.63044 -19736799.43942  20398011.631    20398008.427
  20894780.474   -18609559.59144 -14285217.91142  20894782.262    20894778.229
  23585578.426    -3074686.10143  -2386612.76942  23585581.132    23585578.426
  22195640.961    -7032019.50243  -5464221.13642  22195643.623    22195640.248
  23488726.953    -8570156.77043  -6588946.62642  23488728.215    23488725.457
  21531813.251   -18837168.04644 -14418554.78542  21531815.211    21531811.034
  23349355.739    -8611527.60343  -6699980.09642  23349357.645    23349353.393
 04  1  9  2 18  0.0000000  0 10G10G15G29G 6G21G30G26G17G18G16
  24273088.984    -1911389.36143  -1331795.12842  24273090.955    24273087.149
  23756760.213    -6382741.83243  -4947190.86442  23756761.870    23756760.082
  22988801.408    -3527761.51443  -2739443.43942  22988803.547    22988800.262
  20402056.630   -25361295.11344 -19720227.34042  20402058.708    20402055.489
  20889774.357   -18635866.81644 -14305717.03042  20889776.226    20889772.075
  23605456.694    -2970225.02443  -2305214.55042  23605459.279    23605456.648
  22187444.285    -7075092.73543  -5497784.68442  22187446.806    22187443.870
  23501829.891    -8501298.75743  -6535291.04142  23501831.176    23501828.649
  21517911.567   -18910221.70344 -14475479.67642  21517913.571    21517909.439
  23340910.583    -8655907.07043  -6734561.48542  23340912.571    23340908.205
 04  1  9  2 18 30.0000000  0 10G10G15G29G 6G21G30G26G17G18G16
  24293401.202    -1804647.58443  -1248619.69442  24293403.379    24293399.914
  23742386.718    -6458274.67543  -5006047.61542  23742388.321    23742386.656
  22988213.789    -3530849.55443  -2741849.66742  22988215.969    22988212.626
  20406190.374   -25339571.97744 -19703300.21442  20406192.466    20406189.272
  20884806.411   -18661973.30944 -14326059.73942  20884808.298    20884804.150
  23625341.421    -2865730.26943  -2223790.10542  23625343.869    23625341.126
  22179351.454    -7117620.91143  -5530923.51242  22179354.017    22179351.194
  23514943.719    -8432383.86443  -6481591.08342  23514945.119    23514942.706
  21504083.676   -18982887.54244 -14532102.38242  21504085.660    21504081.608
  23332563.191    -8699771.94943  -6768741.89942  23332565.163    23332560.997
 04  1  9  2 19  0.0000000  0 10G10G15G29G 6G21G30G26G17G18G16
  24313729.392    -1697823.32343  -1165379.97242  24313731.415    24313728.341
  23728029.891    -6533720.49243  -5064836.56042  23728031.255    23728029.835
  22987727.839    -3533404.09643  -2743840.20342  22987730.037    22987726.564
  20410410.981   -25317392.80144 -19686017.73742  20410413.051    20410409.824
  20879876.691   -18687879.16044 -14346246.10042  20879878.590    20879874.426
  23645231.897    -2761204.82543  -2142341.73742  23645234.352    23645231.417
  22171362.938    -7159601.77643  -5563635.85742  22171365.436    22171362.584
  23528068.652    -8363412.13043  -6427846.85142  23528069.818    23528067.570
  21490329.703   -19055164.57044 -14588422.11142  21490331.724    21490327.751
  23324313.857    -8743121.23443  -6802520.54342  23324315.733    23324312.072
 04  1  9  2 19 30.0000000  0 10G10G15G29G 6G21G30G26G17G18G16
  24334071.374    -1590925.38143  -1082082.83242  24334073.820    24334071.366
  23713688.414    -6609085.62843  -5123562.62942  23713689.819    23713688.259
  22987342.162    -3535430.74043  -2745419.38342  22987344.460    22987340.875
  20414717.235   -25294763.46544 -19668384.48942  20414719.307    20414716.064
  20874983.908   -18713590.93044 -14366281.22842  20874985.795    20874981.632
  23665126.526    -2656657.87343  -2060876.61142  23665128.899    23665125.773
  22163477.518    -7201039.34943  -5595924.85842  22163480.039    22163477.274
  23541203.799    -8294390.13543  -6374063.46942  23541204.051    23541201.863
  21476648.918   -19127057.68744 -14644442.68742  21476650.880    21476646.939
  23316162.017    -8785959.82743  -6835901.24842  23316163.792    23316160.327
 04  1  9  2 20  0.0000000  0 10G10G15G29G 6G21G30G26G17G18G16
  24354430.020    -5909120.14052                                  24354434.843
  23699364.812    -6684357.24443  -5182215.80842  23699366.210    23699364.356
  22987059.398    -3536916.22543  -2746576.87742  22987061.749    22987058.137
  20419111.536   -25271671.08144 -19650390.41942  20419113.613    20419110.407
  20870130.458   -18739095.99144 -14386155.29342  20870132.319    20870128.186
  23685027.120    -2552079.42943  -1979386.95942  23685029.422    23685026.179
  22155698.422    -7241918.19443  -5627778.48542  22155700.959    22155698.145
  23554350.108    -8225305.33943  -6320231.16942  23554350.343    23554348.078
  21463043.811   -19198552.86044 -14700153.18042  21463045.786    21463041.828
  23308109.991    -8828273.99743  -6868873.31042  23308111.822    23308108.342
 04  1  9  2 20 30.0000000  0 10G10G15G29G 6G21G30G26G17G18G16
  24374800.785
  23685057.462    -6759543.03543  -5240802.14242  23685058.906    23685056.706
  22986878.478    -3537867.70043  -2747318.27842  22986880.750    22986877.046
  20423592.565   -25248122.86444 -19632041.15642  20423594.667    20423591.482
  20865314.916   -18764402.02344 -14405874.26442  20865316.748    20865312.594
  23704931.770    -2447480.14643  -1897881.04042  23704934.080    23704930.588
  22148024.567    -7282243.88443  -5659201.07542  22148027.138    22148024.309
  23567506.863    -8156165.78643  -6266356.15642  23567507.063    23567504.700
  21449513.190   -19269656.50644 -14755558.58342  21449515.215    21449511.225
  23300156.691    -8870070.15943  -6901441.75242  23300158.440    23300154.533
 04  1  9  2 21  0.0000000  0 10G10G15G29G 6G21G30G26G17G18G16
  24395185.872
  23670766.357    -6834642.30743  -5299321.03642  23670767.825    23670765.554
  22986799.304    -3538283.76743  -2747642.47342  22986801.663    22986797.850
  20428160.595   -25224117.74144 -19613335.86042  20428162.663    20428159.505
  20860537.287   -18789508.62844 -14425437.83942  20860539.153    20860534.926
  23724840.182    -2342862.10643  -1816360.51642  23724842.368    23724838.662
  22140456.838    -7322013.20643  -5690190.13242  22140459.308    22140456.362
  23580674.384    -8086970.75143  -6212437.91942  23580674.486    23580671.791
  21436057.531   -19340366.55244 -14810657.28142  21436059.542    21436055.455
  23292301.950    -8911346.52043  -6933605.11342  23292303.782    23292299.854
 04  1  9  2 21 30.0000000  0  9G15G29G 6G21G30G26G17G18G16
  23656492.481    -6909651.74243  -5357769.92742  23656494.063    23656491.766
  22986822.990    -3538160.51343  -2747546.42042  22986825.324    22986821.304
  20432816.224   -25199652.20444 -19594271.80342  20432818.311    20432815.157
  20855798.204   -18814412.32444 -14444843.30842  20855800.129    20855795.821
  23744752.045    -2238224.80143  -1734824.97542  23744754.330    23744750.513
  22132996.167    -7361220.60543  -5720741.34742  22132998.564    22132995.434
  23593852.454    -8017717.34043  -6158474.19642  23593853.072    23593850.092
  21422677.582   -19410678.26944 -14865445.60542  21422679.643    21422675.518
  23284547.007    -8952098.63743  -6965360.02842  23284548.904    23284544.887
 04  1  9  2 22  0.0000000  0  9G15G29G 6G21G30G26G17G18G16
  23642235.057    -6984576.51143  -5416152.89642  23642236.609    23642234.051
  22986948.307    -3537502.58943  -2747033.72942  22986950.693    22986946.506
  20437558.576   -25174730.99544 -19574852.68042  20437560.644    20437557.487
  20851096.777   -18839118.37844 -14464094.76542  20851098.704    20851094.317
  23764665.878    -2133576.27143  -1653280.69242  23764668.315    23764664.489
  22125641.493    -7399868.85843  -5750856.84042  22125644.247    22125640.909
  23607041.068    -7948410.59843  -6104468.98142  23607041.778    23607038.898
  21409372.654   -19480595.55144 -14919926.57442  21409374.742    21409370.696
  23276891.201    -8992330.43643  -6996709.45742  23276893.117    23276888.973
 04  1  9  2 22 30.0000000  0  9G15G29G 6G21G30G26G17G18G16
  23627993.619    -7059414.95243  -5474468.54442  23627995.316    23627992.766
  22987175.658    -3536307.77643  -2746102.68342  22987178.170    22987173.857
  20442388.018   -25149352.04244 -19555076.86942  20442390.085    20442386.921
  20846433.335   -18863625.16744 -14483190.95842  20846435.204    20846430.789
  23784581.776    -2028917.38243  -1571728.34442  23784584.231    23784580.339
  22118394.091    -7437953.95743  -5780533.51142  22118396.804    22118393.500
  23620240.305    -7879049.13743  -6050421.09242  23620240.796    23620238.229
  21396143.367   -19550115.60744 -14974098.01942  21396145.450    21396141.445
  23269334.884    -9032039.05543  -7027651.22442  23269336.861    23269332.678
 04  1  9  2 23  0.0000000  0  9G15G29G 6G21G30G26G17G18G16
  23613768.702    -7134166.36443  -5532716.39142  23613770.456    23613767.918
  22987505.119    -3534575.11043  -2744752.52842  22987507.694    22987503.524
  20447304.734   -25123514.58544 -19534943.78642  20447306.766    20447303.612
  20841807.801   -18887932.43044 -14502131.66942  20841809.662    20841805.202
  23804499.236    -1924250.68343  -1490169.89742  23804501.642    23804497.500
  22111254.438    -7475473.14143  -5809769.22042  22111256.941    22111253.692
  23633449.872    -7809632.65443  -5996330.33742  23633450.430    23633447.867
  21382990.143   -19619236.54144 -15027958.45942  21382992.196    21382988.124
  23261878.483    -9071223.11643  -7058184.24242  23261880.539    23261876.257
 04  1  9  2 23 30.0000000  0  9G15G29G 6G21G30G26G17G18G16
  23599561.008    -7208828.10343  -5590894.35942  23599562.694    23599559.944
  22987937.706    -3532301.17843  -2742980.61242  22987940.164    22987936.104
  20452309.220   -25097215.54044 -19514451.02642  20452311.266    20452308.154
  20837220.779   -18912037.60344 -14520914.91442  20837222.626    20837218.083
  23824417.980    -1819576.03243  -1408605.25842  23824420.463    23824416.261
  22104223.505    -7512421.33843  -5838559.99442  22104225.841    22104222.510
  23646670.046    -7740158.55743  -5942194.69242  23646671.020    23646668.655
  21369913.601   -19687954.41044 -15081504.81942  21369915.656    21369911.460
  23254522.739    -9109878.41743  -7088305.25442  23254524.752    23254520.402
 04  1  9  2 24  0.0000000  0  9G15G29G 6G21G30G26G17G18G16
  23585370.104    -7283403.37643  -5649004.93642  23585371.698    23585368.625
  22988472.665    -3529488.83143  -2740789.15942  22988475.175    22988471.266
  20457400.968   -25070458.07444 -19493601.05042  20457402.979    20457399.906
  20832671.637   -18935943.42844 -14539542.81842  20832673.519    20832668.968
  23844336.878    -1714899.43643  -1327039.10342  23844339.411    23844335.312
  22097301.046    -7548799.71043  -5866906.73842  22097303.470    22097299.768
  23659901.001    -7670630.00543  -5888016.60342  23659901.871    23659899.847
  21356913.350   -19756271.05744 -15134738.53942  21356915.480    21356911.132
  23247267.116    -9148007.14943  -7118015.96142  23247269.179    23247264.784
 04  1  9  2 24 30.0000000  0  9G15G29G 6G21G30G26G17G18G16
  23571194.850    -7357894.40643  -5707049.89642  23571196.640    23571193.579
  22989109.958    -3526139.77743  -2738179.48942  22989112.376    22989108.626
  20462579.549   -25043244.13044 -19472395.37842  20462581.544    20462578.544
  20828159.956   -18959652.49144 -14558017.40142  20828161.810    20828157.318
  23864255.531    -1610225.97443  -1245475.40042  23864257.789    23864253.856
  22090486.873    -7584608.17443  -5894809.39742  22090489.431    22090485.521
  23673142.317    -7601049.51643  -5833798.02342  23673142.838    23673140.551
  21343989.264   -19824187.60544 -15187660.49942  21343991.388    21343986.981
  23240111.396    -9185610.67743  -7147317.41942  23240113.472    23240108.991
 04  1  9  2 25  0.0000000  0  9G15G29G 6G21G30G26G17G18G16
  23557036.876    -7432295.18743  -5765024.49742  23557038.685    23557035.501
  22989850.699    -3522247.74243  -2735146.71342  22989853.039    22989849.239
  20467846.277   -25015567.42244 -19450829.11542  20467848.239    20467845.212
  20823686.870   -18983158.87744 -14576334.05742  20823688.697    20823684.219
  23884174.279    -1505552.30943  -1163911.52242  23884176.383    23884172.464
  22083782.541    -7619838.66043  -5922261.71842  22083785.017    22083781.378
  23686394.268    -7531411.16343  -5779534.37442  23686394.658    23686392.528
  21331142.685   -19891696.57944 -15240264.86542  21331144.781    21331140.470
  23233056.919    -9222681.98443  -7176204.14042  23233058.984    23233054.652
 04  1  9  2 25 30.0000000  0  9G15G29G 6G21G30G26G17G18G16
  23542895.302    -7506609.71143  -5822931.89442  23542897.202    23542893.805
  22990694.006    -3517816.52343  -2731693.81042  22990696.316    22990692.641
  20473200.303   -24987431.93244 -19428905.36242  20473202.280    20473199.200
  20819251.478   -19006466.86444 -14594496.11142  20819253.345    20819248.831
  23904091.779    -1400885.53043  -1082353.01942  23904093.755    23904089.832
  22077187.590    -7654493.12943  -5949265.15442  22077190.121    22077186.805
  23699655.826    -7461719.32643  -5725229.00242  23699656.276    23699654.513
  21318373.108   -19958801.18944 -15292554.14742  21318375.184    21318370.951
  23226103.169    -9259224.27343  -7204678.65942  23226105.258    23226100.895
 04  1  9  2 26  0.0000000  0  9G15G29G 6G21G30G26G17G18G16
  23528770.486    -7580836.43943  -5880770.85842  23528772.402    23528768.969
  22991640.175    -3512844.04043  -2727819.12942  22991642.482    22991638.909
  20478642.004   -24958835.72144 -19406622.61042  20478643.976    20478640.864
  20814854.228   -19029574.53544 -14612502.07742  20814856.121    20814851.537
  23924007.791    -1296226.61043  -1000800.64142  23924009.776    23924005.747
  22070703.310    -7688567.74943  -5975816.78942  22070705.755    22070702.546
  23712928.293    -7391972.41243  -5670880.74942  23712928.659    23712927.056
  21305680.980   -20025498.61244 -15344526.13842  21305683.063    21305678.913
  23219250.633    -9295234.89443  -7232738.86742  23219252.753    23219248.452
 04  1  9  2 26 30.0000000  0  9G15G29G 6G21G30G26G17G18G16
  23514662.066    -7654976.28843  -5938542.16742  23514664.055    23514660.740
  22992689.220    -3507330.80943  -2723523.08942  22992691.603    22992688.150
  20484171.098   -24929779.68744 -19383981.54342  20484173.095    20484169.996
  20810494.904   -19052483.03644 -14630352.84542  20810496.774    20810492.158
  23943921.858    -1191579.14143   -919257.21642  23943923.623    23943919.643
  22064329.812    -7722061.34543  -6001915.68742  22064332.194    22064328.887
  23726210.630    -7322171.50843  -5616490.44742  23726211.351    23726209.819
  21293066.428   -20091788.55444 -15396180.60942  21293068.462    21293064.406
  23212499.223    -9330713.85343  -7260384.82142  23212501.399    23212496.888
 04  1  9  2 27  0.0000000  0  9G15G29G 6G21G30G26G17G18G16
  23500570.156    -7729029.35543  -5996245.83542  23500572.182    23500568.998
  22993841.254    -3501276.77443  -2718805.64842  22993843.616    22993840.178
  20489787.748   -24900263.90644 -19360982.23442  20489789.739    20489786.623
  20806173.397   -19075192.70444 -14648048.68142  20806175.255    20806170.645
  23963832.795    -1086946.43443   -837725.27942  23963834.705    23963830.909
  22058067.195    -7754972.14343  -6027560.44942  22058069.532    22058066.159
  23739503.123    -7252317.11643  -5562058.43642  23739503.659    23739502.859
  21280529.472   -20157670.32044 -15447517.02442  21280531.547    21280527.610
  23205849.199    -9365660.44243  -7287615.91342  23205851.323    23205846.835
 04  1  9  2 27 30.0000000  0  9G15G29G 6G21G30G26G17G18G16
  23486495.522    -7802992.42243  -6053879.34042  23486497.474    23486494.374
  22995096.853    -3494678.54443  -2713664.14342  22995099.300    22995095.721
  20495492.528   -24870284.91944 -19337621.98642  20495494.525    20495491.399
  20801890.359   -19097700.15144 -14665586.93842  20801892.196    20801887.645
  23983741.147     -982327.87243   -756204.36742  23983743.075    23983739.500
  22051916.135    -7787294.91643  -6052747.00642  22051918.621    22051915.248
  23752807.192    -7182405.84143  -5507582.11642  23752807.187    23752806.151
  21268071.092   -20223139.28344 -15498531.77942  21268073.209    21268069.342
  23199301.097    -9400070.38443  -7314428.86342  23199303.260    23199298.831
 04  1  9  2 28  0.0000000  0  9G15G29G 6G21G30G26G17G18G16
  23472437.273    -7876869.84743  -6111446.13542  23472439.205    23472435.782
  22996455.385    -3487540.23143  -2708101.81142  22996457.649    22996454.047
  20501284.696   -24839847.08444 -19313904.19242  20501286.673    20501283.518
  20797644.883   -19120010.15844 -14682971.35042  20797646.706    20797642.193
  24003645.724     -877730.39743   -674699.89242  24003647.550    24003643.948
  22045876.764    -7819031.93043  -6077477.12842  22045879.182    22045875.720
  23766120.601    -7112442.52443  -5453065.24042  23766121.050    23766119.770
  21255690.716   -20288198.60144 -15549227.32642  21255692.760    21255688.997
  23192854.404    -9433947.39143  -7340826.52442  23192856.544    23192852.202
 04  1  9  2 28 30.0000000  0 10G15G29G22G 6G21G30G26G17G18G16
  23458395.369    -7950660.76643  -6168945.52542  23458397.317    23458393.922
  22997916.756    -3479860.52843  -2702117.60342  22997919.106    22997915.396
  23996542.623     -529495.77853   -399595.53052  23996542.663    23996537.716
  20507164.341   -24808949.50244 -19289828.16142  20507166.311    20507163.091
  20793437.241   -19142121.67744 -14700201.09242  20793439.055    20793434.521
  24023545.565     -773156.11143   -593213.45842  24023547.770    24023544.022
  22039949.424    -7850180.35743  -6101748.58942  22039951.756    22039948.176
  23779444.739    -7042425.95543  -5398506.87942  23779444.883    23779443.449
  21243388.465   -20352846.65344 -15599602.42242  21243390.542    21243386.882
  23186509.585    -9467289.46943  -7366807.37342  23186511.671    23186507.380
 04  1  9  2 29  0.0000000  0 10G15G29G22G 6G21G30G26G17G18G16
  23444370.546    -8024360.80043  -6226374.07942  23444372.501    23444369.299
  22999481.865    -3471635.03543  -2695708.11242  22999484.291    22999480.582
  23977095.361     -631689.37743   -479226.78442  23977095.958    23977090.969
  20513132.321   -24777587.72944 -19265390.42342  20513134.275    20513131.022
  20789268.209   -19164030.37644 -14717272.79042  20789270.041    20789265.468
  24043441.537     -668603.25643   -511743.76042  24043443.846    24043440.014
  22034135.346    -7880733.71643  -6125556.38842  22034137.688    22034134.125
  23792779.200    -6972352.19543  -5343903.96542  23792780.246    23792778.055
  21231165.662   -20417077.87344 -15649652.69742  21231167.679    21231164.085
  23180267.487    -9500091.72343  -7392367.55942  23180269.580    23180265.219
 04  1  9  2 29 30.0000000  0 10G15G29G22G 6G21G30G26G17G18G16
  23430361.799    -8097978.03743  -6283738.12742  23430363.712    23430360.637
  23001149.512    -3462871.54043  -2688879.39842  23001151.914    23001148.239
  23957682.035     -733705.51043   -558719.80042  23957682.857    23957677.887
  20519187.060   -24745769.63744 -19240597.10442  20519189.065    20519185.738
  20785136.261   -19185744.03044 -14734192.50642  20785138.163    20785133.497
  24063331.279     -564082.55443   -430299.09042  24063333.753    24063329.893
  22028433.348    -7910698.31243  -6148905.40242  22028435.754    22028432.249
  23806123.037    -6902229.27943  -5289262.75042  23806123.978    23806122.210
  21219020.900   -20480899.19144 -15699383.57142  21219022.920    21219019.246
  23174126.983    -9532361.17543  -7417512.61042  23174129.050    23174124.430
 04  1  9  2 30  0.0000000  0 10G15G29G22G 6G21G30G26G17G18G16
  23416371.372    -8171498.34243  -6341026.65342  23416373.324    23416370.225
  23002922.172    -3453555.91943  -2681620.44942  23002924.649    23002920.877
  23938305.643     -835528.54443   -638062.33842  23938306.491    23938301.745
  20525331.302   -24713481.05344 -19215437.17042  20525333.345    20525330.041
  20781043.929   -19207249.13044 -14750949.72042  20781045.897    20781041.196
  24083216.960     -459582.70743   -348870.67042  24083219.604    24083215.763
  22022846.368    -7940058.05643  -6171783.10542  22022848.801    22022845.458
  23819479.690   -16284563.35753 -12600172.39252  23819478.710    23819474.511
  21206956.951   -20544295.46844 -15748783.24742  21206959.003    21206955.327
  23168090.445    -9564083.15343  -7442231.04842  23168092.479    23168088.039
 04  1  9  2 30 30.0000000  0 10G15G29G22G 6G21G30G26G17G18G16
  23402396.047    -8244938.79043  -6398252.93942  23402397.964    23402394.761
  23004796.709    -3443705.11943  -2673944.50142  23004799.171    23004795.420
  23918963.072     -937173.81343   -717266.36042  23918963.918    23918959.460
  20531561.986   -24680739.04244 -19189923.92442  20531563.996    20531560.621
  20776988.075   -19228562.78544 -14767557.75242  20776990.008    20776985.304
  24103094.884     -355123.57243   -267473.98642  24103097.617    24103093.942
  22017371.610    -7968828.32243  -6194201.48142  22017373.890    22017370.659
  23832845.055   -16214331.73953 -12545446.47852  23832842.691    23832841.512
  21194970.903   -20607282.80744 -15797864.27542  21194972.925    21194969.239
  23162155.083    -9595273.85543  -7466535.50042  23162157.089    23162152.699
 04  1  9  2 31  0.0000000  0 10G15G29G22G 6G21G30G26G17G18G16
  23388437.583    -8318290.06543  -6455409.75142  23388439.437    23388436.320
  23006775.030    -3433309.85843  -2665844.29042  23006777.351    23006773.586
  23899656.346    -1038630.12043   -796323.11842  23899657.086    23899653.073
  20537880.675   -24647534.44744 -19164050.21942  20537882.705    20537879.231
  20772970.458   -19249675.39744 -14784009.12642  20772972.387    20772967.745
  24122966.376     -250698.65443   -186103.95542  24122968.981    24122965.456
  22012011.181    -7996998.03143  -6216151.88642  22012013.413    22012009.941
  23846218.440
  21183064.608   -20669850.97744 -15846618.66942  21183066.674    21183062.880
  23156322.571    -9625923.44443  -7490418.28242  23156324.632    23156320.446
 04  1  9  2 31 30.0000000  0  9G15G29G22G 6G21G30G26G18G16
  23374497.261    -8391547.50043  -6512493.42442  23374498.892    23374495.880
  23008857.509    -3422365.13443  -2657315.90942  23008860.004    23008856.203
  23880386.913    -1139891.10043   -875227.68042  23880387.618    23880383.590
  20544288.300   -24613862.48744 -19137812.33342  20544290.341    20544286.749
  20768992.031   -19270582.18044 -14800300.11842  20768993.914    20768989.267
  24142831.509     -146305.81543   -104758.92642  24142834.132    24142830.851
  22006766.214    -8024560.59643  -6237629.19342  22006768.608    22006764.843
  21171239.177   -20731994.20744 -15895041.94342  21171241.226    21171237.359
  23150594.187    -9656026.28143  -7513875.06142  23150596.221    23150592.179
 04  1  9  2 32  0.0000000  0  9G15G29G22G 6G21G30G26G18G16
  23360572.253    -8464724.88643  -6569514.72742  23360573.842    23360570.656
  23011042.081    -3410884.69943  -2648370.09242  23011044.584    23011040.778
  23861152.453    -1240968.82543   -953989.46442  23861153.223    23861148.948
  20550782.116   -24579736.89544 -19111220.96842  20550784.230    20550780.614
  20765050.042   -19291297.32444 -14816441.77842  20765051.900    20765047.262
  24162687.211      -41961.60943    -23451.77042  24162689.956    24162686.824
  22001634.533    -8051527.73143  -6258642.54842  22001636.940    22001633.233
  21159492.076   -20793725.35544 -15943144.11542  21159494.134    21159490.257
  23144967.307    -9685595.61443  -7536916.09842  23144969.230    23144965.440
 04  1  9  2 32 30.0000000  0  9G15G29G22G 6G21G30G26G18G16
  23346664.211    -8537811.48243  -6626465.27542  23346665.993    23346662.661
  23013330.748    -3398857.89743  -2638998.54442  23013333.166    23013329.356
  23841955.318    -1341850.87743  -1032598.76142  23841956.108    23841951.566
  20557364.396   -24545147.07344 -19084267.86242  20557366.502    20557362.856
  20761146.559   -19311810.17844 -14832425.80842  20761148.391    20761143.821
  24182535.557       62342.03743     57823.77542  24182538.096    24182534.999
  21996618.475    -8077887.27243  -6279182.43642  21996620.756    21996617.161
  21147825.645   -20855032.60344 -15990915.98642  21147827.698    21147823.864
  23139444.069    -9714619.92143  -7559532.47242  23139445.957    23139442.328
 04  1  9  2 33  0.0000000  0  9G15G29G22G 6G21G30G26G18G16
  23332772.945    -8610810.19943  -6683347.35842  23332774.768    23332771.297
  23015722.778    -3386287.47743  -2629203.39642  23015725.247    23015721.512
  23822795.171    -1442538.26243  -1111056.39142  23822795.966    23822791.234
  20564034.462   -24510095.78744 -19056955.17342  20564036.574    20564032.945
  20757281.060   -19332123.31744 -14848254.21742  20757282.897    20757278.374
  24202375.069      166599.53743    139063.37942  24202377.592    24202374.419
  21991717.912    -8103640.16543  -6299249.60942  21991720.108    21991716.512
  21136239.547   -20915917.76344 -16038358.94742  21136241.578    21136237.739
  23134024.062    -9743101.57943  -7581725.96642  23134025.894    23134022.383
 04  1  9  2 33 30.0000000  0  9G15G29G22G 6G21G30G26G18G16
  23318898.497    -8683720.01543  -6740160.15542  23318900.330    23318897.082
  23018218.483    -3373172.71043  -2618984.06642  23018220.917    23018217.215
  23803672.295    -1543028.41943  -1189360.29442  23803673.216    23803668.636
  20570792.455   -24474582.23344 -19029282.28042  20570794.603    20570790.982
  20753453.788   -19352235.92744 -14863926.37142  20753455.621    20753451.067
  24222205.641      270809.22943    220265.70142  24222207.978    24222204.698
  21986933.215    -8128783.79743  -6318842.01842  21986935.569    21986931.789
  21124734.183   -20976378.91144 -16085471.51142  21124736.164    21124732.223
  23128707.713    -9771038.86943  -7603495.29042  23128709.526    23128706.070
 04  1  9  2 34  0.0000000  0  9G15G29G22G 6G21G30G26G18G16
  23305040.254    -8756544.47243  -6796906.46542  23305042.086    23305039.079
  23020816.968    -3359517.04943  -2608343.27042  23020819.460    23020815.802
  23784586.488    -1643323.09843  -1267511.90842  23784587.533    23784583.192
  20577637.702   -24438610.24344 -19001252.16142  20577639.804    20577636.257
  20749663.982   -19372151.49744 -14879444.98942  20749665.823    20749661.250
  24242025.897      374964.75943    301425.82942  24242028.081    24242024.673
  21982264.059    -8153320.17043  -6337961.26342  21982266.580    21982262.743
  21113308.919   -21036418.93744 -16132255.93642  21113310.904    21113306.880
  23123494.410    -9798434.83243  -7624842.79842  23123496.245    23123492.841
 04  1  9  2 34 30.0000000  0  9G15G29G22G 6G21G30G26G18G16
  23291199.000    -8829280.83243  -6853584.12042  23291200.678    23291197.783
  23023519.072    -3345317.85943  -2597278.95942  23023521.411    23023517.892
  23765539.059    -1743417.96243  -1345507.83342  23765539.912    23765535.689
  20584570.730   -24402177.21144 -18972862.78942  20584572.787    20584569.238
  20745912.058   -19391867.53344 -14894808.12242  20745913.955    20745909.402
  24261835.950      479066.05743    382543.68742  24261837.993    24261834.299
  21977711.508    -8177244.73943  -6356603.77542  21977713.943    21977709.942
  21101964.479   -21096034.30844 -16178709.45142  21101966.506    21101962.423
  23118384.857    -9825286.32743  -7645766.03642  23118386.650    23118383.166
 04  1  9  2 35  0.0000000  0  9G15G29G22G 6G21G30G26G18G16
  23277374.436    -8901929.09043  -6910193.11642  23277376.014    23277373.205
  23026324.550    -3330575.48543  -2585791.39442  23026326.783    23026323.299
  23746529.740    -1843311.29743  -1423346.68242  23746530.596    23746526.520
  20591591.496   -24365283.25744 -18944114.25842  20591593.489    20591589.942
  20742198.351   -19411383.61244 -14910015.44742  20742200.203    20742195.564
  24281634.873      583110.64543    463617.38942  24281637.108    24281633.312
  21973275.422    -8200556.26043  -6374768.57742  21973277.825    21973273.765
  21090701.036   -21155224.16844 -16224831.39942  21090703.095    21090698.932
  23113378.988    -9851592.72143  -7666264.53042  23113380.828    23113377.286
 04  1  9  2 35 30.0000000  0  9G15G29G22G 6G21G30G26G18G16
  23263567.319    -8974486.50943  -6966731.31542  23263568.887    23263565.927
  23029233.789    -3315287.23543  -2573878.44142  23029236.107    23029232.572
  23727559.960    -1942998.50243  -1501024.92042  23727560.694    23727556.571
  20598700.341   -24327925.74244 -18915004.50942  20598702.408    20598698.878
  20738522.970   -19430697.49444 -14925065.21242  20738524.875    20738520.233
  24301423.231      687098.55143    544646.87642  24301425.464    24301421.719
  21968956.746    -8223250.11143  -6392452.08142  21968959.297    21968955.219
  21079519.282   -21213984.78344 -16270618.87342  21079521.376    21079517.145
  23108477.334    -9877350.72943  -7686335.70842  23108479.159    23108475.647
 04  1  9  2 36  0.0000000  0  9G15G29G22G 6G21G30G26G18G16
  23249776.413    -9046956.85843  -7023201.70342  23249778.084    23249775.147
  23032246.061    -3299456.97743  -2561543.16342  23032248.449    23032245.018
  23708629.195    -2042481.75943  -1578544.26642  23708629.721    23708625.411
  20605896.611   -24290108.72844 -18885536.71042  20605898.704    20605895.232
  20734885.371   -19449813.11744 -14939960.48642  20734887.279    20734882.642
  24321199.570      791023.27043    625627.14742  24321201.781    24321198.167
  21964755.375    -8245328.56343  -6409656.05042  21964757.903    21964753.981
  21068418.529   -21272319.09844 -16316074.16742  21068420.653    21068416.452
  23103679.567    -9902563.86943  -7705982.32742  23103681.347    23103677.793
 04  1  9  2 36 30.0000000  0  9G15G29G22G 6G21G30G26G18G16
  23236002.471    -9119338.19843  -7079602.69842  23236004.157    23236001.450
  23035361.958    -3283082.80943  -2548784.06542  23035364.242    23035360.892
  23689737.533    -2141757.58743  -1655901.96642  23689738.314    23689733.877
  20613180.693   -24251830.58944 -18855709.59942  20613182.779    20613179.337
  20731286.048   -19468727.94944 -14954699.31242  20731287.934    20731283.241
  24340963.654      894884.01243    706557.52842  24340965.945    24340962.452
  21960671.808    -8266788.35043  -6426377.93842  21960674.358    21960670.588
  21057399.488   -21330224.33744 -16361195.11842  21057401.556    21057397.463
  23098985.808    -9927229.71243  -7725202.47342  23098987.660    23098984.013
 04  1  9  2 37  0.0000000  0  9G15G29G22G 6G21G30G26G18G16
  23222245.317    -9191632.09143  -7135935.57042  23222246.884    23222244.455
  23038580.837    -3266166.58843  -2535602.57242  23038583.212    23038579.824
  23670885.465    -2240825.56843  -1733097.70742  23670886.364    23670881.861
  20620552.309   -24213092.66844 -18825524.21742  20620554.363    20620550.881
  20727724.507   -19487443.88644 -14969283.14842  20727726.404    20727721.667
  24360714.806      998676.74243    787434.98242  24360717.120    24360713.966
  21956705.877    -8287629.01843  -6442617.37842  21956708.479    21956704.804
  21046462.015   -21387701.03344 -16405982.13242  21046464.050    21046460.068
  23094396.118    -9951349.04643  -7743996.75542  23094397.927    23094394.287
 04  1  9  2 37 30.0000000  0  9G15G29G22G 6G21G30G26G18G16
  23208505.435    -9263836.17843  -7192198.44342  23208506.882    23208504.521
  23041903.402    -3248706.37143  -2521997.18442  23041905.782    23041902.358
  23652073.508    -2339682.08343  -1810128.67242  23652074.569    23652070.076
  20628011.728   -24173893.10144 -18794979.11042  20628013.802    20628010.272
  20724201.324   -19505958.55644 -14983710.15342  20724203.231    20724198.406
  24380452.955     1102401.06643    868259.10342  24380455.316    24380452.491
  21952858.283    -8307847.18843  -6458371.79542  21952860.854    21952857.432
  21035606.647   -21444746.47744 -16450433.10942  21035608.683    21035604.716
  23089910.851    -9974919.43443  -7762363.29142  23089912.750    23089908.906
 04  1  9  2 38  0.0000000  0  9G15G29G22G 6G21G30G26G18G16
  23194781.360    -9335955.34043  -7248395.16142  23194782.714    23194780.831
  23045328.607    -3230707.14543  -2507971.79542  23045330.946    23045327.413
  23633301.399    -2438330.01843  -1886997.12342  23633302.460    23633297.878
  20635558.030   -24134236.96944 -18764078.23242  20635560.086    20635556.614
  20720715.524   -19524276.73344 -14997984.04542  20720717.452    20720712.571
  24400176.516     1206049.47943    949024.07142  24400179.011    24400176.377
  21949128.699    -8327446.26443  -6473643.77242  21949131.161    21949127.801
  21024832.562   -21501364.78044 -16494551.25242  21024834.564    21024830.601
  23085529.316    -9997945.12843  -7780305.40242  23085531.235    23085527.098
 04  1  9  2 38 30.0000000  0  9G15G29G22G 6G21G30G26G18G16
  23181075.071    -9407981.28543  -7304519.24542  23181076.257    23181074.762
  23048857.879    -3212160.64243  -2493519.94342  23048860.248    23048856.539
  23614570.911    -2536759.45143  -1963695.31242  23614571.935    23614567.244
  20643192.781   -24094116.11344 -18732815.22942  20643194.820    20643191.401
  20717268.686   -19542389.99544 -15012098.26342  20717270.634    20717265.726
  24419886.704     1309627.86843   1029734.49042  24419889.237    24419886.831
  21945518.738    -8346416.40343  -6488425.68342  21945521.238    21945517.856
  21014141.520   -21557546.44544 -16538329.16142  21014143.530    21014139.545
  23081252.907   -10020417.37443  -7797816.23942  23081254.868    23081250.691
 04  1  9  2 39  0.0000000  0  9G15G29G22G 6G21G30G26G18G16
  23167385.504    -9479921.08143  -7360576.18042  23167386.534    23167385.156
  23052489.845    -3193074.46043  -2478647.59742  23052492.118    23052488.457
  23595880.829    -2634976.02543  -2040227.64342  23595881.911    23595877.181
  20650914.558   -24053537.97244 -18701195.90642  20650916.585    20650913.237
  20713859.377   -19560305.94744 -15026058.73742  20713861.367    20713856.458
  24439581.878     1413126.27343   1110382.56142  24439584.314    24439582.036
  21942027.466    -8364763.27943  -6502721.93342  21942029.893    21942026.558
  21003532.380   -21613297.88244 -16581771.81842  21003534.388    21003530.325
  23077080.527   -10042343.08043  -7814901.21842  23077082.533    23077078.307
 04  1  9  2 39 30.0000000  0  9G15G29G22G 6G21G30G26G18G16
  23153712.929    -9551769.84943  -7416562.17842  23153714.091    23153712.811
  23056225.266    -3173444.41443  -2463351.44742  23056227.517    23056223.889
  23577232.461    -2732973.33943  -2116589.14842  23577233.627    23577228.958
  20658724.114   -24012498.44444 -18669217.05542  20658726.156    20658722.879
  20710488.649   -19578019.21444 -15039861.26842  20710490.644    20710485.773
  24459261.961     1516546.65443   1190969.84242  24459264.490    24459262.320
  21938655.742    -8382481.20843  -6516528.09742  21938658.260    21938655.003
  20993006.124   -21668613.82144 -16624875.13842  20993008.123    20993003.963
  23073013.309   -10063717.51643  -7831556.64242  23073015.243    23073010.757
 04  1  9  2 40  0.0000000  0  9G15G29G22G 6G21G30G26G18G16
  23140056.892    -9623532.36943  -7472480.99042  23140057.901    23140056.864
  23060063.307    -3153275.53443  -2447635.43442  23060065.512    23060061.950
  23558625.466    -2830754.63943  -2192782.32642  23558626.400    23558621.882
  20666620.547   -23971002.47644 -18636882.54142  20666622.581    20666619.332
  20707155.466   -19595534.72644 -15053509.71042  20707157.471    20707152.707
  24478925.943     1619881.80243   1271490.71342  24478928.322    24478926.431
  21935403.162    -8399573.41143  -6529846.68442  21935405.681    21935402.551
  20982561.959   -21723498.29344 -16667642.24042  20982563.974    20982559.668
  23069049.879   -10084545.15243  -7847785.97742  23069051.897    23069047.317
 04  1  9  2 40 30.0000000  0  9G15G29G22G 6G21G30G26G18G16
  23126418.260    -9695203.25243  -7528328.39242  23126419.295    23126418.391
  23064004.771    -3132562.73043  -2431495.57142  23064007.055    23064003.368
  23540060.854    -2928312.44143  -2268801.35242  23540061.645    23540057.302
  20674604.859   -23929044.83644 -18604188.28042  20674606.882    20674603.668
  20703860.995   -19612847.06744 -15066999.83542  20703862.957    20703858.297
  24498574.116     1723134.58443   1351947.41942  24498576.448    24498574.803
  21932271.067    -8416032.99243  -6542672.32142  21932273.499    21932270.471
  20972200.983   -21777945.20944 -16710068.39342  20972203.065    20972198.676
  23065191.719   -10104819.79643  -7863584.40242  23065193.696    23065188.969
 04  1  9  2 41  0.0000000  0  9G15G29G22G 6G21G30G26G18G16
  23112796.098    -9766788.15743  -7584108.80442  23112797.135    23112796.245
  23068048.665    -3111312.14343  -2414936.64642  23068051.042    23068047.187
  23521537.750    -3025651.24143  -2344649.72542  23521538.584    23521534.358
  20682675.733   -23886631.67444 -18571139.06342  20682677.770    20682674.650
  20700604.085   -19629962.17844 -15080336.27542  20700606.015    20700601.436
  24518205.264     1826296.63843   1432333.39642  24518207.576    24518206.060
  21929258.420    -8431864.75843  -6555008.73242  21929260.849    21929257.860
  20961922.357   -21831959.42844 -16752157.37342  20961924.440    20961920.052
  23061437.652   -10124547.26843  -7878956.47042  23061439.642    23061434.923
 04  1  9  2 41 30.0000000  0  9G15G29G22G 6G21G30G26G18G16
  23099190.842    -9838283.14343  -7639819.12442  23099191.995    23099191.085
  23072195.610    -3089520.04743  -2397955.77242  23072198.020    23072194.073
  23503057.503    -3122765.28543  -2420322.93242  23503058.246    23503054.145
  20690834.066   -23843759.36044 -18537732.07142  20690836.064    20690832.988
  20697385.579   -19646875.75944 -15093515.67742  20697387.459    20697382.874
  24537819.635     1929369.36243   1512649.77242  24537821.760    24537820.329
  21926366.241    -8447063.14643  -6566851.59742  21926368.691    21926365.706
  20951726.923   -21885536.34344 -16793905.60442  20951728.980    20951724.715
  23057788.686   -10143723.27643  -7893898.82142  23057790.696    23057785.924
 04  1  9  2 42  0.0000000  0  9G15G29G22G 6G21G30G26G18G16
  23085603.191    -9909685.92543  -7695457.63442  23085604.357    23085603.458
  23076445.884    -3067184.82843  -2380551.69842  23076448.263    23076444.303
  23484620.792    -3219650.80543  -2495818.11442  23484621.628    23484617.439
  20699080.148   -23800426.06144 -18503965.87742  20699082.146    20699079.092
  20694205.637   -19663585.94844 -15106536.59042  20694207.534    20694202.953
  24557416.701     2032352.34143   1592896.22842  24557418.955    24557417.446
  21923595.198    -8461624.98543  -6578198.45642  21923597.710    21923594.595
  20941615.357   -21938672.99344 -16835310.77242  20941617.337    20941613.203
  23054244.839   -10162345.45243  -7908409.63042  23054246.837    23054242.451
 04  1  9  2 42 30.0000000  0  9G15G29G22G 6G21G30G26G18G16
  23072031.773    -9981004.47243  -7751030.50442  23072032.813    23072031.805
  23080797.991    -3044314.71943  -2362730.81542  23080800.370    23080796.361
  23466226.325    -3316313.91043  -2571139.98942  23466227.385    23466223.042
  20707412.413   -23756640.02844 -18469846.89142  20707414.409    20707411.366
  20691063.228   -19680099.74544 -15119404.47242  20691065.031    20691060.395
  24576995.150     2135235.25743   1673064.73842  24576997.470    24576995.268
  21920944.178    -8475556.84043  -6589054.42342  21920946.596    21920943.382
  20931586.162   -21991376.96044 -16876378.78042  20931588.120    20931584.023
  23050804.915   -10180421.39343  -7922494.76442  23050806.871    23050802.954
 04  1  9  2 43  0.0000000  0  9G15G29G22G 6G21G30G26G18G16
  23058477.542   -10052232.45743  -7806532.77542  23058478.703    23058477.457
  23085252.981    -3020903.87243  -2344488.58842  23085255.347    23085251.285
  23447875.506    -3412746.78243  -2646282.44142  23447876.640    23447872.493
  20715831.817   -23712395.55444 -18435370.68542  20715833.850    20715830.896
  20687959.248   -19696411.40544 -15132114.84642  20687961.065    20687956.339
  24596555.007     2238021.81143   1753158.12442  24596557.496    24596555.058
  21918414.343    -8488851.25343  -6599413.67942  21918416.809    21918413.561
  20921640.661   -22043641.28644 -16917104.21042  20921642.612    20921638.441
  23047470.520   -10197944.63343  -7936149.24542  23047472.389    23047468.488
 04  1  9  2 43 30.0000000  0  9G15G29G22G 6G21G30G26G18G16
  23044940.691   -10123368.54143  -7861963.45542  23044941.810    23044940.640
  23089810.806    -2996951.95243  -2325824.73342  23089813.273    23089809.279
  23429569.019    -3508947.08843  -2721243.67942  23429570.056    23429566.116
  20724338.666   -23667691.91444 -18400536.68342  20724340.694    20724337.731
  20684893.878   -19712519.54444 -15144666.62742  20684895.741    20684891.005
  24616095.811     2340710.43043   1833175.25942  24616098.612    24616096.245
  21916006.166    -8501506.10643  -6609274.57742  21916008.718    21916005.450
  20911779.030   -22095464.01344 -16957485.54142  20911781.095    20911776.857
  23044241.404   -10214913.97043  -7949372.12342  23044243.311    23044239.266
 04  1  9  2 44  0.0000000  0  9G15G29G22G 6G21G30G26G18G16
  23031420.828   -10194415.00043  -7917324.31942  23031422.097    23031420.964
  23094471.301    -2972461.52843  -2306741.28742  23094473.636    23094469.809
  23411306.909    -3604915.29643  -2796024.05542  23411307.784    23411303.859
  20732932.399   -23622531.69144 -18365346.90542  20732934.429    20732931.408
  20681866.850   -19728426.75544 -15157061.84942  20681868.701    20681863.926
  24635617.158     2443296.40243   1913112.38142  24635620.205    24635617.861
  21913719.395    -8513522.66043  -6618638.11242  21913721.910    21913718.667
  20902001.233   -22146846.86944 -16997524.11642  20902003.253    20901999.066
  23041117.129   -10231331.73243  -7962165.19842  23041119.068    23041114.936
 04  1  9  2 44 30.0000000  0  8G15G29G22G 6G21G26G18G16
  23017919.159   -10265367.86343  -7972612.23442  23017920.405    23017919.140
  23099234.778    -2947429.37043  -2287235.68642  23099237.092    23099233.350
  23393090.019    -3700645.89343  -2870619.24942  23393090.869    23393086.763
  20741613.716   -23576911.48844 -18329798.70942  20741615.763    20741612.561
  20678878.861   -19744128.72944 -15169297.14242  20678880.737    20678875.940
  21911555.041    -8524895.83543  -6627500.30042  21911557.491    21911554.214
  20892307.959   -22197785.36044 -17037216.42942  20892309.986    20892305.849
  23038098.766   -10247193.83643  -7974525.30642  23038100.637    23038096.500
 04  1  9  2 45  0.0000000  0  8G15G29G22G 6G21G26G18G16
  23004433.026   -10336237.93343  -8027835.64542  23004434.446    23004433.011
  23104099.046    -2921866.82143  -2267316.80042  23104101.407    23104097.722
  23374916.546    -3796148.22543  -2945036.62342  23374917.419    23374913.169
  20750380.315   -23530842.79444 -18293901.03242  20750382.415    20750379.042
  20675927.912   -19759636.33644 -15181380.98242  20675929.755    20675924.886
  21909511.347    -8535635.65043  -6635868.97842  21909513.728    21909510.347
  20882697.306   -22248289.81944 -17076570.53342  20882699.301    20882695.160
  23035184.162   -10262511.15043  -7986460.85742  23035186.046    23035181.960
 04  1  9  2 45 30.0000000  0  8G15G29G22G 6G21G26G18G16
  22990964.739   -10407014.39843  -8082986.11642  22990966.254    22990964.737
  23109066.292    -2895763.72543  -2246976.72242  23109068.538    23109064.937
  23356788.826    -3891409.76143  -3019266.33842  23356789.652    23356785.554
  20759234.179   -23484315.23944 -18257645.80342  20759236.338    20759232.834
  20673015.996   -19774938.53344 -15193304.75842  20673017.876    20673012.980
  21907590.463    -8545730.16643  -6643734.80642  21907592.890    21907589.315
  20873171.318   -22298348.94744 -17115577.63142  20873173.317    20873169.146
  23032375.175   -10277272.76343  -7997963.41342  23032377.152    23032372.957
 04  1  9  2 46  0.0000000  0  8G15G29G22G 6G21G26G18G16
  22977513.113   -10477703.89543  -8138068.80242  22977514.712    22977512.927
  23114135.114    -2869127.47243  -2226221.18842  23114137.302    23114133.692
  23338705.895    -3986435.94943  -3093312.69142  23338706.809    23338702.674
  20768174.001   -23437336.00844 -18221038.61642  20768176.134    20768172.593
  20670141.853   -19790042.09444 -15205073.75642  20670143.782    20670138.853
  21905791.030    -8555185.10843  -6651102.27842  21905793.603    21905790.124
  20863728.960   -22347968.94344 -17154242.54342  20863730.940    20863726.711
  23029670.562   -10291485.39843  -8009038.19042  23029672.673    23029668.334
 04  1  9  2 46 30.0000000  0  8G15G29G22G 6G21G26G18G16
  22964078.982   -10548300.19443  -8193078.88342  22964080.728    22964078.955
  23119306.369    -2841952.53943  -2205045.91442  23119308.565    23119304.947
  23320669.295    -4081219.04743  -3167169.61642  23320670.272    23320666.073
  20777200.925   -23389899.37344 -18184075.00942  20777203.049    20777199.430
  20667306.771   -19804940.64244 -15216683.00142  20667308.701    20667303.763
  21904114.645    -8563993.46343  -6657965.92142  21904117.221    21904113.827
  20854371.462   -22397143.25944 -17192560.17342  20854373.436    20854369.102
  23027071.572   -10305143.08243  -8019680.57042  23027073.714    23027069.201
 04  1  9  2 47  0.0000000  0  8G15G29G22G 6G21G26G18G16
  22950661.687   -10618809.00743  -8248020.77842  22950663.477    22950661.588
  23124578.853    -2814245.09543  -2183455.68942  23124581.149    23124577.464
  23302678.218    -4175762.98443  -3240840.17342  23302679.310    23302674.907
  20786313.643   -23342011.60544 -18146759.86742  20786315.788    20786312.212
  20664509.570   -19819639.99844 -15228137.03242  20664511.517    20664506.522
  21902560.714    -8572159.93543  -6664329.38942  21902563.179    21902559.701
  20845097.821   -22445876.73144 -17230534.28742  20845099.823    20845095.407
  23024577.157   -10318251.29243  -8029894.76142  23024579.276    23024574.818
 04  1  9  2 47 30.0000000  0  9G 2G15G29G22G 6G21G26G18G16
  25311778.314
  22937261.390   -10689228.04643  -8302892.73942  22937263.206    22937261.296
  23129953.001    -2786003.68043  -2161449.37842  23129955.324    23129951.610
  23284733.283    -4270064.08543  -3314321.50742  23284734.467    23284729.882
  20795512.569   -23293671.09944 -18109091.94742  20795514.674    20795511.144
  20661750.769   -19834137.87644 -15239434.07342  20661752.661    20661747.587
  21901129.508    -8579681.51443  -6670190.35442  21901131.877    21901128.350
  20835908.562   -22494166.69944 -17268162.82042  20835910.566    20835906.127
  23022187.537   -10330807.81743  -8039679.08142  23022189.671    23022185.372
 04  1  9  2 48  0.0000000  0  9G 2G15G29G22G 6G21G26G18G16
  25302751.977
  22923878.327   -10759556.89143  -8357694.38842  22923880.238    22923878.196
  23135428.709    -2757228.84243  -2139027.42142  23135431.041    23135427.149
  23266834.793    -4364120.70043  -3387612.33642  23266835.849    23266831.305
  20804797.532   -23244878.14244 -18071071.47242  20804799.677    20804796.158
  20659030.362   -19848433.74944 -15250573.70442  20659032.249    20659027.152
  21899821.058    -8586556.94343  -6675547.82442  21899823.501    21899819.996
  20826803.738   -22542012.65844 -17305445.36442  20826805.797    20826801.362
  23019903.065   -10342812.71643  -8049033.54142  23019905.121    23019901.035
 04  1  9  2 48 30.0000000  0  9G 2G15G29G22G 6G21G26G18G16
  25293799.803
  22910512.879   -10829793.04943  -8412423.82142  22910514.830    22910512.674
  23141006.220    -2727918.88043  -2116188.48842  23141008.524    23141004.495
  23248983.612    -4457928.76643  -3460709.50442  23248984.588    23248980.195
  20814168.969   -23195630.91644 -18032697.01542  20814171.100    20814167.567
  20656348.928   -19862524.94244 -15261553.84142  20656350.816    20656345.679
  21898636.265    -8592783.27543  -6680399.48942  21898638.713    21898635.102
  20817784.083   -22589411.57644 -17342379.56342  20817786.106    20817781.672
  23017724.070   -10354263.61043  -8057956.32242  23017726.066    23017722.032
 04  1  9  2 49  0.0000000  0  9G 2G15G29G22G 6G21G26G18G16
  25284919.905
  22897163.612   -10899944.22043  -8467087.03342  22897165.574    22897163.264
  23146683.844    -2698082.45743  -2092939.30442  23146686.169    23146682.199
  23231178.754    -4551494.67643  -3533617.96642  23231179.693    23231175.294
  20823625.197   -23145937.89344 -17993975.18242  20823627.352    20823623.814
  20653704.891   -19876419.45744 -15272380.71842  20653706.804    20653701.682
  21897573.668    -8598367.34343  -6684750.68242  21897576.135    21897572.444
  20808847.955   -22636370.97944 -17378971.28742  20808850.000    20808845.634
  23015649.068   -10365168.32043  -8066453.51142  23015651.104    23015646.917
 04  1  9  2 49 30.0000000  0  8G15G29G22G 6G21G26G18G16
  22883834.299   -10969989.94943  -8521668.07442  22883836.300    22883833.951
  23152465.524    -2667699.66743  -2069264.39542  23152467.789    23152463.830
  23213424.358    -4644796.46043  -3606320.61242  23213425.157    23213420.630
  20833170.092   -23095779.02844 -17954890.35942  20833172.216    20833168.756
  20651102.200   -19890096.46344 -15283038.11842  20651104.118    20651099.070
  21896637.343    -8603287.81043  -6688584.81642  21896639.829    21896636.089
  20799999.499   -22682869.66944 -17415204.01542  20800001.538    20799997.179
  23013681.805   -10375506.63443  -8074509.37542  23013683.871    23013679.496
 04  1  9  2 50  0.0000000  0  9G 2G15G29G22G 6G21G26G18G16
  25267383.394
  22870519.464   -11039960.06443  -8576190.20142  22870521.426    22870519.011
  23158345.024    -2636801.33043  -2045187.74942  23158347.483    23158343.622
  23195714.408    -4737862.56043  -3678839.59942  23195715.315    23195710.750
  20842797.839   -23045185.17944 -17915466.58242  20842799.926    20842796.491
  20648535.217   -19903585.98244 -15293549.42142  20648537.110    20648532.158
  21895821.763    -8607574.19743  -6691924.84342  21895824.275    21895820.354
  20791233.027   -22728937.48444 -17451100.99242  20791235.084    20791230.739
  23011816.381   -10385308.70343  -8082147.33942  23011818.618    23011814.271
 04  1  9  2 50 30.0000000  0  9G 2G15G29G22G 6G21G26G18G16
  25258725.836
  22857223.624   -11109830.59143  -8630634.72142  22857225.643    22857223.158
  23164327.411    -2605364.33843  -2020691.39142  23164329.667    23164325.945
  23178053.987    -4830667.64943  -3751155.20042  23178054.983    23178050.377
  20852512.846   -22994133.01044 -17875685.68742  20852514.908    20852511.436
  20646008.508   -19916863.92344 -15303895.85742  20646010.438    20646005.501
  21895131.563    -8611201.78743  -6694751.51642  21895134.082    21895129.954
  20782553.212   -22774550.00644 -17486643.20142  20782555.223    20782550.992
  23010057.541   -10394550.90943  -8089349.06942  23010059.783    23010055.684
 04  1  9  2 51  0.0000000  0  9G 2G15G29G22G 6G21G26G18G16
  25250141.781
  22843944.390   -11179613.24043  -8685010.77742  22843946.466    22843944.098
  23170409.530    -2573401.59943  -1995785.35442  23170411.903    23170408.265
  23160441.381    -4923222.16943  -3823275.54542  23160442.368    23160437.727
  20862312.624   -22942635.03644 -17835557.40342  20862314.710    20862311.215
  20643519.851   -19929941.92244 -15314086.49242  20643521.754    20643516.841
  21894564.594    -8614181.88243  -6697073.64442  21894567.092    21894562.785
  20773957.871   -22819718.45944 -17521839.38742  20773959.859    20773955.775
  23008403.235   -10403245.20543  -8096123.86142  23008405.336    23008401.179
 04  1  9  2 51 30.0000000  0  9G 2G15G29G22G 6G21G26G18G16
  25241631.899
  22830682.537   -11249304.22243  -8739315.40642  22830684.552    22830682.226
  23176592.471    -2540910.11743  -1970467.30042  23176594.723    23176591.137
  23142877.534    -5015520.77243  -3895196.48742  23142878.535    23142873.740
  20872197.803   -22890688.12544 -17795079.30142  20872199.886    20872196.391
  20641069.922   -19942816.27244 -15324118.44342  20641071.826    20641066.883
  21894121.448    -8616509.86743  -6698887.65342  21894124.051    21894119.946
  20765447.825   -22864439.10644 -17556686.62642  20765449.764    20765445.751
  23006853.799   -10411388.18943  -8102469.07142  23006855.847    23006851.451
 04  1  9  2 52  0.0000000  0  9G 2G15G29G22G 6G21G26G18G16
  25233196.849
  22817438.257   -11318902.84943  -8793548.05042  22817440.211    22817437.863
  23182875.797    -2507890.19143  -1944737.47642  23182878.081    23182874.534
  23125362.723    -5107561.42543  -3966916.41542  23125363.745    23125358.959
  20882168.333   -22838292.47644 -17754251.53642  20882170.417    20882166.933
  20638658.815   -19955486.09744 -15333991.02242  20638660.763    20638655.820
  21893802.683    -8618184.75443  -6700192.77342  21893805.266    21893801.340
  20757023.179   -22908711.00144 -17591184.19542  20757025.122    20757021.077
  23005409.265   -10418979.61543  -8108384.47242  23005411.361    23005406.759
 04  1  9  2 52 30.0000000  0  9G 2G15G29G22G 6G21G26G18G16
  25224835.939
  22804211.167   -11388412.17443  -8847711.12342  22804212.974    22804210.441
  23189259.055    -2474345.74343  -1918598.93442  23189261.231    23189257.753
  23107896.629    -5199346.00843  -4038436.80542  23107897.581    23107892.871
  20892223.517   -22785452.04344 -17713077.17042  20892225.586    20892222.108
  20636286.185   -19967954.46644 -15343706.62542  20636288.066    20636283.172
  21893607.830    -8619209.25043  -6700991.05342  21893610.425    21893606.341
  20748683.359   -22952536.98944 -17625334.29342  20748685.306    20748681.245
  23004069.014   -10426022.95543  -8113872.82342  23004071.190    23004066.474
 04  1  9  2 53  0.0000000  0  9G 2G15G29G22G 6G21G26G18G16
  25216551.384
  22791002.637   -11457823.29043  -8901797.67042  22791004.542    22791001.842
  23195743.559    -2440269.02243  -1892045.63642  23195745.739    23195742.280
  23090481.168    -5290864.16643  -4109749.59942  23090482.131    23090477.412
  20902364.899   -22732158.70444 -17671549.90342  20902366.975    20902363.489
  20633953.533   -19980212.38044 -15353258.23542  20633955.403    20633950.581
  21893538.519    -8619573.68343  -6701275.00742  21893541.166    21893536.876
  20740430.134   -22995907.90344 -17659129.79942  20740432.133    20740427.997
  23002834.655   -10432509.52543  -8118927.29942  23002836.754    23002832.176
 04  1  9  2 53 30.0000000  0  9G 2G15G29G22G 6G21G26G18G16
  25208341.446
  22777811.248   -11527144.55043  -8955814.20542  22777813.172    22777810.466
  23202327.715    -2405669.44243  -1865084.91642  23202329.782    23202326.384
  23073115.106    -5382122.96243  -4180860.30242  23073116.073    23073111.200
  20912590.784   -22678421.62044 -17629676.85942  20912592.831    20912589.336
  20631659.286   -19992268.36044 -15362652.49442  20631661.164    20631656.368
  21893593.136    -8619286.11843  -6701050.91342  21893595.814    21893591.572
  20732261.997   -23038831.68644 -17692576.88742  20732264.026    20732259.886
  23001704.445   -10438448.24043  -8123554.86442  23001706.444    23001701.975
 04  1  9  2 54  0.0000000  0  9G 2G15G29G22G 6G21G26G18G16
  25200206.595
  22764637.395   -11596373.71743  -9009758.97142  22764639.325    22764636.596
  23209011.476    -2370545.81943  -1837715.85842  23209013.603    23209010.212
  23055798.898    -5473119.16343  -4251766.36542  23055799.977    23055794.974
  20922901.232   -22624239.62944 -17587457.13042  20922903.341    20922899.875
  20629403.988   -20004120.01044 -15371887.53542  20629405.814    20629401.052
  21893772.366    -8618344.18343  -6700316.93142  21893774.943    21893770.985
  20724179.274   -23081306.35944 -17725674.02242  20724181.276    20724177.201
  23000678.855   -10443837.48143  -8127754.28642  23000680.830    23000676.382
 04  1  9  2 54 30.0000000  0  9G 2G15G29G22G 6G21G26G18G16
  25192146.688
  22751480.826   -11665511.63043  -9063632.65742  22751482.733    22751480.021
  23215794.596    -2334900.22343  -1809940.06042  23215796.714    23215793.350
  23038532.922    -5563852.04843  -4322467.24142  23038533.984    23038529.070
  20933295.932   -22569614.70544 -17544892.25642  20933298.076    20933294.727
  20627187.409   -20015768.08044 -15380963.93842  20627189.202    20627184.502
  21894076.007    -8616748.54843  -6699073.56842  21894078.588    21894074.816
  20716181.940   -23123332.28444 -17758421.48342  20716183.926    20716179.923
  22999757.779   -10448678.57743  -8131526.59142  22999759.702    22999755.108
 04  1  9  2 55  0.0000000  0  9G 2G15G29G22G 6G21G26G18G16
  25184162.911
  22738341.999   -11734556.20443  -9117433.59042  22738343.878    22738341.179
  23222677.051    -2298731.82543  -1781756.89942  23222679.330    23222675.917
  23021317.735    -5654318.36843  -4392960.43742  23021318.624    23021313.972
  20943775.231   -22514545.32444 -17501981.05742  20943777.341    20943774.154
  20625009.962   -20027210.34044 -15389879.97442  20625011.785    20625007.133
  21894504.415    -8614496.58343  -6697318.77242  21894507.070    21894503.414
  20708270.530   -23164907.31644 -17790817.59342  20708272.444    20708268.425
  22998940.887   -10452970.09843  -8134870.64642  22998942.916    22998938.541
 04  1  9  2 55 30.0000000  0  9G 2G15G29G22G 6G21G26G18G16
  25176254.094
  22725220.777   -11803508.78243  -9171162.84442  22725222.616    22725219.872
  23229658.699    -2262042.98643  -1753168.18542  23229661.071    23229657.579
  23004153.193    -5744518.03743  -4463245.86942  23004154.055    23004149.653
  20954338.786   -22459033.76944 -17458725.30842  20954340.800    20954337.723
  20622871.498   -20038448.16444 -15398636.70642  20622873.289    20622868.654
  21895057.562    -8611589.36543  -6695053.39142  21895060.194    21895056.548
  20700444.612   -23206032.99244 -17822863.55742  20700446.527    20700442.489
  22998228.475   -10456713.67643  -8137787.71242  22998230.369    22998226.252
 04  1  9  2 56  0.0000000  0  9G 2G15G29G22G 6G21G26G18G16
  25168421.317
  22712116.913   -11872370.37643  -9224821.18642  22712118.662    22712115.722
  23236739.509    -2224835.69043  -1724175.48842  23236741.653    23236737.912
  22987039.649    -5834450.68843  -4533323.20642  22987040.467    22987036.222
  20964986.035   -22403081.98744 -17415126.52142  20964988.073    20964985.046
  20620771.725   -20049482.54944 -15407234.91542  20620773.535    20620768.830
  21895735.287    -8608027.63143  -6692277.99842  21895737.854    21895734.202
  20692703.997   -23246709.97744 -17854559.88942  20692705.978    20692701.935
  22997619.991   -10459911.07843  -8140279.21042  22997621.892    22997617.699
 04  1  9  2 56 30.0000000  0  9G 2G15G29G22G 6G21G26G18G16
  25160664.964
  22699030.967   -11941136.52543  -9278405.17742  22699032.864    22699029.723
  23243918.803    -2187106.69443  -1694776.25442  23243921.439    23243917.531
  22969977.819    -5924110.78143  -4603188.16542  22969978.702    22969974.559
  20975717.748   -22346686.62044 -17371182.08642  20975719.759    20975716.702
  20618711.536   -20060308.97644 -15415671.08242  20618713.351    20618708.580
  21896538.546    -8603806.73043  -6688988.95642  21896541.020    21896537.277
  20685049.694   -23286933.74044 -17885903.06742  20685051.639    20685047.578
  22997116.277   -10462558.42043  -8142342.08442  22997118.208    22997113.995
 04  1  9  2 57  0.0000000  0  9G 2G15G29G22G 6G21G26G18G16
  25152984.659
  22685963.080   -12009808.72943  -9331915.93842  22685964.938    22685961.769
  23251197.419    -2148859.00943  -1664972.86142  23251199.773    23251195.975
  22952967.794    -6013498.73643  -4672841.06042  22952968.525    22952964.577
  20986533.326   -22289850.27344 -17326894.02942  20986535.326    20986532.246
  20616690.540   -20070928.98144 -15423946.39442  20616692.398    20616687.657
  21897466.874    -8598928.23243  -6685187.51042  21897469.365    21897465.603
  20677481.295   -23326705.81944 -17916894.28242  20677483.225    20677479.143
  22996716.691   -10464657.96543  -8143978.10242  22996718.570    22996714.553
 04  1  9  2 57 30.0000000  0  9G 2G15G29G22G 6G21G26G18G16
  25145380.671
  22672912.453   -12078389.63843  -9385355.57142  22672914.296    22672911.315
  23258573.327    -2110096.52643  -1634768.31042  23258575.892    23258572.320
  22936009.064    -6102615.86843  -4742282.94542  22936009.903    22936006.108
  20997432.074   -22232576.76243 -17282265.32742  20997434.068    20997430.990
  20614708.430   -20081345.04244 -15432062.79342  20614710.270    20614705.524
  21898519.886    -8593394.69143  -6680875.64342  21898522.433    21898518.631
  20669998.308   -23366028.70544 -17947535.47942  20670000.262    20669996.210
  22996420.769   -10466213.11743  -8145189.91342  22996422.620    22996418.709
 04  1  9  2 58  0.0000000  0  9G 2G15G29G22G 6G21G26G18G16
  25137853.934    -1057282.17353    -42585.53552  25137856.444    25137852.545
  22659880.268   -12146873.53543  -9438719.59842  22659882.031    22659879.349
  23266048.349    -2070814.84143  -1604159.19842  23266050.878    23266047.491
  22919103.414    -6191455.36743  -4811508.49742  22919104.190    22919100.564
  21008414.971   -22174861.28243 -17237292.23342  21008416.929    21008413.941
  20612766.157   -20091551.68244 -15440016.01342  20612768.010    20612763.209
  21899698.586    -8587200.37443  -6676048.89142  21899701.143    21899697.393
  20662601.978   -23404896.68044 -17977822.20642  20662603.875    20662599.898
  22996229.500   -10467218.69143  -8145973.49642  22996231.289    22996227.316
 04  1  9  2 58 30.0000000  0  9G 2G15G29G22G 6G21G26G18G16
  25130403.004    -1096435.71443    -73094.82542  25130404.488    25130401.433
  22646865.444   -12215266.75543  -9492012.96742  22646867.108    22646864.564
  23273621.055    -2031021.31443  -1573151.23242  23273623.390    23273619.942
  22902249.752    -6280022.28843  -4880521.63242  22902250.405    22902246.813
  21019480.550   -22116711.09443 -17191980.40242  21019482.567    21019479.636
  20610862.617   -20101554.87444 -15447810.70342  20610864.470    20610859.654
  21901001.966    -8580351.35643  -6670711.99042  21901004.506    21901000.693
  20655290.982   -23443316.29644 -18007759.55142  20655292.880    20655288.878
  22996141.337   -10467681.84343  -8146334.38842  22996143.105    22996139.189
 04  1  9  2 59  0.0000000  0  9G 2G15G29G22G 6G21G26G18G16
  25123029.934    -1135181.42743   -103286.32542  25123031.571    25123028.833
  22633869.187   -12283562.07043  -9545230.05742  22633870.869    22633868.428
  23281291.676    -1990710.17843  -1541739.93542  23281294.383    23281290.897
  22885449.505    -6368308.21143  -4949315.82942  22885450.175    22885446.500
  21030630.098   -22058120.10944 -17146325.09942  21030632.133    21030629.187
  20608999.172   -20111347.25044 -15455441.11542  20609001.000    20608996.242
  21902431.307    -8572840.43743  -6664859.31042  21902433.869    21902429.807
  20648066.710   -23481280.23644 -18037341.82142  20648068.654    20648064.507
  22996157.683   -10467596.08643  -8146267.57342  22996159.376    22996155.699
 04  1  9  2 59 30.0000000  0  9G 2G15G29G22G 6G21G26G18G16
  25115733.066    -1173528.11943   -133166.88942  25115734.871    25115731.590
  22620889.723   -12351769.21843  -9598378.42842  22620891.335    22620889.050
  23289059.465    -1949892.34443  -1509933.81442  23289061.935    23289058.318
  22868701.055    -6456321.59443  -5017897.64742  22868701.775    22868698.010
  21041861.539   -21999098.98844 -17100334.62242  21041863.565    21041860.510
  20607174.030   -20120938.58144 -15462914.87042  20607175.846    20607171.096
  21903984.786    -8564677.28343  -6658498.38142  21903987.345    21903983.073
  20640927.290   -23518798.06044 -18066576.47442  20640929.240    20640925.054
  22996276.573   -10466971.79643  -8145781.12442  22996278.263    22996274.682
 04  1  9  3  0  0.0000000  0  9G 2G15G29G22G 6G21G26G18G16
  25108513.508    -1211466.27043   -162729.05242  25108515.582    25108512.438
  22607928.738   -12419879.04243  -9651450.98142  22607930.330    22607928.237
  23296924.744    -1908560.15743  -1477726.90242  23296927.326    23296923.545
  22852006.623    -6544052.13743  -5086259.08942  22852007.350    22852003.294
  21053176.247   -21939639.76243 -17054002.76842  21053178.326    21053175.153
  20605388.928   -20130319.59044 -15470224.74242  20605390.722    20605385.950
  21905663.925    -8555852.88943  -6651622.22842  21905666.489    21905662.186
  20633874.412   -23555860.91344 -18095456.60542  20633876.355    20633872.231
  22996499.517   -10465800.77743  -8144868.64442  22996501.341    22996497.588
 04  1  9  3  0 30.0000000  0  9G 2G15G29G22G 6G21G26G18G16
  25101371.499    -1248998.03243   -191974.59542  25101373.515    25101370.294
  22594985.840   -12487894.29543  -9704449.83042  22594987.368    22594985.318
  23304887.128    -1866717.89143  -1445122.51942  23304889.672    23304885.917
  22835365.810    -6631501.78443  -5154401.64642  22835366.543    22835362.110
  21064573.560   -21879746.48643 -17007332.69842  21064575.631    21064572.383
  20603643.236   -20139493.09744 -15477372.92042  20603645.063    20603640.253
  21907468.356    -8546370.22943  -6644233.13442  21907470.838    21907466.768
  20626907.649   -23592471.53644 -18123984.35342  20626909.567    20626905.460
  22996825.696   -10464086.86643  -8143533.14342  22996827.605    22996823.707
 04  1  9  3  1  0.0000000  0  9G 2G15G29G22G 6G21G26G18G16
  25094306.720    -1286122.60643   -220902.81542  25094308.725    25094306.061
  22582060.952   -12555814.59243  -9757374.68842  22582062.443    22582060.412
  23312946.507    -1824366.58443  -1412121.49342  23312948.892    23312945.043
  22818778.486    -6718668.82943  -5222323.99242  22818779.356    22818774.763
  21076053.248   -21819420.03043 -16960325.08242  21076055.310    21076052.088
  20601937.108   -20148458.73644 -15484359.12242  20601938.914    20601934.158
  21909398.077    -8536229.08743  -6636330.93342  21909400.527    21909396.711
  20620026.984   -23628629.78544 -18152159.59642  20620028.880    20620024.756
  22997255.043   -10461830.26943  -8141774.74542  22997257.057    22997253.021
 04  1  9  3  1 30.0000000  0  9G 2G15G29G22G 6G21G26G18G16
  25087319.995    -1322838.98643   -249513.00942  25087321.891    25087319.391
  22569154.343   -12623639.80943  -9810225.45542  22569155.751    22569153.700
  23321102.120    -1781507.43743  -1378724.74042  23321104.718    23321100.869
  22802245.008    -6805551.93843  -5290025.08042  22802245.978    22802241.536
  21087615.255   -21758661.27843 -16912980.60842  21087617.311    21087614.089
  20600270.661   -20157216.00844 -15491182.95742  20600272.453    20600267.698
  21911453.271    -8525429.34543  -6627915.53242  21911455.670    21911451.942
  20613232.283   -23664335.81244 -18179982.46242  20613234.201    20613230.090
  22997787.702   -10459031.91843  -8139594.22242  22997789.692    22997785.529
 04  1  9  3  2  0.0000000  0  9G 2G15G29G22G 6G21G26G18G16
  25080410.924    -1359145.19943   -277803.58042  25080413.070    25080411.079
  22556266.022   -12691368.20043  -9863000.76942  22556267.426    22556265.375
  23329354.782    -1738140.45543  -1344932.30042  23329357.242    23329353.308
  22785766.106    -6892148.43343  -5357502.82742  22785766.956    22785762.642
  21099259.633   -21697469.89943 -16865299.02142  21099261.664    21099258.472
  20598644.128   -20165763.53244 -15497843.35242  20598645.911    20598641.130
  21913633.963    -8513969.70643  -6618985.92942  21913636.346    21913632.755
  20606524.070   -23699587.73944 -18207451.48142  20606525.976    20606521.825
  22998423.432   -10455691.04543  -8136990.95642  22998425.523    22998421.415
 04  1  9  3  2 30.0000000  0  9G 2G15G29G22G 6G21G26G18G16
  25073579.357    -1395045.40543   -305777.74842  25073581.386    25073579.774
  22543395.300   -12759004.27243  -9915704.16542  22543396.702    22543394.505
  23337702.810    -1694271.40743  -1310748.62742  23337705.216    23337701.174
  22769341.057    -6978461.92843  -5424760.06942  22769341.832    22769337.474
  21110985.178   -21635851.57143 -16817284.75342  21110987.279    21110984.072
  20597056.623   -20174105.61644 -15504343.66242  20597058.413    20597053.639
  21915939.322    -8501854.89243  -6609545.79542  21915941.746    21915938.144
  20599901.418   -23734390.21244 -18234570.27742  20599903.352    20599899.155
  22999161.404   -10451813.25743  -8133969.29942  22999163.459    22999159.425
 04  1  9  3  3  0.0000000  0  9G 2G15G29G22G 6G21G26G18G16
  25066826.128    -1430532.04043   -333429.64042  25066828.156    25066826.947
  22530543.367   -12826541.11043  -9968330.23042  22530544.765    22530542.583
  23346147.146    -1649895.06243  -1276169.64242  23346149.727    23346145.653
  22752971.593    -7064484.10743  -5491790.29042  22752972.295    22752967.880
  21122793.040   -21573800.49643 -16768933.27442  21122795.168    21122792.027
  20595509.535   -20182235.35844 -15510678.51842  20595511.343    20595506.583
  21918370.669    -8489078.14543  -6599589.87942  21918373.081    21918369.486
  20593365.473   -23768736.59444 -18261333.67542  20593367.430    20593363.261
  23000002.770   -10447392.30943  -8130524.41042  23000004.749    23000000.585
 04  1  9  3  3 30.0000000  0  9G 2G15G29G22G 6G21G26G18G16
  25060151.374    -1465609.47143   -360762.68242  25060153.160    25060152.030
  22517709.557   -12893983.39143 -10020882.60642  22517710.975    22517708.611
  23354687.143    -1605017.57743  -1241200.18342  23354689.531    23354685.450
  22736656.868    -7150219.20843  -5558596.83042  22736657.519    22736653.141
  21134682.089   -21511322.87943 -16720249.42542  21134684.173    21134681.120
  20594002.017   -20190157.50644 -15516851.60742  20594003.815    20593999.061
  21920926.967    -8475644.64443  -6589122.20742  21920929.364    21920925.761
  20586915.341   -23802631.93544 -18287745.61842  20586917.313    20586913.154
  23000946.297   -10442434.23543  -8126660.97342  23000948.297    23000943.866
 04  1  9  3  4  0.0000000  0  9G 2G15G29G22G 6G21G26G18G16
  25053554.358    -1500277.00843   -387776.37142  25053556.217    25053554.894
  22504893.804   -12961331.11643 -10073361.31242  22504895.177    22504892.838
  23363322.174    -1559640.24943  -1205841.24842  23363324.500    23363320.291
  22720396.840    -7235665.33443  -5625178.18542  22720397.590    22720393.432
  21146652.189   -21448419.64743 -16671233.93442  21146654.225    21146651.172
  20592534.109   -20197871.57344 -15522862.55942  20592535.859    20592531.111
  21923608.262    -8461554.51743  -6578142.86842  21923610.671    21923606.993
  20580551.120   -23836076.14044 -18313806.01842  20580553.031    20580548.837
  23001991.921   -10436939.91143  -8122379.68942  23001993.870    23001989.304
 04  1  9  3  4 30.0000000  0  9G 2G15G29G22G 6G21G26G18G16
  25047036.143    -1534530.87843   -414467.70842  25047038.140    25047036.492
  22492096.626   -13028580.60443 -10125763.47142  22492098.115    22492095.792
  23372052.247    -1513761.46043  -1170091.54842  23372054.866    23372050.575
  22704192.664    -7320818.29743  -5691531.10642  22704193.426    22704189.397
  21158703.589   -21385088.84043 -16621885.26242  21158705.667    21158702.576
  20591106.353   -20205374.23944 -15528708.77742  20591108.171    20591103.357
  21926415.095    -8446804.82643  -6566649.57942  21926417.523    21926413.668
  20574273.231   -23869066.49044 -18339512.76542  20574275.133    20574270.872
  23003140.124   -10430906.73743  -8117678.51142  23003141.997    23003137.529
 04  1  9  3  5  0.0000000  0  9G 2G15G29G22G 6G21G26G18G16
  25040596.357    -1568371.68943   -440837.17942  25040598.274    25040597.046
  22479317.950   -13095732.76443 -10178089.78442  22479319.536    22479317.200
  23380877.658    -1467383.46443  -1133952.86342  23380880.219    23380876.052
  22688044.524    -7405678.01943  -5757655.51142  22688045.229    22688041.158
  21170836.019   -21321332.68043 -16572205.14342  21170838.042    21170834.933
  20589718.740   -20212666.14744 -15534390.77442  20589720.599    20589715.755
  21929347.106    -8431396.77843  -6554643.29342  21929349.622    21929345.690
  20568081.502   -23901603.95344 -18364866.61842  20568083.368    20568079.143
  23004390.309   -10424336.97743  -8112559.20942  23004392.223    23004387.796
 04  1  9  3  5 30.0000000  0  9G 2G15G29G22G 6G21G26G18G16
  25034235.155    -1601800.50143   -466885.61942  25034236.844    25034235.901
  22466557.480   -13162789.22943 -10230341.52642  22466559.143    22466556.773
  23389797.671    -1420509.75443  -1097427.88342  23389799.981    23389795.747
  22671952.013    -7490245.06043  -5823551.87142  22671952.757    22671948.460
  21183048.788   -21257154.01743 -16522195.80842  21183050.835    21183047.734
  20588370.917   -20219748.79144 -15539909.70442  20588372.803    20588368.041
  21932403.890    -8415332.51743  -6542125.67542  21932406.437    21932402.592
  20561975.693   -23933690.09644 -18389868.79142  20561977.527    20561973.379
  23005741.947   -10417233.10543  -8107023.72942  23005743.990    23005739.558
 04  1  9  3  6  0.0000000  0  9G 2G15G29G22G 6G21G26G18G16
  25027952.457    -1634811.30043   -492608.30142  25027954.360    25027954.218
  22453816.397   -13229744.25043 -10282514.23342  22453818.132    22453815.607
  23398812.439    -1373136.07043  -1060513.31442  23398814.891    23398810.616
  22655916.469    -7574512.53043  -5889214.80042  22655917.302    22655912.803
  21195342.844   -21192548.42943 -16471853.80342  21195344.888    21195341.820
  20587064.125   -20226616.37544 -15545261.05342  20587065.933    20587061.242
  21935586.738    -8398606.49243  -6529092.40142  21935589.168    21935585.469
  20555956.903   -23965319.30444 -18414514.90842  20555958.690    20555954.561
  23007196.221   -10409590.59543  -8101068.51842  23007198.215    23007193.839
 04  1  9  3  6 30.0000000  0  9G 2G15G29G22G 6G21G26G18G16
  25021749.174    -1667411.04443   -518010.71242  25021750.660    25021750.736
  22441093.291   -13296605.27143 -10334613.69442  22441094.942    22441092.253
  23407920.974    -1325271.48643  -1023216.22842  23407923.340    23407918.851
  22639936.741    -7658486.79343  -5954649.25742  22639937.636    22639932.969
  21207716.418   -21127524.78143 -16421186.03542  21207718.435    21207715.460
  20585796.785   -20233276.21544 -15550450.53342  20585798.644    20585793.890
  21938894.020    -8381226.89243  -6515549.84742  21938896.404    21938892.690
  20550023.484   -23996499.54644 -18438811.17442  20550025.333    20550021.145
  23008751.444   -10401418.04243  -8094700.29242  23008753.447    23008749.027
 04  1  9  3  7  0.0000000  0  9G 2G15G29G22G 6G21G26G18G16
  25015624.467    -1699595.85343   -543089.74942  25015625.940    25015626.354
  22428388.620   -13363368.67543 -10386637.09342  22428390.399    22428387.432
  23417123.332    -1276914.04643   -985535.12242  23417125.490    23417120.890
  22624013.680    -7742163.64443  -6019851.96342  22624014.593    22624009.687
  21220169.968   -21062080.62643 -16370190.59642  21220172.010    21220169.115
  20584569.696   -20239724.86444 -15555475.44542  20584571.564    20584566.719
  21942326.275    -8363190.55343  -6501495.54942  21942328.645    21942324.852
  20544176.132   -24027227.63744 -18462755.12842  20544177.997    20544173.798
  23010407.961   -10392713.13843  -8087917.25042  23010409.905    23010405.552
 04  1  9  3  7 30.0000000  0  9G 2G15G29G22G 6G21G26G18G16
  25009579.559    -1731364.16143   -567844.30142  25009580.944    25009580.893
  22415702.697   -13430033.11843 -10438583.36242  22415704.548    22415701.477
  23426419.007    -1228064.17643   -947470.27642  23426421.398    23426416.704
  22608147.753    -7825540.49743  -6084820.90842  22608148.640    22608143.407
  21232703.625   -20996216.21643 -16318867.68342  21232705.614    21232702.733
  20583383.023   -20245960.73944 -15560334.55342  20583384.940    20583380.051
  21945883.576    -8344496.87443  -6486929.03242  21945885.939    21945882.129
  20538415.020   -24057502.40444 -18486345.84042  20538416.886    20538412.752
  23012165.857   -10383475.78443  -8080719.30542  23012167.812    23012163.314
 04  1  9  3  8  0.0000000  0  9G 2G15G29G22G 6G21G26G18G16
  25003613.252    -1762718.54043   -592276.29542  25003614.410    25003614.412
  22403035.208   -13496601.08043 -10490454.46542  22403037.029    22403033.862
  23435807.625    -1178726.39543   -909025.24442  23435810.212    23435805.294
  22592338.315    -7908619.49243  -6149557.74442  22592339.279    22592333.887
  21245316.451   -20929935.57343 -16267220.44442  21245318.398    21245315.498
  20582236.375   -20251986.49044 -15565029.93242  20582238.291    20582233.346
  21949565.281    -8325149.08343  -6471852.81842  21949567.752    21949563.874
  20532739.503   -24087327.39744 -18509586.07842  20532741.386    20532737.235
  23014024.235   -10373709.72043  -8073109.38542  23014026.262    23014021.590
 04  1  9  3  8 30.0000000  0  9G 2G15G29G22G 6G21G26G18G16
  24997725.886    -1793654.94943   -616382.61542  24997727.280    24997727.505
  22390386.835   -13563069.21443 -10542247.78442  22390388.568    22390385.381
  23445289.720    -1128899.06843   -870198.74642  23445292.106    23445287.044
  22576586.541    -7991396.12243  -6214058.98642  22576587.442    22576582.043
  21258008.813   -20863236.84343 -16215247.41542  21258010.750    21258007.850
  20581130.309   -20257798.81644 -15569559.01042  20581132.306    20581127.242
  21953372.096    -8305144.57743  -6456264.87342  21953374.559    21953370.543
  20527150.215   -24116699.30244 -18532473.26042  20527152.112    20527147.871
  23015983.498   -10363413.01043  -8065085.96542  23015985.555    23015980.919
 04  1  9  3  9  0.0000000  0  9G 2G15G29G22G 6G21G26G18G16
  24991916.619    -3399585.32253  -1867756.91652  24991917.981    24991922.301
  22377758.800   -13629429.31043 -10593956.90742  22377760.566    22377757.474
  23454865.911    -1078575.82743   -830985.81942  23454868.394    23454863.267
  22560893.857    -8073861.48643  -6278317.67542  22560894.818    22560889.507
  21270781.999   -20796113.40443 -16162943.44542  21270783.914    21270781.006
  20580066.367   -20263389.47244 -15573915.35242  20580068.392    20580063.335
  21957305.198    -8284475.83743  -6440159.36442  21957307.692    21957303.667
  20521648.564   -24145610.54844 -18555001.48442  20521650.497    20521646.180
  23018045.114   -10352578.93443  -8056643.82842  23018047.134    23018042.688
 04  1  9  3  9 30.0000000  0  9G 2G15G29G22G 6G21G26G18G16
  24986189.078    -3429688.53753  -1891213.88252  24986189.965    24986193.893
  22365147.809   -13695700.89443 -10645597.05342  22365149.444    22365146.437
  23464532.460    -1027777.66743   -791402.82042  23464535.012    23464529.875
  22545256.918    -8156033.76043  -6342347.99042  22545257.898    22545252.685
  21283632.107   -20728586.09543 -16110324.78342  21283634.004    21283631.042
  20579041.010   -20268777.60044 -15578113.88142  20579043.012    20579037.954
  21961360.862    -8263162.85643  -6423551.84542  21961363.328    21961359.375
  20516230.864   -24174080.72644 -18577186.01642  20516232.817    20516228.486
  23020205.129   -10341228.10243  -8047799.03142  23020207.095    23020202.795
 04  1  9  3 10  0.0000000  0  8G15G29G22G 6G21G26G18G16
  22352555.666   -13761872.50443 -10697159.32142  22352557.317    22352554.395
  23474291.175     -976495.22843   -751442.47542  23474293.716    23474288.622
  22529677.936    -8237900.93143  -6406140.54742  22529679.006    22529673.824
  21296560.892   -20660645.02143 -16057383.69442  21296562.829    21296559.800
  20578056.494   -20273951.65844 -15582145.60442  20578058.439    20578053.337
  21965541.191    -8241195.15843  -6406434.13942  21965543.683    21965539.599
  20510899.138   -24202098.79244 -18599018.26242  20510901.139    20510896.855
  23022465.224   -10329350.64843  -8038543.86242  23022467.223    23022462.949
 04  1  9  3 10 30.0000000  0  8G15G29G22G 6G21G26G18G16
  22339983.353   -13827940.39243 -10748640.74742  22339985.002    22339982.095
  23484142.467     -924726.45743   -711103.18142  23484144.884    23484139.824
  22514158.097    -8319458.37543  -6469691.76642  22514159.047    22514153.917
  21309568.852   -20592287.82543 -16004118.35942  21309570.824    21309567.704
  20577113.388   -20278908.06844 -15586007.73442  20577115.301    20577110.129
  21969846.762    -8218569.73643  -6388803.93642  21969849.244    21969845.015
  20505654.086   -24229661.68144 -18620495.82242  20505656.047    20505651.780
  23024826.073   -10316944.05843  -8028876.39742  23024828.016    23024823.846
 04  1  9  3 11  0.0000000  0  8G15G29G22G 6G21G26G18G16
  22327429.570   -13893910.76243 -10800046.20342  22327431.204    22327428.269
  23494084.562     -872479.53343   -670391.27542  23494087.086    23494081.974
  22498695.964    -8400711.62443  -6533005.95342  22498697.013    22498691.923
  21322654.425   -20523522.31843 -15950534.85442  21322656.457    21322653.354
  20576210.325   -20283653.01144 -15589705.08042  20576212.306    20576207.205
  21974275.947    -8195293.70543  -6370666.75542  21974278.509    21974274.251
  20500494.264   -24256776.37144 -18641624.13642  20500496.244    20500491.993
  23027286.072   -10304016.11443  -8018802.65942  23027288.068    23027283.961
 04  1  9  3 11 30.0000000  0  9G 2G15G29G22G 6G21G26G18G16
  24964074.480    -1521942.59553  -1181330.16252  24964075.185    24964077.594
  22314894.782   -13959781.08743 -10851373.68542  22314896.466    22314893.479
  23504117.819     -819753.92743   -629306.38742  23504120.314    23504115.263
  22483292.591    -8481657.01943  -6596080.24742  22483293.511    22483288.614
  21335817.894   -20454347.83543 -15896632.66842  21335819.898    21335816.846
  20575348.162   -20288183.82044 -15593235.57642  20575350.103    20575345.069
  21978829.199    -8171365.58643  -6352021.46242  21978831.788    21978827.550
  20495420.218   -24283440.83244 -18662401.61942  20495422.185    20495417.893
  23029845.617   -10290565.68343  -8008321.80042  23029847.612    23029843.471
 04  1  9  3 12  0.0000000  0  8G15G29G22G 6G21G26G18G16
  22302379.458   -14025548.86243 -10902621.24942  22302381.169    22302378.184
  23514242.671     -766549.02543   -587848.03642  23514244.881    23514239.639
  22467948.386    -8562291.42943  -6658912.22142  22467949.216    22467944.437
  21349059.361   -20384763.38143 -15842411.02542  21349061.330    21349058.390
  20574527.240   -20292497.91244 -15596597.20242  20574529.163    20574524.166
  21983507.064    -8146783.71643  -6332866.74442  21983509.565    21983505.247
  20490432.226   -24309652.80344 -18682826.52142  20490434.185    20490429.932
  23032504.765   -10276591.78143  -7997433.03642  23032506.750    23032502.626
 04  1  9  3 12 30.0000000  0  8G15G29G22G 6G21G26G18G16
  22289883.212   -14091216.07443 -10953790.46942  22289884.896    22289882.014
  23524457.624     -712869.04843   -546019.49342  23524459.920    23524454.543
  22452663.164    -8642616.17143  -6721502.89442  22452663.933    22452659.132
  21362378.110   -20314772.66543 -15787872.80942  21362380.070    21362377.286
  20573747.080   -20296597.73044 -15599791.86342  20573748.954    20573743.980
  21988308.606    -8121551.13443  -6313204.99042  21988311.161    21988306.885
  20485529.824   -24335414.99244 -18702900.94342  20485531.772    20485527.560
  23035262.844   -10262098.09143  -7986139.27342  23035264.796    23035260.643
 04  1  9  3 13  0.0000000  0  8G15G29G22G 6G21G26G18G16
  22277406.558   -14156781.08043 -11004880.02942  22277408.120    22277405.319
  23534762.879     -658713.92243   -503820.69342  23534765.305    23534760.006
  22437437.150    -8722628.85243  -6783850.38942  22437437.952    22437433.151
  21375774.274   -20244375.49143 -15733017.87442  21375776.278    21375773.474
  20573008.091   -20300480.95444 -15602817.74042  20573009.960    20573005.037
  21993234.152    -8095667.10743  -6293035.60142  21993236.782    21993232.515
  20480713.209   -24360726.45343 -18722624.13942  20480715.122    20480710.883
  23038119.902   -10247084.24243  -7974440.16842  23038121.882    23038117.698
 04  1  9  3 13 30.0000000  0  8G15G29G22G 6G21G26G18G16
  22264948.596   -14222247.56543 -11055892.84642  22264950.179    22264947.437
  23545157.606     -604089.40843   -461256.14042  23545160.005    23545154.914
  22422269.908    -8802332.17743  -6845956.83042  22422270.779    22422266.148
  21389246.872   -20173577.34943 -15677850.50342  21389248.858    21389245.876
  20572309.660   -20304151.36944 -15605677.79642  20572311.498    20572306.570
  21998282.891    -8069136.33343  -6272362.25242  21998285.410    21998281.149
  20475981.568   -24385591.42444 -18741999.42742  20475983.476    20475979.155
  23041074.948   -10231555.64343  -7962339.96442  23041076.922    23041072.659
 04  1  9  3 14  0.0000000  0  9G 2G15G29G22G 6G21G26G18G16
  24938228.214    -1494055.53753  -1159819.29452  24938230.485    24938229.543
  22252510.436   -14287610.12043 -11106824.66142  22252511.978    22252509.451
  23555642.428     -548992.00943   -418323.09342  23555644.740    23555639.824
  22407162.745    -8881720.13543  -6907817.54342  22407163.600    22407159.163
  21402796.425   -20102374.41743 -15622367.70842  21402798.433    21402795.259
  20571652.764   -20307603.35444 -15608367.64742  20571654.575    20571649.603
  22003455.459    -8041954.38143  -6251181.49242  22003457.978    22003453.598
  20471335.701   -24410005.09543 -18761023.05442  20471337.641    20471333.402
  23044128.518   -10215508.46643  -7949835.67942  23044130.483    23044126.282
 04  1  9  3 14 30.0000000  0  9G 2G15G29G22G 6G21G26G18G16
  24933298.633    -1519958.64943  -1180003.57842  24933299.985    24933300.816
  22240091.560   -14352871.45643 -11157677.61642  22240093.066    22240090.742
  23566216.234     -493426.63443   -375025.40042  23566218.494    23566213.608
  22392115.442    -8960794.57843  -6969433.94342  22392116.188    22392111.788
  21416422.081   -20030771.05743 -15566572.88842  21416424.136    21416420.909
  20571036.887   -20310839.67444 -15610889.44642  20571038.689    20571033.728
  22008751.109    -8014125.10943  -6229496.33442  22008753.626    22008749.180
  20466775.229   -24433970.49243 -18779697.37642  20466777.149    20466772.964
  23047279.926   -10198947.02843  -7936930.64642  23047281.890    23047277.946
 04  1  9  3 15  0.0000000  0  9G 2G15G29G22G 6G21G26G18G16
  24928449.702    -1545438.88943  -1199858.27842  24928451.038    24928451.966
  22227692.452   -14418028.95243 -11208449.67342  22227693.911    22227691.630
  23576878.937     -437392.62543   -331362.53142  23576881.386    23576876.489
  22377128.319    -9039552.48443  -7030803.70242  22377129.130    22377124.537
  21430124.038   -19958766.51643 -15510465.46642  21430126.121    21430122.956
  20570462.567   -20313857.77744 -15613241.20842  20570464.346    20570459.475
  22014170.138    -7985647.05743  -6207305.63442  22014172.707    22014168.303
  20462300.386   -24457486.01643 -18798021.15042  20462302.290    20462298.070
  23050529.524   -10181870.32543  -7923624.13542  23050531.426    23050527.619
 04  1  9  3 15 30.0000000  0  9G 2G15G29G22G 6G21G26G18G16
  24923681.611    -1570497.18343  -1219384.21742  24923682.751    24923683.258
  22215312.994   -14483083.34743 -11259141.38342  22215314.473    22215312.202
  23587630.409     -380892.99343   -287336.83442  23587632.915    23587627.928
  22362201.422    -9117993.84743  -7091926.79942  22362202.249    22362197.578
  21443901.953   -19886363.23343 -15454047.32642  21443903.999    21443900.895
  20569929.543   -20316658.39844 -15615423.50742  20569931.373    20569926.585
  22019712.416    -7956522.42243  -6184611.11442  22019714.845    22019710.587
  20457910.862   -24480553.37543 -18815995.69942  20457912.745    20457908.462
  23053876.725   -10164281.15343  -7909918.27942  23053878.605    23053874.658
 04  1  9  3 16  0.0000000  0 10G 2G15G29G22G 6G21G23G26G18G16
  24918993.765    -1595133.44743  -1238581.31742  24918994.976    24918994.905
  22202953.210   -14548034.33643 -11309752.50042  22202954.867    22202952.519
  23598470.244     -323929.76243   -242949.89642  23598472.702    23598467.704
  22347334.923    -9196117.68343  -7152802.47542  22347335.718    22347331.066
  21457755.434   -19813562.83343 -15397319.74842  21457757.471    21457754.423
  20569438.099   -20319241.28844 -15617436.14942  20569439.868    20569435.093
  23430688.764    -1654562.47653  -1264740.58352  23430691.099    23430689.338
  22025377.452    -7926752.05943  -6161413.42442  22025379.909    22025375.752
  20453606.467   -24503172.94943 -18833621.32142  20453608.365    20453604.039
  23057321.057   -10146180.80743  -7895814.12042  23057322.999    23057318.922
 04  1  9  3 16 30.0000000  0 10G 2G15G29G22G 6G21G23G26G18G16
  24914386.320    -1619347.51543  -1257449.44142  24914387.657    24914386.829
  22190613.270   -14612881.81543 -11360282.97242  22190614.960    22190612.519
  23609397.936     -266504.41543   -198202.86242  23609400.447    23609395.495
  22332529.119    -9273923.23643  -7213430.13842  22332529.877    22332525.166
  21471684.161   -19740366.92643 -15340283.98342  21471686.236    21471683.203
  20568988.010   -20321606.42144 -15619279.10742  20568989.836    20568984.961
  23414729.467    -1738428.87643  -1330090.98842  23414731.533    23414730.338
  22031165.147    -7896337.11043  -6137713.43742  22031167.653    22031163.533
  20449387.174   -24525345.39843 -18850898.53542  20449389.086    20449384.806
  23060862.296   -10127571.01143  -7881312.98842  23060864.248    23060860.236
 04  1  9  3 17  0.0000000  0 10G 2G15G29G22G 6G21G23G26G18G16
  24909859.298    -1643136.42643  -1275986.23742  24909860.854    24909859.880
  22178293.513   -14677622.63543 -11410730.33642  22178295.277    22178292.754
  23620413.391     -208616.57943   -153095.45842  23620416.108    23620411.197
  22317784.486    -9351406.99643  -7273807.05642  22317785.291    22317780.407
  21485688.452   -19666774.21143 -15282939.01542  21485690.529    21485687.509
  20568580.044   -20323750.47244 -15620949.79442  20568581.882    20568576.951
  23398820.466    -1822031.97143  -1395236.22242  23398822.213    23398821.264
  22037076.112    -7865275.78643  -6113509.80642  22037078.429    22037074.389
  20445253.448   -24547068.30043 -18867825.46142  20445255.350    20445251.134
  23064500.737   -10108450.43643  -7866413.84742  23064502.707    23064498.787
 04  1  9  3 17 30.0000000  0 10G 2G15G29G22G 6G21G23G26G18G16
  24905412.640    -1666503.81143  -1294194.55642  24905414.124    24905413.197
  22165993.482   -14742260.08043 -11461097.14042  22165995.244    22165992.640
  23631516.144     -150271.34343   -107631.63742  23631518.817    23631513.905
  22303100.577    -9428571.34343  -7333935.08342  22303101.416    22303096.486
  21499767.295   -19592789.90843 -15225288.92442  21499769.347    21499766.353
  20568213.505   -20325676.59444 -15622450.66242  20568215.368    20568210.494
  23382960.938    -1905374.33343  -1460178.28342  23382962.714    23382961.553
  22043108.892    -7833572.71543  -6088806.10542  22043111.357    22043107.377
  20441204.488   -24568345.52943 -18884405.10342  20441206.387    20441202.213
  23068235.578   -10088824.01743  -7851120.54842  23068237.493    23068233.611
 04  1  9  3 18  0.0000000  0 10G 2G15G29G22G 6G21G23G26G18G16
  24901047.174    -1689445.19543  -1312070.97842  24901048.577    24901047.641
  22153713.724   -14806789.78243 -11511379.99342  22153715.622    22153713.050
  23642706.361      -91466.52343    -61809.71342  23642708.955    23642704.069
  22288478.272    -9505411.37543  -7393810.39442  22288479.146    22288474.164
  21513921.100   -19518411.21743 -15167331.50742  21513923.199    21513920.182
  20567889.282   -20327380.44844 -15623778.32942  20567891.148    20567886.311
  23367152.143    -1988450.73043  -1524913.07042  23367154.048    23367152.495
  22049264.577    -7801224.36643  -6063599.60942  22049267.007    22049263.004
  20437241.022   -24589173.65543 -18900634.79442  20437242.890    20437238.726
  23072067.115   -10068688.97943  -7835430.89642  23072069.080    23072065.262
 04  1  9  3 18 30.0000000  0 10G 2G15G29G22G 6G21G23G26G18G16
  24896761.585    -1711967.45443  -1329620.75342  24896762.964    24896761.708
  22141453.298   -14871218.31543 -11561584.01042  22141455.124    22141452.690
  23653982.349      -32210.89443    -15636.48742  23653984.917    23653980.020
  22273916.690    -9581933.07543  -7453437.65142  22273917.555    22273912.455
  21528148.283   -19443646.50243 -15109073.29742  21528150.426    21528147.427
  20567606.153   -20328868.16544 -15624937.58142  20567608.014    20567603.169
  23351392.611    -2071267.06343  -1589445.19842  23351394.721    23351392.935
  22055541.239    -7768239.04643  -6037896.76042  22055543.780    22055539.853
  20433361.628   -24609559.82643 -18916520.10242  20433363.481    20433359.332
  23075993.816   -10048053.92143  -7819351.63642  23075995.801    23075991.992
 04  1  9  3 19  0.0000000  0 10G 2G15G29G22G 6G21G23G26G18G16
  24892557.086    -1734063.48243  -1346838.45242  24892558.515    24892556.766
  22129213.702   -14935538.31643 -11611703.45942  22129215.476    22129212.986
  23665344.909       27500.60543     30891.96342  23665347.573    23665342.846
  22259417.089    -9658128.74743  -7512810.86142  22259418.042    22259412.847
  21542450.034   -19368490.33243 -15050510.06442  21542452.122    21542449.102
  20567365.471   -20330133.20744 -15625923.32242  20567367.313    20567362.395
  23335684.280    -2153815.42543  -1653768.60642  23335686.320    23335684.558
  22061940.564    -7734610.85443  -6011692.96142  22061943.077    22061938.983
  20429567.570   -24629497.81143 -18932056.18242  20429569.398    20429565.266
  23080016.843   -10026913.48343  -7802878.57542  23080018.869    23080014.977
 04  1  9  3 19 30.0000000  0 10G 2G15G29G22G 6G21G23G26G18G16
  24888432.483    -1755739.25843  -1363728.63242  24888433.954    24888431.621
  22116993.608   -14999755.31343 -11661742.62342  22116995.463    22116992.854
  23676792.808       87659.98843     77769.42942  23676795.491    23676790.822
  22244978.538    -9734003.41143  -7571933.93942  22244979.493    22244974.242
  21556824.805   -19292950.53043 -14991647.88642  21556826.835    21556823.689
  20567166.091   -20331180.69544 -15626739.54642  20567167.990    20567163.012
  23320025.674    -2236101.08143  -1717887.23542  23320027.667    23320026.323
  22068460.846    -7700347.05643  -5984993.87442  22068463.391    22068459.076
  20425857.525   -24648994.15443 -18947248.12342  20425859.348    20425855.243
  23084134.320   -10005275.29943  -7786017.64842  23084136.413    23084132.653
 04  1  9  3 20  0.0000000  0 11G 2G 3G15G29G22G 6G21G23G26G18G16
  24884389.267    -1776987.01943  -1380285.33142  24884390.666    24884387.960
  24394121.329    -1694286.15953  -1264464.18852  24394123.400    24394117.338
  22104794.667   -15063861.31043 -11711695.31042  22104796.603    22104793.823
  23688327.138      148273.07243    125000.38242  23688329.698    23688325.259
  22230602.743    -9809548.36343  -7630800.09542  22230603.671    22230598.503
  21571273.726   -19217020.87043 -14932481.93242  21571275.765    21571272.541
  20567009.747   -20332002.53344 -15627379.93842  20567011.623    20567006.643
  23304419.254    -2318115.20943  -1781794.29842  23304420.954    23304419.713
  22075103.115    -7665440.97143  -5957794.32442  22075105.714    22075101.511
  20422232.885   -24668041.65543 -18962090.31442  20422234.747    20422230.578
  23088347.721    -9983133.30643  -7768764.12542  23088349.764    23088346.229
 04  1  9  3 20 30.0000000  0 11G 2G 3G15G29G22G 6G21G23G26G18G16
  24880425.961    -1797814.97243  -1396514.86142  24880427.391    24880424.316
  24375153.093    -1793965.35343  -1342136.24342  24375155.012    24375149.519
  22092615.243   -15127864.38443 -11761567.80142  22092617.220    22092614.417
  23699945.927      209329.69243    172576.96342  23699948.404    23699943.963
  22216288.310    -9884770.97643  -7689415.08242  22216289.194    22216284.062
  21585795.039   -19140711.30543 -14873019.94642  21585797.077    21585793.745
  20566894.766   -20332606.70544 -15627850.71842  20566896.677    20566891.703
  23288862.801    -2399865.25043  -1845495.57842  23288864.581    23288863.190
  22081865.818    -7629902.12343  -5930101.72242  22081868.394    22081864.424
  20418692.052   -24686648.86443 -18976589.42442  20418693.903    20418689.704
  23092655.288    -9960497.29643  -7751125.67942  23092657.358    23092653.765
 04  1  9  3 21  0.0000000  0 11G 2G 3G15G29G22G 6G21G23G26G18G16
  24876543.672    -1818216.23843  -1412411.92942  24876545.428    24876542.031
  24356211.484    -1893501.77243  -1419697.04742  24356213.790    24356208.041
  22080456.808   -15191757.26543 -11811354.42742  22080458.759    22080456.014
  23711649.837      270834.60343    220502.88742  23711652.276    23711647.829
  22202036.645    -9959663.98843  -7747773.24542  22202037.533    22202032.349
  21600389.561   -19064016.48643 -14813257.75442  21600391.698    21600388.303
  20566822.593   -20332986.03344 -15628146.29642  20566824.505    20566819.515
  23273358.159    -2481343.39943  -1908984.99942  23273360.120    23273358.320
  22088750.074    -7593724.81943  -5901911.60542  22088752.662    22088748.775
  20415236.127   -24704809.77943 -18990740.77042  20415237.978    20415233.784
  23097057.910    -9937362.10643  -7733098.27542  23097059.894    23097056.267
 04  1  9  3 21 30.0000000  0 11G 2G 3G15G29G22G 6G21G23G26G18G16
  24872742.427    -1838192.02343  -1427977.44542  24872744.236    24872740.531
  24337297.292    -1992894.46443  -1497145.89042  24337299.855    24337294.460
  22068319.065   -15255541.08243 -11861056.05642  22068320.987    22068318.351
  23723438.590      332784.55343    268775.58542  23723440.965    23723436.393
  22187847.567   -10034227.56243  -7805874.70042  22187848.440    22187843.331
  21615056.856   -18986939.31443 -14753197.63642  21615058.980    21615055.633
  20566792.974   -20333141.93044 -15628267.77142  20566794.875    20566789.838
  23257904.736    -2562549.97643  -1972262.79642  23257906.954    23257905.216
  22095755.458    -7556911.65943  -5873226.02442  22095757.987    22095754.161
  20411864.781   -24722526.36744 -19004545.89342  20411866.628    20411862.435
  23101554.579    -9913730.73543  -7714684.19742  23101556.691    23101553.160
 04  1  9  3 22  0.0000000  0 11G 2G 3G15G29G22G 6G21G23G26G18G16
  24869021.616    -1857744.77643  -1443213.35942  24869023.316    24869019.582
  24318410.831    -2092143.17743  -1574482.52642  24318413.486    24318408.037
  22056201.728   -15319217.61743 -11910674.09942  22056203.601    22056200.977
  23735310.898      395175.45843    317391.88342  23735313.373    23735308.958
  22173721.096   -10108462.99443  -7863720.45842  22173721.921    22173716.780
  21629796.109   -18909483.66543 -14692842.59342  21629798.213    21629795.034
  20566805.580   -20333075.47744 -15628215.98042  20566807.515    20566802.465
  23242502.990    -2643486.24743  -2035329.98942  23242505.123    23242503.563
  22102881.183    -7519466.03743  -5844047.60142  22102883.695    22102879.782
  20408577.457   -24739801.33643 -19018006.89042  20408579.344    20408575.130
  23106145.271    -9889606.90543  -7695886.43342  23106147.181    23106143.804
 04  1  9  3 22 30.0000000  0 11G 2G 3G15G29G22G 6G21G23G26G18G16
  24865381.949    -1876872.11443  -1458117.79242  24865383.493    24865379.312
  24299552.690    -2191243.12143  -1651703.22442  24299555.177    24299549.805
  22044105.382   -15382784.07643 -11960206.36942  22044107.169    22044104.533
  23747267.431      458007.77543    366352.13142  23747269.768    23747265.484
  22159657.607   -10182367.01143  -7921307.97342  22159658.548    22159653.282
  21644607.585   -18831648.81443 -14632192.06942  21644609.633    21644606.556
  20566860.962   -20332784.00444 -15627988.85142  20566862.936    20566857.952
  23227153.274    -2724148.96943  -2098184.00042  23227155.212    23227154.006
  22110127.476    -7481386.97743  -5814375.58742  22110129.987    22110125.967
  20405374.506   -24756632.77143 -19031122.28042  20405376.413    20405372.146
  23110829.751    -9864990.01943  -7676704.42242  23110831.673    23110828.338
